[[{"header":{"parameterUnit":"m.s-1","parameterCategory":1,"la1":30.6,"la2":29.2853,"lo1":-89.7004,"lo2":-87.6739,"dy":0.0162,"dx":0.0183,"nx":112,"ny":82,"refTime":"2023-03-06T18:00:00:Z","depth":0,"parameterNumber":2,"parameterNumberName":"U-component_of_WINDS"},"data":[0.0,0.0,0.0,0.0,0.0,0.0,0.0,0.0,0.0,0.0,0.0,0.0,0.0,0.0,0.0,0.0,0.0,0.0,0.0,0.0,0.0,0.0,0.0,0.0,0.0,0.0,0.0,0.0,0.0,0.0,0.0,0.0,0.0,0.0,0.0,0.0,0.0,0.0,0.0,0.0,0.0,0.0,0.0,0.0,0.0,0.0,0.0,0.0,0.0,0.0,0.0,0.0,0.0,0.0,0.0,0.0,0.0,0.0,0.0,0.0,0.0,0.0,0.0,0.0,0.0,0.0,0.0,0.0,0.0,0.0,0.0,0.0,0.0,0.0,0.0,0.0,0.0,0.0,0.0,0.0,0.0,0.0,0.0,0.0,0.0,0.0,0.0,0.0,0.0,0.0,-2.2997,-2.4152,-2.5864,-2.69,-2.6996,-2.6744,-2.629,-2.5675,0.0,0.0,0.0,0.0,0.0,0.0,0.0,0.0,0.0,0.0,0.0,0.0,0.0,0.0,0.0,0.0,0.0,0.0,0.0,0.0,0.0,0.0,0.0,0.0,0.0,0.0,0.0,0.0,0.0,0.0,0.0,0.0,0.0,0.0,0.0,0.0,0.0,0.0,0.0,0.0,0.0,0.0,0.0,0.0,0.0,0.0,0.0,0.0,0.0,0.0,0.0,0.0,0.0,0.0,0.0,0.0,0.0,0.0,0.0,0.0,0.0,0.0,0.0,0.0,0.0,0.0,0.0,0.0,0.0,0.0,0.0,0.0,0.0,0.0,0.0,0.0,0.0,0.0,0.0,0.0,0.0,0.0,0.0,0.0,0.0,0.0,0.0,0.0,0.0,0.0,0.0,0.0,0.0,0.0,0.0,0.0,0.0,0.0,0.0,0.0,0.0,0.0,0.0,0.0,-2.4342,-2.6225,-2.6723,-2.6986,-2.7262,-2.6837,-2.6372,-2.5916,0.0,0.0,0.0,0.0,0.0,0.0,0.0,0.0,0.0,0.0,0.0,0.0,0.0,0.0,0.0,0.0,0.0,0.0,0.0,0.0,0.0,0.0,0.0,0.0,0.0,0.0,0.0,0.0,0.0,0.0,0.0,0.0,0.0,0.0,0.0,0.0,0.0,0.0,0.0,0.0,0.0,0.0,0.0,0.0,0.0,0.0,0.0,0.0,0.0,0.0,0.0,0.0,0.0,0.0,0.0,0.0,0.0,0.0,0.0,0.0,0.0,0.0,0.0,0.0,0.0,0.0,0.0,0.0,0.0,0.0,0.0,0.0,0.0,0.0,0.0,0.0,0.0,0.0,0.0,0.0,0.0,0.0,0.0,0.0,0.0,0.0,0.0,0.0,0.0,0.0,0.0,0.0,0.0,0.0,0.0,0.0,0.0,0.0,0.0,0.0,0.0,0.0,0.0,-2.3639,-2.5066,-2.6703,-2.6986,-2.7177,-2.7262,-2.7065,-2.6641,-2.5927,-2.5393,0.0,0.0,0.0,0.0,0.0,0.0,0.0,0.0,0.0,0.0,0.0,0.0,0.0,0.0,0.0,0.0,0.0,0.0,0.0,0.0,0.0,0.0,0.0,0.0,0.0,0.0,0.0,0.0,0.0,0.0,0.0,0.0,0.0,0.0,0.0,0.0,0.0,0.0,0.0,0.0,0.0,0.0,0.0,0.0,0.0,0.0,0.0,0.0,0.0,0.0,0.0,0.0,0.0,0.0,0.0,0.0,0.0,0.0,0.0,0.0,0.0,0.0,0.0,0.0,0.0,0.0,0.0,0.0,0.0,0.0,0.0,0.0,0.0,0.0,0.0,0.0,0.0,0.0,0.0,0.0,0.0,0.0,0.0,0.0,0.0,0.0,0.0,0.0,0.0,0.0,0.0,0.0,0.0,0.0,0.0,0.0,0.0,0.0,0.0,0.0,0.0,0.0,-2.472,-2.5531,-2.6894,-2.7167,-2.7262,-2.7262,-2.7262,-2.6868,-2.5937,-2.5875,0.0,0.0,0.0,0.0,0.0,0.0,0.0,0.0,0.0,0.0,0.0,0.0,0.0,0.0,0.0,0.0,0.0,0.0,0.0,0.0,0.0,0.0,0.0,0.0,0.0,0.0,0.0,0.0,0.0,0.0,0.0,0.0,0.0,0.0,0.0,0.0,0.0,0.0,0.0,0.0,0.0,0.0,0.0,0.0,0.0,0.0,0.0,0.0,0.0,0.0,0.0,0.0,0.0,0.0,0.0,0.0,0.0,0.0,0.0,0.0,0.0,0.0,0.0,0.0,0.0,0.0,0.0,0.0,0.0,0.0,0.0,0.0,0.0,0.0,0.0,0.0,0.0,0.0,0.0,0.0,0.0,0.0,0.0,0.0,0.0,0.0,0.0,0.0,0.0,0.0,0.0,0.0,0.0,0.0,0.0,0.0,0.0,0.0,0.0,0.0,0.0,0.0,-2.529,-2.5993,-2.7169,-2.7262,-2.7262,-2.7262,-2.7262,-2.6868,-2.5937,-2.5875,0.0,0.0,0.0,0.0,0.0,0.0,0.0,0.0,0.0,0.0,0.0,0.0,0.0,0.0,0.0,0.0,0.0,0.0,0.0,0.0,0.0,0.0,0.0,0.0,0.0,0.0,0.0,0.0,0.0,0.0,0.0,0.0,0.0,0.0,0.0,0.0,0.0,0.0,0.0,0.0,0.0,0.0,0.0,0.0,0.0,0.0,0.0,0.0,0.0,0.0,0.0,0.0,0.0,0.0,0.0,0.0,0.0,0.0,0.0,0.0,0.0,0.0,0.0,0.0,0.0,0.0,0.0,0.0,0.0,0.0,0.0,0.0,0.0,0.0,0.0,0.0,0.0,0.0,0.0,0.0,0.0,0.0,0.0,0.0,0.0,0.0,0.0,0.0,0.0,0.0,0.0,0.0,0.0,0.0,0.0,0.0,0.0,0.0,0.0,0.0,0.0,0.0,-2.5604,-2.6279,-2.7189,-2.7262,-2.7262,-2.7262,-2.7262,-2.6868,-2.5937,0.0,0.0,0.0,0.0,0.0,0.0,0.0,0.0,0.0,0.0,0.0,0.0,0.0,0.0,0.0,0.0,0.0,0.0,0.0,0.0,0.0,0.0,0.0,0.0,0.0,0.0,0.0,0.0,0.0,0.0,0.0,0.0,0.0,0.0,0.0,0.0,0.0,0.0,0.0,0.0,0.0,0.0,0.0,0.0,0.0,0.0,0.0,0.0,0.0,0.0,0.0,0.0,0.0,0.0,0.0,0.0,0.0,0.0,0.0,0.0,0.0,0.0,0.0,0.0,0.0,0.0,0.0,0.0,0.0,0.0,0.0,0.0,0.0,0.0,0.0,0.0,0.0,0.0,0.0,0.0,0.0,0.0,0.0,0.0,0.0,0.0,0.0,0.0,0.0,0.0,0.0,0.0,0.0,0.0,0.0,0.0,0.0,0.0,0.0,0.0,0.0,0.0,-2.5219,-2.5921,-2.6547,-2.721,-2.7262,-2.7262,-2.7262,-2.7262,-2.6868,-2.5937,0.0,0.0,0.0,0.0,0.0,0.0,0.0,0.0,0.0,0.0,0.0,0.0,0.0,0.0,0.0,0.0,0.0,0.0,0.0,0.0,0.0,0.0,0.0,0.0,0.0,0.0,0.0,0.0,0.0,0.0,0.0,0.0,0.0,0.0,0.0,0.0,0.0,0.0,0.0,0.0,0.0,0.0,0.0,0.0,0.0,0.0,0.0,0.0,0.0,0.0,0.0,0.0,0.0,0.0,0.0,0.0,0.0,0.0,0.0,0.0,0.0,0.0,0.0,0.0,0.0,0.0,0.0,0.0,0.0,0.0,0.0,0.0,0.0,0.0,0.0,0.0,0.0,0.0,0.0,0.0,0.0,0.0,0.0,0.0,0.0,0.0,0.0,0.0,0.0,0.0,0.0,0.0,0.0,0.0,0.0,0.0,0.0,0.0,0.0,0.0,0.0,0.0,-2.5502,-2.6218,-2.6755,-2.721,-2.7262,-2.7262,-2.7262,-2.7262,-2.6868,0.0,0.0,0.0,0.0,0.0,0.0,0.0,0.0,0.0,0.0,0.0,0.0,0.0,0.0,0.0,0.0,0.0,0.0,0.0,0.0,0.0,0.0,0.0,0.0,0.0,0.0,0.0,0.0,0.0,0.0,0.0,0.0,0.0,0.0,0.0,0.0,0.0,0.0,0.0,0.0,0.0,0.0,0.0,0.0,0.0,0.0,0.0,0.0,0.0,0.0,0.0,0.0,0.0,0.0,0.0,0.0,0.0,0.0,0.0,0.0,0.0,0.0,0.0,0.0,0.0,0.0,0.0,0.0,0.0,0.0,0.0,0.0,0.0,0.0,0.0,0.0,0.0,0.0,0.0,0.0,0.0,0.0,0.0,0.0,0.0,0.0,0.0,0.0,0.0,0.0,0.0,0.0,0.0,0.0,0.0,0.0,0.0,0.0,0.0,0.0,0.0,0.0,0.0,-2.5543,-2.6496,-2.7107,-2.7251,-2.7262,-2.7262,-2.7262,-2.7262,-2.7003,-2.6403,0.0,0.0,0.0,0.0,0.0,0.0,0.0,0.0,0.0,0.0,0.0,0.0,0.0,0.0,0.0,0.0,0.0,0.0,0.0,0.0,0.0,0.0,0.0,0.0,0.0,0.0,0.0,0.0,0.0,0.0,0.0,0.0,0.0,0.0,0.0,0.0,0.0,0.0,0.0,0.0,0.0,0.0,0.0,0.0,0.0,0.0,0.0,0.0,0.0,0.0,0.0,0.0,0.0,0.0,0.0,0.0,0.0,0.0,0.0,0.0,0.0,0.0,0.0,0.0,0.0,0.0,0.0,0.0,0.0,0.0,0.0,0.0,0.0,0.0,0.0,0.0,0.0,0.0,0.0,0.0,0.0,0.0,0.0,0.0,0.0,0.0,0.0,0.0,0.0,0.0,0.0,0.0,0.0,0.0,0.0,0.0,0.0,0.0,0.0,0.0,0.0,0.0,-2.5725,-2.6599,-2.7262,-2.7262,-2.7262,-2.7262,-2.7262,-2.7262,-2.7065,-2.6599,0.0,0.0,0.0,0.0,0.0,0.0,0.0,0.0,0.0,0.0,0.0,0.0,0.0,0.0,0.0,0.0,0.0,0.0,0.0,0.0,0.0,0.0,0.0,0.0,0.0,0.0,0.0,0.0,0.0,0.0,0.0,0.0,0.0,0.0,0.0,0.0,0.0,0.0,0.0,0.0,0.0,0.0,0.0,0.0,0.0,0.0,0.0,0.0,0.0,0.0,0.0,0.0,0.0,0.0,0.0,0.0,0.0,0.0,0.0,0.0,0.0,0.0,0.0,0.0,0.0,0.0,0.0,0.0,0.0,0.0,0.0,0.0,0.0,0.0,0.0,0.0,0.0,0.0,0.0,0.0,0.0,0.0,0.0,0.0,0.0,0.0,0.0,0.0,0.0,0.0,0.0,0.0,0.0,0.0,0.0,0.0,0.0,0.0,0.0,0.0,0.0,0.0,-2.5885,-2.6693,-2.7262,-2.7262,-2.7262,-2.7262,-2.7262,-2.7262,-2.7076,-2.6662,0.0,0.0,0.0,0.0,0.0,0.0,0.0,0.0,0.0,0.0,0.0,0.0,0.0,0.0,0.0,0.0,0.0,0.0,0.0,0.0,0.0,0.0,0.0,0.0,0.0,0.0,0.0,0.0,0.0,0.0,0.0,0.0,0.0,0.0,0.0,0.0,0.0,0.0,0.0,0.0,0.0,0.0,0.0,0.0,0.0,0.0,0.0,0.0,0.0,0.0,0.0,0.0,0.0,0.0,0.0,0.0,0.0,0.0,0.0,0.0,-2.0272,-1.9968,0.0,0.0,0.0,0.0,0.0,0.0,0.0,0.0,0.0,0.0,0.0,0.0,0.0,0.0,0.0,0.0,0.0,0.0,0.0,0.0,0.0,0.0,0.0,0.0,0.0,0.0,0.0,0.0,0.0,0.0,0.0,0.0,0.0,0.0,0.0,0.0,0.0,0.0,0.0,0.0,-2.5875,-2.6693,-2.7262,-2.7262,-2.7262,-2.7262,-2.7262,-2.7262,-2.722,-2.7117,-2.6672,0.0,0.0,0.0,0.0,0.0,0.0,0.0,0.0,0.0,0.0,0.0,0.0,0.0,0.0,0.0,0.0,0.0,0.0,0.0,0.0,0.0,0.0,0.0,0.0,0.0,0.0,0.0,0.0,0.0,0.0,0.0,0.0,0.0,0.0,0.0,0.0,0.0,0.0,0.0,0.0,0.0,0.0,0.0,0.0,0.0,0.0,0.0,0.0,0.0,0.0,0.0,0.0,0.0,0.0,0.0,0.0,0.0,0.0,0.0,-2.1371,-2.1024,0.0,0.0,0.0,0.0,0.0,0.0,0.0,0.0,0.0,0.0,0.0,0.0,0.0,0.0,0.0,0.0,0.0,0.0,0.0,0.0,0.0,0.0,0.0,0.0,0.0,0.0,0.0,0.0,0.0,0.0,0.0,0.0,0.0,0.0,0.0,0.0,0.0,0.0,0.0,0.0,-2.6185,-2.6827,-2.7262,-2.7262,-2.7262,-2.7262,-2.7262,-2.7262,-2.7262,-2.7262,-2.6827,0.0,0.0,0.0,0.0,0.0,0.0,0.0,0.0,0.0,0.0,0.0,0.0,0.0,0.0,0.0,0.0,0.0,0.0,0.0,0.0,0.0,0.0,0.0,0.0,0.0,0.0,0.0,0.0,0.0,0.0,0.0,0.0,0.0,0.0,0.0,0.0,0.0,0.0,0.0,0.0,0.0,0.0,0.0,0.0,0.0,0.0,0.0,0.0,0.0,0.0,0.0,0.0,0.0,-2.1503,-2.191,-2.2559,-2.3043,-2.3268,-2.3315,-2.2441,-2.214,-2.2226,-2.1835,0.0,0.0,0.0,0.0,0.0,0.0,0.0,0.0,0.0,0.0,0.0,0.0,0.0,0.0,0.0,0.0,0.0,0.0,0.0,0.0,0.0,0.0,0.0,0.0,-2.3287,-2.3238,-2.2754,0.0,0.0,0.0,0.0,0.0,0.0,0.0,0.0,0.0,0.0,0.0,-2.6517,-2.6972,-2.7262,-2.7262,-2.7262,-2.7262,-2.7262,-2.7262,-2.7262,-2.7262,-2.69,-2.6651,0.0,0.0,0.0,0.0,0.0,0.0,0.0,0.0,0.0,0.0,0.0,0.0,0.0,0.0,0.0,0.0,0.0,0.0,0.0,0.0,0.0,0.0,0.0,0.0,0.0,0.0,0.0,0.0,0.0,0.0,0.0,0.0,-0.9941,-1.089,0.0,0.0,0.0,0.0,0.0,0.0,0.0,0.0,0.0,0.0,0.0,0.0,0.0,-1.9918,-2.0486,-2.0885,-2.138,-2.1886,-2.2508,-2.3155,-2.3734,-2.404,-2.4334,-2.4645,-2.4143,0.0,-2.3475,-2.307,0.0,0.0,0.0,0.0,0.0,0.0,0.0,0.0,0.0,0.0,0.0,0.0,0.0,0.0,0.0,0.0,0.0,0.0,0.0,0.0,0.0,0.0,-2.4079,-2.4136,-2.4418,-2.4673,0.0,-2.3869,-2.342,-2.3792,-2.4205,-2.4505,0.0,0.0,0.0,0.0,0.0,0.0,-2.6558,-2.6972,-2.7262,-2.7262,-2.7262,-2.7262,-2.7262,-2.7262,-2.7262,-2.7262,-2.72,-2.6993,-2.6589,-2.6455,0.0,0.0,0.0,0.0,0.0,0.0,0.0,0.0,0.0,0.0,0.0,0.0,0.0,0.0,0.0,0.0,0.0,0.0,0.0,0.0,0.0,0.0,0.0,0.0,0.0,0.0,0.0,0.0,0.0,-1.0453,-1.1413,-1.2186,-1.2778,-1.3457,0.0,0.0,0.0,0.0,0.0,0.0,0.0,0.0,0.0,-2.0188,-2.0549,-2.1112,-2.1789,-2.1971,-2.2473,-2.3307,-2.3578,-2.3972,-2.456,-2.4764,-2.4965,-2.5128,-2.515,-2.4958,-2.4727,-2.397,-2.3693,-2.3828,0.0,0.0,0.0,0.0,-2.315,-2.3178,-2.3419,-2.3496,-2.3496,-2.3496,0.0,0.0,0.0,0.0,0.0,0.0,0.0,-2.3924,0.0,0.0,-2.4851,-2.5006,-2.5208,-2.5342,-2.5342,-2.5044,-2.4612,0.0,-2.4795,-2.5027,-2.4917,-2.5491,0.0,0.0,0.0,-2.6662,-2.692,-2.7138,-2.7262,-2.7262,-2.7262,-2.7262,-2.7262,-2.7262,-2.7262,-2.7262,-2.7262,-2.7169,-2.6962,-2.6703,-2.6382,0.0,0.0,0.0,0.0,0.0,0.0,0.0,0.0,0.0,0.0,0.0,0.0,0.0,0.0,0.0,0.0,0.0,0.0,0.0,0.0,0.0,0.0,0.0,0.0,0.0,0.0,0.0,0.0,-1.2009,-1.2723,-1.3481,-1.4102,-1.4867,0.0,0.0,0.0,0.0,0.0,0.0,-1.935,-2.007,-2.0677,-2.1257,-2.1553,-2.1977,-2.2625,-2.284,-2.3354,-2.426,-2.4478,-2.4745,-2.5137,-2.5333,-2.544,-2.543,-2.5635,-2.5742,-2.5674,-2.4724,-2.4404,-2.4541,-2.4121,-2.3945,-2.3945,-2.3945,-2.3945,-2.3994,-2.4307,-2.4414,-2.4414,-2.4414,-2.4414,-2.4355,-2.4043,0.0,0.0,0.0,0.0,-2.4658,-2.498,-2.5156,-2.5322,-2.5664,-2.5742,-2.5742,-2.5742,-2.5742,-2.5548,0.0,-2.5283,-2.548,-2.536,-2.589,0.0,-2.6537,-2.6672,-2.6868,-2.722,-2.7262,-2.7262,-2.7262,-2.7262,-2.7262,-2.7262,-2.7262,-2.7262,-2.7262,-2.7262,-2.7262,-2.7262,-2.6931,-2.6693,-2.6486,0.0,0.0,0.0,0.0,0.0,0.0,0.0,0.0,0.0,0.0,0.0,0.0,0.0,0.0,0.0,0.0,0.0,0.0,0.0,0.0,0.0,0.0,0.0,0.0,0.0,0.0,0.0,0.0,0.0,-1.506,-1.5423,0.0,0.0,0.0,0.0,-1.939,-1.9697,-2.0148,-2.0985,-2.1281,-2.1658,-2.1998,-2.2264,-2.2362,-2.2381,-2.3246,-2.3765,-2.4102,-2.491,-2.5421,-2.5635,-2.5635,-2.5635,-2.5635,-2.5732,-2.5742,-2.5703,-2.5234,-2.5039,-2.499,-2.4551,-2.4385,-2.4385,-2.4385,-2.4385,-2.4385,-2.4414,-2.4414,-2.4414,-2.4414,-2.4414,-2.4414,-2.4394,-2.4385,0.0,0.0,-2.4717,-2.5039,-2.5059,-2.5381,-2.5713,-2.5732,-2.5742,-2.5742,-2.5742,-2.5742,-2.5732,0.0,-2.6071,-2.6295,-2.5873,0.0,-2.7044,-2.663,-2.6941,-2.7231,-2.7262,-2.7262,-2.7262,-2.7262,-2.7262,-2.7262,-2.7262,-2.7262,-2.7262,-2.7262,-2.7262,-2.7262,-2.7262,-2.7241,-2.6929,-2.6227,-2.6176,0.0,0.0,0.0,0.0,0.0,0.0,0.0,0.0,0.0,0.0,0.0,0.0,0.0,0.0,0.0,0.0,0.0,0.0,0.0,0.0,0.0,0.0,0.0,0.0,0.0,0.0,0.0,0.0,-1.6431,-1.7134,0.0,-1.8345,-1.8939,-1.9516,-2.0174,-2.0845,-2.139,-2.1797,-2.2159,-2.2465,-2.2696,-2.2706,-2.284,-2.3287,-2.3857,-2.4375,-2.475,-2.5257,-2.5635,-2.5742,-2.5742,-2.5742,-2.5742,-2.5742,-2.5742,-2.5723,-2.5566,-2.5498,-2.5449,-2.501,-2.4834,-2.4834,-2.4834,-2.4834,-2.4873,-2.5166,-2.5264,-2.5264,-2.5264,-2.5068,-2.4893,-2.5176,-2.5068,-2.4893,-2.5185,-2.5381,-2.5498,-2.5498,-2.5615,-2.5742,-2.5742,-2.5742,-2.5742,-2.5742,-2.5742,-2.5742,-2.5742,-2.6014,-2.6244,-2.6285,-2.6683,-2.702,-2.7044,-2.7148,-2.7262,-2.7262,-2.7262,-2.7262,-2.7262,-2.7262,-2.7262,-2.7262,-2.7262,-2.7272,-2.7081,-2.7081,-2.6986,-2.6784,-2.6784,-2.6617,-2.636,-2.5983,-2.5495,0.0,0.0,0.0,0.0,0.0,0.0,0.0,0.0,0.0,0.0,0.0,0.0,0.0,0.0,0.0,0.0,0.0,0.0,0.0,0.0,0.0,0.0,0.0,0.0,0.0,-1.5627,-1.6571,-1.7546,-1.8287,-1.8997,-1.9678,-2.011,-2.0607,-2.1352,-2.1959,-2.2447,-2.2705,-2.2988,-2.3144,-2.3232,-2.3154,-2.3203,-2.3564,-2.3994,-2.4424,-2.4853,-2.5293,-2.5596,-2.5742,-2.5742,-2.5742,-2.5742,-2.5742,-2.5742,-2.5742,-2.5742,-2.5742,-2.5713,-2.541,-2.5293,-2.5293,-2.5293,-2.5293,-2.5332,-2.5635,-2.5742,-2.5742,-2.5742,-2.5537,-2.5352,-2.5644,-2.5527,-2.5361,-2.5654,-2.5742,-2.5742,-2.5742,-2.5742,-2.5742,-2.5742,-2.5742,-2.5742,-2.5742,-2.5742,-2.5742,-2.5742,-2.5917,-2.6197,-2.6294,-2.6602,-2.6794,-2.6976,-2.7071,-2.7071,-2.7071,-2.7071,-2.7071,-2.7071,-2.7071,-2.7071,-2.7071,-2.7071,-2.6976,-2.6805,-2.6805,-2.6699,-2.6496,-2.6496,-2.6496,-2.64,-2.5674,-2.5362,-2.5352,0.0,0.0,0.0,0.0,0.0,0.0,0.0,0.0,0.0,0.0,0.0,0.0,0.0,0.0,0.0,0.0,0.0,0.0,0.0,0.0,0.0,0.0,0.0,-1.531,-1.6085,-1.718,-1.858,-1.9079,-1.9835,-2.1284,-2.1277,-2.1736,-2.3018,-2.3135,-2.3309,-2.3754,-2.3841,-2.3754,-2.3503,-2.3503,-2.3406,-2.3135,-2.3574,-2.4004,-2.4424,-2.4863,-2.5303,-2.5742,-2.5742,-2.5742,-2.5742,-2.5742,-2.5742,-2.5742,-2.5742,-2.5742,-2.5742,-2.5742,-2.5742,-2.5742,-2.5742,-2.5742,-2.5742,-2.5742,-2.5742,-2.5742,-2.5742,-2.5742,-2.5742,-2.5742,-2.5742,-2.5742,-2.5742,-2.5742,-2.5742,-2.5742,-2.5742,-2.5742,-2.5742,-2.5742,-2.5742,-2.5742,-2.5742,-2.5742,-2.5742,-2.5917,-2.61,-2.61,-2.6294,-2.6496,-2.6496,-2.6496,0.0,-2.6496,-2.6496,-2.6496,-2.6496,-2.6496,-2.6496,-2.6496,-2.6496,-2.6496,-2.6496,-2.6496,-2.6496,-2.6506,-2.6506,-2.64,-2.61,-2.5494,-2.5088,-2.5068,0.0,0.0,0.0,0.0,0.0,0.0,0.0,0.0,0.0,0.0,0.0,0.0,0.0,0.0,0.0,0.0,0.0,0.0,0.0,0.0,0.0,-1.4542,-1.5547,-1.6563,-1.7492,-1.8523,-1.9718,-2.041,-2.0971,-2.1535,-2.2073,-2.2581,-2.3038,-2.3406,-2.3754,-2.411,-2.411,-2.3937,-2.3754,-2.359,-2.3406,-2.3135,-2.3574,-2.4004,-2.4424,-2.4863,-2.5303,-2.5742,-2.5742,-2.5742,-2.5742,-2.5742,-2.5742,-2.5742,-2.5742,-2.5742,-2.5742,-2.5742,-2.5742,-2.5742,-2.5742,-2.5742,-2.5742,-2.5742,-2.5742,-2.5742,-2.5742,-2.5742,-2.5742,-2.5742,-2.5742,-2.5742,-2.5742,-2.5742,-2.5742,-2.5742,-2.5742,-2.5742,-2.5742,-2.5742,-2.5742,-2.5742,-2.5742,-2.5742,-2.5742,-2.5732,-2.5917,-2.61,-2.6197,-2.6294,-2.6496,-2.6496,-2.6496,-2.6496,-2.6496,-2.6496,-2.6496,-2.6496,-2.6496,-2.6496,-2.6496,-2.64,-2.6197,-2.6197,-2.611,-2.5927,-2.5927,-2.5927,-2.583,-2.5615,-2.5391,0.0,0.0,0.0,0.0,0.0,0.0,0.0,0.0,0.0,0.0,0.0,0.0,0.0,0.0,0.0,0.0,0.0,0.0,0.0,0.0,0.0,0.0,-1.5053,-1.6213,-1.7513,-1.8346,-1.9231,-2.0331,-2.1114,-2.1651,-2.1998,-2.2441,-2.2969,-2.3396,-2.3667,-2.3927,-2.4292,-2.4292,-2.411,-2.3841,-2.358,-2.3406,-2.3135,-2.3389,-2.3818,-2.4424,-2.4668,-2.5127,-2.5742,-2.5742,-2.5742,-2.5742,-2.5742,-2.5742,-2.5742,-2.5742,-2.5742,0.0,0.0,0.0,0.0,0.0,-2.5742,-2.5742,-2.5742,-2.5742,-2.5742,-2.5742,-2.5742,-2.5742,-2.5742,-2.5742,-2.5742,-2.5742,-2.5742,-2.5742,-2.5742,-2.5742,-2.5742,-2.5742,-2.5742,-2.5742,-2.5742,-2.5742,-2.5742,-2.5742,-2.5742,0.0,-2.5917,-2.5917,-2.6014,-2.611,-2.612,-2.612,-2.612,-2.612,-2.612,-2.612,-2.612,-2.612,-2.612,-2.612,0.0,0.0,0.0,-2.582,-2.5742,-2.5742,0.0,0.0,0.0,-2.5605,-2.5352,0.0,0.0,0.0,-2.4775,-2.4824,0.0,0.0,0.0,0.0,0.0,0.0,0.0,0.0,0.0,0.0,0.0,0.0,0.0,0.0,0.0,0.0,-1.568,-1.6996,-1.8221,-1.8889,-1.963,-2.061,-2.1374,-2.1909,-2.2353,-2.2618,-2.3057,-2.3754,-2.3754,-2.3927,-2.4368,-2.4282,0.0,0.0,0.0,-2.3406,-2.3135,-2.3184,-2.3613,-2.4414,-2.4463,-2.4932,-2.5742,-2.5742,-2.5742,-2.5742,-2.5742,-2.5742,-2.5742,-2.5742,-2.5742,-2.5742,-2.5742,-2.5742,-2.5742,-2.5742,-2.5742,-2.5742,-2.5742,0.0,0.0,-2.5742,-2.5742,-2.5742,-2.5742,-2.5742,-2.5742,-2.5742,-2.5742,-2.5742,-2.5742,-2.5742,-2.5742,-2.5742,-2.5742,-2.5742,-2.5742,-2.5742,-2.5742,-2.5742,-2.5742,-2.5742,-2.5742,-2.5742,-2.5742,-2.5742,-2.5742,-2.5742,-2.5742,-2.5742,-2.5742,-2.5742,0.0,0.0,-2.5742,-2.5742,-2.5742,-2.5742,-2.5742,-2.5742,-2.5742,-2.5742,-2.5742,-2.5742,-2.5742,-2.5742,-2.5742,-2.5742,-2.5742,-2.5723,-2.5332,-2.5146,0.0,0.0,0.0,0.0,0.0,0.0,0.0,0.0,0.0,0.0,0.0,0.0,0.0,0.0,0.0,-1.4701,-1.6005,-1.7236,-1.8493,-1.9455,-2.0296,-2.0898,-2.1553,-2.2097,-2.2353,-2.2794,-2.3232,-2.3503,-2.359,-2.3667,-2.3927,-2.3927,-2.3754,-2.359,-2.3503,-2.3406,-2.3135,-2.3486,-2.3916,-2.4424,0.0,0.0,-2.5742,-2.5742,-2.5742,-2.5742,-2.5742,-2.5742,-2.5742,-2.5742,-2.5742,-2.5742,-2.5742,-2.5742,-2.5742,-2.5742,-2.5742,-2.5742,-2.5742,-2.5742,-2.5742,-2.5742,-2.5742,-2.5742,-2.5742,-2.5742,0.0,-2.5742,-2.5742,-2.5742,-2.5742,-2.5742,-2.5742,-2.5742,-2.5742,-2.5742,-2.5742,-2.5742,-2.5742,-2.5742,-2.5742,-2.5742,-2.5742,-2.5742,-2.5742,-2.5742,-2.5742,-2.5742,-2.5742,-2.5742,-2.5742,-2.5742,-2.5742,-2.5742,-2.5742,-2.5742,-2.5742,-2.5742,-2.5742,-2.5742,-2.5742,-2.5742,-2.5742,-2.5742,-2.5742,-2.5742,-2.5742,-2.5742,-2.5742,-2.5742,-2.5644,-2.5605,0.0,0.0,0.0,0.0,0.0,0.0,0.0,0.0,0.0,0.0,0.0,-1.0916,-1.1607,0.0,-1.3842,-1.5026,-1.6203,-1.7333,-1.8588,-1.9654,-2.0464,-2.0907,-2.1633,-2.2185,-2.2353,-2.2706,-2.3057,-2.3503,-2.3503,-2.359,-2.3754,-2.3667,-2.358,-2.3503,-2.3416,-2.334,-2.3467,-2.3682,-2.4111,-2.4746,-2.4961,-2.5303,-2.5742,-2.5742,-2.5742,-2.5742,-2.5742,-2.5742,-2.5742,-2.5742,-2.5742,-2.5742,-2.5742,-2.5742,-2.5742,-2.5742,-2.5742,-2.5742,-2.5742,-2.5742,-2.5742,-2.5742,-2.5742,-2.5742,-2.5742,-2.5742,-2.5742,-2.5742,-2.5742,-2.5742,-2.5742,-2.5742,-2.5742,-2.5742,-2.5742,-2.5742,-2.5742,-2.5742,-2.5742,-2.5742,-2.5742,-2.5742,-2.5742,-2.5742,-2.5742,-2.5742,-2.5742,-2.5742,-2.5742,-2.5742,-2.5742,-2.5742,-2.5742,-2.5742,-2.5742,-2.5742,-2.5742,-2.5742,-2.5742,-2.5742,-2.5742,-2.5742,-2.5742,-2.5742,-2.5742,-2.5742,-2.5742,-2.5742,-2.5742,-2.5742,-2.5742,-2.5742,0.0,0.0,0.0,0.0,0.0,0.0,0.0,0.0,-0.8484,-0.9203,-1.026,-1.132,-1.2037,-1.296,-1.4025,-1.5173,-1.6267,-1.7408,-1.8603,-1.9654,-2.0374,-2.0907,-2.1633,-2.2185,-2.2353,-2.2618,-2.2979,-2.3416,-2.3416,-2.3493,-2.3667,-2.3493,-2.3416,-2.3416,-2.3232,-2.335,-2.3789,-2.3867,-2.4297,-2.5068,-2.5156,-2.5391,-2.5742,-2.5742,-2.5742,-2.5742,-2.5635,-2.5635,-2.5635,-2.5538,-2.5538,-2.5538,-2.5538,-2.5538,-2.5538,-2.5635,-2.5635,-2.5538,-2.5538,-2.5538,-2.5538,-2.5538,-2.5538,-2.5538,-2.5538,-2.5538,-2.5538,-2.5538,-2.5538,-2.5538,-2.5538,-2.5538,-2.5538,-2.5538,-2.5538,-2.5538,-2.5538,-2.5538,-2.5538,-2.5635,-2.5635,-2.5635,-2.5732,-2.5742,-2.5742,-2.5742,-2.5742,-2.5742,-2.5742,-2.5742,-2.5742,-2.5742,-2.5742,-2.5742,-2.5742,-2.5742,-2.5742,-2.5742,-2.5742,-2.5742,-2.5742,-2.5742,-2.5742,-2.5742,-2.5742,-2.5742,-2.5742,-2.5742,-2.5742,-2.5742,-2.5742,-2.5742,0.0164,-0.1385,-0.2958,-0.3683,-0.4581,-0.5494,0.0,0.0,-0.8438,-0.9513,-1.0596,-1.1451,-1.2188,-1.3407,-1.444,-1.5299,-1.6443,-1.7662,-1.8635,-1.9471,-2.0192,-2.0907,-2.1633,-2.2185,-2.2353,-2.2618,-2.2891,-2.3144,-2.3144,-2.3135,-2.3144,-2.3144,-2.3144,-2.3144,-2.3135,-2.335,-2.3789,-2.416,-2.459,-2.5068,-2.5469,-2.5684,-2.5742,-2.5742,-2.5742,-2.5645,-2.544,-2.5333,-2.5342,-2.5137,-2.5039,-2.5039,-2.5039,-2.5039,-2.503,-2.5235,-2.5235,-2.5039,-2.5039,-2.5039,-2.5039,-2.5039,-2.5039,-2.5039,-2.5039,-2.5039,-2.5039,-2.5039,-2.5039,-2.5039,-2.5039,-2.5039,-2.5039,-2.5039,-2.5039,-2.5039,-2.5039,-2.5039,-2.5039,-2.5333,-2.5333,-2.544,-2.5635,-2.5742,-2.5742,-2.5742,-2.5742,-2.5742,-2.5742,-2.5742,-2.5742,-2.5742,-2.5742,-2.5742,-2.5742,-2.5742,-2.5742,-2.5742,-2.5742,-2.5742,-2.5742,-2.5742,-2.5742,-2.5742,-2.5742,-2.5742,-2.5742,-2.5742,-2.5742,-2.5742,-2.5742,-2.5742,0.0083,-0.1326,-0.2522,-0.3464,-0.4318,-0.5255,-0.6244,-0.7118,-0.7969,-0.8877,-1.0006,-1.1027,-1.1869,-1.3003,-1.4123,-1.5074,-1.6303,-1.7419,-1.8265,-1.9288,-2.011,-2.0736,-2.1383,-2.183,-2.2185,-2.2362,-2.253,-2.2882,-2.2969,-2.2969,-2.3047,-2.3135,-2.3135,-2.3135,-2.3389,-2.3721,-2.415,-2.458,-2.5019,-2.5459,-2.5644,-2.5635,-2.544,-2.544,-2.5333,-2.5235,-2.5137,-2.5039,-2.5039,-2.4941,-2.4932,-2.4932,-2.4932,-2.4833,-2.4735,-2.4941,-2.503,-2.4932,-2.4932,-2.4932,-2.4932,-2.4932,-2.4932,-2.4932,-2.4932,-2.4932,-2.4932,-2.4932,-2.4932,-2.4932,-2.4932,-2.4932,-2.4932,-2.4932,-2.4932,-2.4932,-2.4932,-2.4932,-2.4932,-2.5039,-2.5039,-2.5137,-2.5235,-2.5235,-2.5235,-2.5235,-2.5538,-2.5742,-2.5742,-2.5742,-2.5742,-2.5742,-2.5742,-2.5742,-2.5742,-2.5742,-2.5742,-2.5742,-2.5742,-2.5742,-2.5742,-2.5742,-2.5742,-2.5742,-2.5742,-2.5742,-2.5742,-2.5742,-2.5742,-2.5742,-2.5742,-2.5742,0.025,-0.0928,-0.1893,-0.3097,-0.397,-0.4736,-0.5808,-0.6697,-0.7465,-0.8266,-0.9382,-1.0396,-1.1347,-1.2474,-1.3619,-1.4735,-1.5973,-1.7137,-1.7978,-1.9012,-1.9928,-2.0564,-2.1015,-2.1472,-2.183,-2.2008,-2.2274,-2.2618,-2.2715,-2.2794,-2.2882,-2.2872,-2.2872,-2.2872,-2.3376,-2.3803,-2.4229,-2.4665,-2.5102,-2.544,-2.544,-2.5333,-2.5235,-2.5235,-2.5039,-2.4932,-2.4833,-2.4833,-2.4833,-2.4735,-2.4735,-2.4735,-2.4735,-2.4637,-2.444,-2.4646,-2.4735,-2.4735,-2.4735,-2.4735,-2.4735,-2.4735,-2.4735,-2.4735,-2.4735,-2.4735,-2.4735,-2.4735,-2.4735,-2.4735,-2.4735,-2.4735,-2.4735,-2.4735,-2.4735,-2.4735,-2.4735,-2.4735,-2.4735,-2.4735,-2.4833,-2.4833,-2.4932,-2.4932,-2.4932,-2.4932,-2.5235,-2.544,-2.544,-2.544,-2.544,-2.544,-2.544,-2.5538,-2.5538,-2.5635,-2.5635,-2.5742,-2.5742,-2.5742,-2.5742,-2.5742,-2.5742,-2.5742,-2.5742,-2.5742,-2.5742,-2.5742,-2.5742,-2.5742,-2.5742,-2.5742,0.0,0.0,-0.1228,-0.229,-0.3142,-0.401,-0.4947,-0.5963,-0.697,-0.7882,-0.8683,-0.9636,-1.0777,-1.1838,-1.2974,-1.4235,-1.5398,-1.6614,-1.7948,-1.8727,-1.9463,-2.0201,-2.0736,-2.1096,-2.1392,-2.183,-2.2185,-2.2441,-2.2432,-2.2432,-2.2441,-2.2441,-2.2441,-2.2441,-2.283,-2.3246,-2.3765,-2.4108,-2.4534,-2.4932,-2.4932,-2.4932,-2.4932,-2.4932,-2.4932,-2.4932,-2.4637,-2.4529,-2.4529,-2.4341,-2.4251,-2.4251,-2.4251,-2.4251,-2.4251,-2.4251,-2.4251,-2.4251,-2.4251,-2.4251,-2.4251,-2.4251,-2.4251,-2.4251,-2.4251,-2.4251,-2.4251,-2.4251,-2.4251,-2.4251,-2.4251,-2.4251,-2.4251,-2.4251,-2.4251,-2.4251,-2.4251,-2.4251,-2.4251,-2.444,-2.4529,-2.4627,-2.4833,-2.4932,-2.4932,-2.4932,-2.4932,-2.4932,-2.4932,-2.4932,-2.4932,-2.4932,-2.4932,-2.5039,-2.5333,-2.5333,-2.544,-2.5635,-2.5742,-2.5742,-2.5742,-2.5742,-2.5742,-2.5742,-2.5742,-2.5742,-2.5742,-2.5742,-2.5742,-2.5742,-2.5742,-2.5742,0.0,0.0,-0.0627,-0.168,-0.2571,-0.3485,-0.4169,-0.504,-0.5881,-0.6698,-0.7568,-0.8604,-0.9729,-1.0798,-1.1886,-1.3164,-1.4523,-1.5886,-1.6904,-1.8118,-1.9196,-1.9928,-2.0645,-2.1096,-2.1392,-2.1651,-2.1919,-2.2176,-2.2185,-2.2264,-2.2344,-2.2441,-2.2441,-2.2441,-2.3104,-2.353,-2.3672,-2.4373,-2.4799,-2.4932,-2.4735,-2.4627,-2.4637,-2.4538,-2.4449,-2.4449,-2.4341,-2.4341,-2.435,-2.4251,-2.4152,-2.4152,-2.4152,-2.4152,-2.4152,-2.4152,-2.4152,-2.4152,-2.4152,-2.4152,-2.4152,-2.4152,-2.4152,-2.4152,-2.4152,-2.4152,-2.4152,-2.4152,-2.4152,-2.4152,-2.4152,-2.4152,-2.4152,-2.3954,-2.3954,-2.3854,-2.3755,-2.3655,-2.3646,-2.3746,-2.3746,-2.3845,-2.3845,-2.3945,-2.3945,-2.3945,-2.444,-2.4932,-2.4932,-2.4932,-2.4932,-2.4932,-2.4932,-2.4932,-2.5039,-2.503,-2.503,-2.5137,-2.5137,-2.5235,-2.544,-2.543,-2.5538,-2.5742,-2.5742,-2.5742,-2.5742,-2.5742,-2.5742,-2.5742,-2.5742,-2.5742,0.0,0.1301,0.0272,-0.0849,-0.1818,-0.2807,-0.3474,-0.423,-0.5041,-0.581,-0.6629,-0.7608,-0.8702,-0.9741,-1.089,-1.2137,-1.3537,-1.4962,-1.6274,-1.7576,-1.8684,-1.9546,-2.0283,-2.0916,-2.1203,-2.1472,-2.1651,-2.1919,-2.1919,-2.1998,-2.2176,-2.2176,-2.2176,-2.2176,-2.2971,-2.3402,-2.3402,-2.4225,-2.4637,-2.4637,-2.444,-2.444,-2.444,-2.4251,-2.4152,-2.4152,-2.4152,-2.4152,-2.4152,-2.4152,-2.4152,-2.4152,-2.4152,-2.4152,-2.4152,-2.4152,-2.4152,-2.4152,-2.4152,-2.4152,-2.4152,-2.4152,-2.4152,-2.4152,-2.4152,-2.4152,-2.4152,-2.4152,-2.4152,-2.4152,-2.4053,-2.4053,-2.3954,-2.3755,-2.3646,-2.3655,-2.3447,-2.3347,-2.3238,-2.3238,-2.3138,-2.3038,-2.3038,-2.3038,-2.3038,-2.3038,-2.3637,-2.4134,-2.4341,-2.4341,-2.4341,-2.4341,-2.4341,-2.444,-2.444,-2.4529,-2.4637,-2.4735,-2.4833,-2.4932,-2.5137,-2.5137,-2.5235,-2.543,-2.5538,-2.5538,-2.5538,-2.5635,-2.5742,-2.5742,-2.5742,-2.5742,0.3025,0.2172,0.1179,0.0094,-0.0846,-0.1778,-0.2818,-0.3663,-0.446,-0.5124,-0.5871,-0.6587,0.0,0.0,-0.9771,-1.1193,-1.2563,-1.4071,-1.593,-1.7024,-1.7978,-1.9055,-1.9828,-2.0464,-2.0907,-2.1203,-2.1482,-2.1651,-2.1741,-2.1741,-2.1741,-2.1741,-2.1741,-2.1741,-2.2418,-2.2838,-2.2857,-2.3749,-2.4152,-2.4152,-2.4152,-2.4152,-2.4152,-2.4152,-2.4152,-2.4152,-2.4152,-2.4152,-2.4152,-2.4152,-2.4152,-2.4152,-2.4152,-2.4152,-2.4152,-2.4152,-2.4152,-2.4152,-2.4152,-2.4152,-2.4152,-2.4152,-2.4152,-2.4152,-2.4152,-2.4152,-2.4152,-2.4152,-2.4152,-2.4152,-2.3854,-2.3755,-2.3746,-2.3447,-2.3356,-2.3347,-2.3347,-2.3038,-2.2828,-2.2828,-2.2627,-2.2426,-2.2426,-2.2426,-2.2426,-2.2426,-2.2426,-2.2627,-2.3247,-2.3347,-2.3347,-2.3347,-2.3347,-2.3447,-2.3628,-2.3926,-2.4134,-2.443,-2.4637,-2.4833,-2.4833,-2.4833,-2.4833,-2.4932,-2.5137,-2.5235,-2.5235,-2.5538,-2.5635,-2.5635,-2.5732,-2.5742,0.3427,0.2667,0.1934,0.093,-0.0188,-0.1139,-0.1629,-0.2523,-0.3369,-0.3915,-0.4577,-0.554,-0.6716,-0.7776,-0.8892,-1.0452,-1.1872,-1.3349,-1.5156,-1.6509,-1.7788,-1.9055,0.0,-2.0464,-2.0907,-2.1203,-2.1482,0.0,-2.1741,-2.1741,-2.1741,-2.1741,-2.1741,-2.1741,-2.2217,-2.2639,-2.2857,-2.3749,-2.4152,-2.4152,-2.4152,-2.4152,-2.4152,-2.4152,-2.4152,-2.4152,-2.4152,-2.4152,-2.4152,-2.4152,-2.4152,-2.4152,-2.4152,-2.4152,-2.4152,-2.4152,-2.4152,-2.4152,-2.4152,-2.4152,-2.4152,-2.4152,-2.4152,-2.4152,-2.4152,-2.4152,-2.4152,-2.3954,-2.3854,-2.3854,-2.3546,-2.3546,-2.3447,-2.3147,-2.2946,-2.2636,-2.2434,-2.2232,-2.203,-2.203,-2.1827,-2.1623,-2.1623,-2.142,-2.1326,-2.1326,-2.1326,-2.1623,-2.2636,-2.2736,-2.2736,-2.2736,-2.2736,-2.2828,-2.3129,-2.3129,-2.3329,-2.3646,-2.3746,-2.3945,-2.4332,-2.4332,-2.4529,-2.4932,-2.4941,-2.503,-2.503,-2.5235,-2.544,-2.544,-2.5635,-2.5742,0.3978,0.3203,0.2378,0.1569,0.0556,-0.0464,-0.0929,-0.1811,-0.2638,-0.3278,-0.401,-0.4882,-0.6009,-0.7053,-0.8265,-0.978,-1.1109,-1.2679,-1.4658,-1.5977,-1.7342,0.0,-1.9563,0.0,-2.0907,-2.1105,-2.1383,-2.1651,-2.1741,-2.1741,-2.1741,-2.1741,-2.1741,-2.1741,-2.2116,-2.2612,-2.3208,-2.3831,-2.4152,-2.4152,-2.4152,-2.4152,-2.4152,-2.4152,-2.4152,-2.4152,-2.4152,-2.4152,-2.4152,-2.4152,-2.4152,-2.4152,-2.4152,-2.4152,-2.4152,-2.4152,-2.4152,-2.4152,-2.4152,-2.4152,-2.4152,-2.4152,-2.4152,-2.4152,-2.4053,-2.4053,-2.3954,-2.3646,-2.3646,-2.3546,-2.3247,-2.3247,-2.3147,-2.2736,-2.2434,-2.2224,-2.1818,-2.1522,-2.1318,-2.1003,-2.0909,-2.0806,-2.0806,-2.0601,-2.0498,-2.0498,-2.0498,-2.0806,-2.1404,-2.1615,-2.1827,-2.1928,-2.192,-2.2123,-2.2325,-2.2526,-2.2627,-2.2837,-2.3038,-2.3338,-2.3529,-2.3737,-2.3935,-2.4242,-2.444,-2.4538,-2.4538,-2.4932,-2.5137,-2.5137,-2.5235,-2.5342,0.435,0.3532,0.27,0.211,0.127,0.0357,-0.0536,-0.1312,-0.2036,-0.3014,-0.3714,-0.4493,-0.5493,-0.6506,-0.77,-0.9167,0.0,-1.2102,-1.4248,-1.5417,-1.6766,-1.8493,-1.9271,-1.9936,-2.0907,-2.0997,-2.1177,-2.1651,-2.1741,-2.1741,-2.1741,-2.1741,-2.1741,-2.1741,-2.2116,-2.2694,-2.3455,-2.3868,-2.4097,-2.4152,-2.4152,-2.4152,-2.4152,-2.4152,-2.4152,-2.4152,-2.4152,-2.4152,-2.4152,-2.4152,-2.4152,-2.4152,-2.4152,-2.4152,-2.4152,-2.4152,-2.4152,-2.4152,-2.4152,-2.4152,-2.4152,-2.4152,-2.4152,-2.4053,-2.3854,-2.3755,-2.3646,-2.3447,-2.3347,-2.3247,-2.2946,-2.2846,-2.2745,-2.2131,-2.2021,-2.1827,-2.1326,-2.1019,-2.0609,-2.0189,-1.9983,-1.9983,-1.9975,-1.9872,-1.9872,-1.9872,-1.9872,-1.9872,-1.9872,-2.0395,-2.0917,-2.1121,-2.1121,-2.1224,-2.1522,-2.1725,-2.1928,-2.203,-2.2426,-2.2728,-2.2828,-2.3038,-2.3247,-2.3247,-2.3737,-2.3926,-2.3926,-2.443,-2.4735,-2.4833,-2.4833,-2.4833,0.4162,0.3393,0.2781,0.2253,0.1688,0.0962,0.0087,-0.1003,0.0,-0.2451,-0.312,-0.3976,-0.5076,-0.6124,-0.7246,-0.8693,-1.0163,-1.1764,-1.3436,-1.506,-1.6684,-1.8155,-1.9117,-1.9936,-2.0907,-2.0997,-2.1177,-2.1651,-2.1741,-2.1741,-2.1741,-2.1741,-2.1741,-2.1741,-2.2116,-2.2566,-2.2957,-2.3446,-2.3822,-2.4152,-2.4152,-2.4152,-2.4152,-2.4152,-2.4152,-2.4152,-2.4152,0.0,-2.4152,-2.4152,-2.4152,-2.4152,-2.4152,-2.4152,-2.4152,-2.4152,-2.4152,-2.4152,-2.3954,-2.3854,-2.3854,-2.3854,-2.3854,-2.3854,-2.3546,-2.3456,-2.3447,-2.3147,-2.2846,-2.2627,-2.2333,-2.2131,-2.1928,-2.1827,-2.142,-2.1121,-2.1027,-2.0601,-2.0189,-1.9783,-1.9576,-1.9368,-1.9034,-1.8833,-1.8736,-1.8736,-1.8736,-1.8736,-1.8736,-1.9561,-2.0292,-2.0292,-2.0285,-2.0395,-2.0719,-2.0719,-2.0925,-2.142,-2.1522,-2.1827,-2.2224,-2.2325,-2.2426,-2.2627,-2.2929,-2.3129,-2.3129,-2.3628,-2.4035,-2.4233,-2.444,-2.4735,0.4094,0.3314,0.2594,0.239,0.1578,0.0777,0.0083,0.0,0.0,-0.2464,-0.3119,-0.3916,-0.4906,-0.5884,-0.7054,-0.8415,-0.9823,-1.1376,-1.3277,-1.4767,-1.6374,-1.8053,-1.8905,-1.9718,-2.0889,-2.0997,-2.1177,-2.1651,-2.1741,-2.1741,-2.1741,-2.1741,-2.1741,-2.1741,-2.2116,-2.2419,-2.2621,-2.3235,-2.3639,-2.384,-2.4051,-2.4152,-2.4152,-2.4152,-2.4152,-2.4152,-2.4152,-2.4152,-2.4152,-2.4152,-2.4152,-2.4152,-2.4152,-2.4152,-2.3954,-2.3954,-2.3854,-2.3755,-2.3646,-2.3546,-2.3555,-2.3456,-2.3447,-2.3546,-2.3247,-2.3046,-2.2837,-2.2636,-2.2333,-2.2021,-2.1725,-2.1623,-2.142,-2.1121,-2.0712,-2.0197,-2.0101,-1.9791,-1.9368,-1.9049,-1.8952,-1.8743,-1.8624,-1.8527,-1.8422,-1.8422,-1.8422,-1.8422,-1.8422,-1.8833,-1.9361,-1.968,-1.9783,-1.9983,-2.03,-2.03,-2.0403,-2.0704,-2.0814,-2.1019,-2.1224,-2.142,-2.1623,-2.1818,-2.2123,-2.2325,-2.2526,-2.3029,-2.3329,-2.3529,-2.3836,-2.4044,0.3782,0.3095,0.2469,0.2341,0.1377,0.0254,-0.0159,-0.1324,0.0,-0.2608,-0.3243,-0.3983,-0.4798,-0.578,-0.6859,0.0,-0.9555,-1.1055,-1.3093,-1.4508,-1.5979,-1.7817,-1.8653,-1.9482,-2.0757,-2.0953,-2.1177,-2.1651,-2.1741,-2.1741,-2.1741,-2.1741,-2.1741,-2.1741,-2.2034,-2.2236,-2.2327,-2.296,-2.3373,-2.3547,-2.3868,-2.407,-2.4152,-2.4152,-2.4152,-2.4152,-2.4152,-2.4152,-2.4152,-2.4152,-2.4152,-2.4152,-2.4152,-2.3954,-2.3746,-2.3755,-2.3546,-2.3347,-2.3347,-2.3247,-2.3147,-2.2846,-2.2946,-2.3147,-2.2846,-2.2535,-2.2224,-2.203,-2.1725,-2.1428,-2.1224,-2.1121,-2.0909,-2.0411,-1.9894,-1.9472,-1.9168,-1.8966,-1.8653,-1.8429,-1.8318,-1.8325,-1.8213,-1.8213,-1.8213,-1.8213,-1.8213,-1.8213,-1.8213,-1.8318,-1.8534,-1.8959,-1.9264,-1.9465,-1.9768,-1.9768,-1.9768,-1.9879,-2.0101,-2.0308,-2.0411,-2.0609,-2.0814,-2.1011,-2.1318,-2.1522,-2.1827,-2.2325,-2.2627,-2.2728,-2.3038,-2.3147,0.2959,0.2538,0.2284,0.2025,0.0997,-0.0,-0.0554,0.0,-0.2315,-0.2525,-0.3101,-0.3818,-0.4717,-0.5607,0.0,0.0,0.0,-1.0971,-1.2784,-1.4323,-1.5738,-1.7209,-1.8344,-1.939,-2.0492,-2.0802,-2.1177,-2.1651,-2.1741,-2.1741,-2.1741,-2.1741,-2.1741,-2.1741,-2.1777,-2.1961,-2.2318,-2.2401,-2.2804,-2.3547,-2.3584,-2.3794,-2.4152,-2.4152,-2.4152,-2.4152,-2.4152,-2.4152,0.0,-2.4152,-2.4152,-2.4152,-2.3954,-2.3854,-2.3746,-2.3555,-2.3447,-2.3356,-2.3147,-2.2837,-2.2526,-2.2224,-2.2325,-2.2526,-2.2224,-2.203,-2.1725,-2.1428,-2.1224,-2.0917,-2.0617,-2.0403,-2.0086,-1.9583,-1.9383,-1.9168,-1.8639,-1.8422,-1.8325,-1.8122,-1.8016,-1.7911,-1.7687,-1.7687,-1.7687,-1.7687,-1.7687,-1.7687,-1.7687,-1.7905,-1.8016,-1.8122,-1.8325,-1.8527,-1.8527,-1.8527,-1.8743,-1.9376,-1.9383,-1.9576,-2.0086,-2.0189,-2.0189,-2.0181,-2.0506,-2.0719,-2.1019,-2.1326,-2.1725,-2.2123,-2.2232,-2.2526,0.2755,0.2439,0.1928,0.1406,0.0567,-0.0315,-0.1366,0.0,-0.2542,-0.3033,-0.3639,-0.4335,-0.5238,-0.601,-0.6889,0.0,0.0,0.0,-1.2227,-1.3863,-1.5383,-1.6798,-1.779,-1.8963,-2.0394,-2.058,-2.0944,-2.1624,-2.1741,-2.1741,-2.1741,-2.1741,-2.1741,-2.1741,-2.1741,-2.1814,-2.197,-2.2208,-2.2492,-2.2813,-2.3308,-2.3629,-2.3794,-2.4042,-2.4152,-2.4152,-2.4152,-2.4152,0.0,-2.4152,-2.4053,-2.3954,-2.3854,-2.3546,-2.3247,-2.2937,-2.2736,-2.2535,-2.2333,-2.2131,-2.192,-2.1725,-2.1623,-2.1522,-2.1623,-2.142,-2.1121,-2.0917,-2.0514,-2.0094,-1.9894,-1.9472,-1.9049,-1.8848,-1.8743,-1.8639,-1.8227,-1.8115,-1.8115,-1.7799,-1.7799,-1.7694,-1.7582,-1.7582,-1.7582,-1.7582,-1.7582,-1.7582,-1.7582,-1.7694,-1.7799,-1.7799,-1.8108,-1.8422,-1.8422,-1.8422,-1.8527,-1.8743,-1.8743,-1.884,-1.9049,-1.9264,-1.948,-1.9576,-1.9894,-2.0197,-2.0395,-2.0814,-2.1121,-2.1428,-2.1725,-2.192,0.2019,0.1705,0.1128,0.0639,-0.0157,-0.1065,0.0,0.0,-0.2856,-0.3453,-0.4022,-0.4702,-0.5596,-0.6316,-0.7152,0.0,0.0,-1.0875,-1.2184,-1.3684,-1.521,-1.6524,-1.7466,-1.8591,-2.0199,-2.0649,-2.1076,-2.1624,-2.1741,-2.1741,-2.1741,-2.1741,-2.1741,-2.1741,-2.1741,-2.1741,-2.1741,-2.2016,-2.2208,-2.2327,-2.2905,-2.3244,-2.3373,-2.3666,-2.3804,-2.3804,-2.3923,-2.3978,0.0,-2.3998,-2.3954,-2.3646,-2.3546,-2.3247,-2.2846,-2.2535,-2.2123,-2.1827,-2.1623,-2.1522,-2.1326,-2.1011,-2.0814,-2.0506,-2.0601,-2.0601,-2.0514,-2.0205,-1.9783,-1.9264,-1.9056,-1.8743,-1.8422,-1.8325,-1.8325,-1.822,-1.7905,-1.7911,-1.7799,-1.7687,-1.7582,-1.7582,-1.7582,-1.7582,-1.7582,-1.7582,-1.7582,-1.7582,-1.7582,-1.7582,-1.7582,-1.7582,-1.7898,-1.8213,-1.8213,-1.8213,-1.8213,-1.8325,-1.8325,-1.8318,-1.8422,-1.8757,-1.8974,-1.9175,-1.948,-1.968,-1.9983,-2.0403,-2.0617,-2.0822,-2.1121,-2.142,0.0527,0.0074,-0.0294,-0.0301,-0.1264,-0.232,0.0,0.0,-0.3173,-0.3673,-0.4198,-0.491,-0.5843,-0.6478,-0.7414,-0.8942,-1.0009,0.0,-1.2663,-1.3957,-1.5194,-1.634,-1.7409,-1.8482,-1.98,-2.0992,-2.1731,-2.1741,-2.1741,-2.1741,-2.1741,-2.1741,-2.1741,-2.1741,-2.1741,-2.1741,-2.1741,-2.1741,-2.1942,-2.2327,-2.2337,-2.2557,-2.2866,-2.2875,-2.2875,-2.2893,-2.3373,-2.3353,0.0,-2.3583,-2.3655,-2.3347,-2.3147,-2.2837,-2.2426,-2.2224,-2.1725,-2.1326,-2.1326,-2.0917,-2.0514,-2.0189,-1.9879,-1.9569,-1.9034,-1.925,-1.968,-1.9376,-1.8848,-1.8422,-1.8422,-1.8422,-1.8318,-1.8122,-1.8016,-1.7911,-1.7687,-1.7582,-1.7582,-1.7582,-1.7582,-1.7582,-1.7582,-1.7582,-1.7582,-1.7582,-1.7582,-1.7582,-1.7582,-1.7582,-1.7582,-1.7582,-1.7582,-1.7582,-1.7582,-1.7582,-1.7694,-1.8016,-1.8016,-1.8122,-1.8422,-1.8757,-1.8869,-1.8869,-1.9175,-1.948,-1.968,-1.968,-1.999,-2.0522,-2.0522,-2.0822,-0.0439,-0.0733,-0.1022,-0.184,-0.2605,-0.3172,-0.3285,0.0,-0.3998,-0.4496,-0.5034,-0.568,-0.6584,-0.731,-0.8089,-0.9227,-1.0361,0.0,0.0,-1.3719,-1.5079,-1.6134,-1.7827,-1.9252,-2.0072,-2.0825,-2.1429,-2.1713,-2.1741,-2.1741,-2.1741,-2.1741,-2.1741,-2.1741,-2.1741,-2.1741,-2.1741,-2.1741,-2.1796,-2.1924,-2.2199,-2.2392,-2.2538,-2.2729,-2.2857,-2.2866,-2.289,-2.284,-2.2754,-2.2688,-2.254,-2.2259,-2.2065,-2.1936,-2.1769,-2.1162,-2.1014,-2.0917,-2.0403,-2.0094,-1.9887,-1.9354,-1.9138,-1.9042,-1.8624,-1.8833,-1.9042,-1.8541,-1.8227,-1.8115,-1.7898,-1.7898,-1.7793,-1.7799,-1.7694,-1.7687,-1.7582,-1.7582,-1.7582,-1.7582,-1.7582,-1.7582,-1.7582,-1.7582,-1.7582,-1.7582,-1.7582,-1.7582,-1.7582,-1.7582,-1.7582,-1.7582,-1.7582,-1.7582,-1.7582,-1.7582,-1.7687,-1.7694,-1.7694,-1.7793,-1.7898,-1.8325,-1.8534,-1.8534,-1.9063,-1.9376,-1.948,-1.9576,-1.9887,-2.0197,-2.0411,-2.0617,0.0,-0.1767,-0.2126,-0.3002,-0.3557,0.0,0.0,0.0,0.0,0.0,0.0,-0.6392,-0.74,-0.8021,-0.8789,-0.9813,-1.091,-1.1847,-1.2586,-1.3927,-1.5273,-1.6451,-1.8318,-1.9585,-2.0156,-2.0716,-2.1282,-2.1704,-2.1741,-2.1741,-2.1741,-2.1741,-2.1741,-2.1741,-2.1741,-2.1741,-2.1741,-2.1741,-2.1741,-2.1741,-2.1988,-2.2098,-2.2107,-2.229,-2.2317,-2.2326,-2.2276,-2.2151,0.0,-2.1925,-2.1796,-2.1509,-2.123,-2.0987,-2.0892,-2.0194,-2.0015,-2.0005,-1.939,-1.9162,-1.8952,-1.852,-1.8199,-1.7989,-1.7786,-1.8101,-1.8422,-1.801,-1.7806,-1.7799,-1.7687,-1.7582,-1.7582,-1.7582,-1.7582,-1.7582,-1.7582,-1.7582,-1.7582,-1.7582,-1.7582,-1.7582,-1.7582,-1.7582,-1.7582,-1.7582,-1.7582,-1.7582,-1.7582,-1.7582,-1.7582,-1.7582,-1.7582,-1.7582,-1.7582,-1.7582,-1.7582,-1.7582,-1.7582,-1.7582,-1.7582,-1.8108,-1.8422,-1.8422,-1.8952,-1.9279,-1.9279,-1.9583,-1.9783,-1.9983,-2.0197,-2.0308,0.0,0.0,0.0,0.0,0.0,0.0,0.0,0.0,0.0,0.0,0.0,0.0,-0.8224,-0.881,-0.953,-1.0705,-1.1708,-1.2593,-1.3325,-1.453,-1.5912,-1.7381,-1.8754,-1.9714,-2.0241,-2.0775,-2.1255,-2.1704,-2.1741,-2.1741,-2.1741,-2.1741,-2.1741,-2.1741,-2.1741,-2.1741,-2.1741,-2.1741,-2.1741,-2.1741,-2.1741,-2.1731,-2.1651,-2.1482,-2.1392,-2.141,-2.1496,-2.1371,-2.1128,-2.1294,-2.1258,-2.0866,-2.0369,-1.9998,-1.9731,-1.9244,-1.8964,-1.8658,-1.8361,-1.8149,-1.7884,-1.7575,-1.716,-1.673,-1.673,-1.7272,-1.7911,-1.7589,-1.7582,-1.7582,-1.7582,-1.7582,-1.7582,-1.7582,-1.7582,-1.7582,-1.7582,-1.7582,-1.7582,-1.7582,-1.7582,-1.7582,-1.7582,-1.7582,-1.7582,-1.7582,-1.7582,-1.7582,-1.7582,-1.7582,-1.7582,-1.7582,-1.7582,-1.7582,-1.7582,-1.7582,-1.7582,-1.7582,-1.7582,-1.7582,-1.7582,-1.8108,-1.8422,-1.8422,-1.8952,-1.9279,-1.9279,-1.9576,-1.968,-1.968,-1.9983,-2.0078,0.0,0.0,0.0,0.0,-0.5368,-0.566,0.0,0.0,0.0,0.0,0.0,0.0,0.0,-0.9905,-1.0558,-1.1432,-1.2347,-1.3184,-1.3933,-1.5598,-1.7171,-1.8362,-1.884,-1.957,-2.0522,-2.0688,-2.0961,-2.1686,-2.1741,-2.1741,-2.1741,-2.1741,-2.1741,-2.1741,-2.1741,-2.1741,-2.1741,-2.1741,-2.1741,-2.1741,-2.1741,-2.1651,-2.1482,-2.1401,-2.1293,-2.1105,-2.075,-2.0611,-2.0529,-2.0172,-1.9928,-1.9625,-1.926,-1.9044,-1.8801,-1.8312,-1.804,-1.7853,-1.7578,-1.7291,-1.7074,-1.6976,-1.6836,-1.673,-1.673,-1.6842,-1.7054,-1.7272,-1.7279,-1.7384,-1.7589,-1.7582,-1.7582,-1.7582,-1.7582,-1.7582,-1.7582,-1.7582,-1.7582,-1.7582,-1.7582,-1.7582,-1.7582,-1.7582,-1.7582,-1.7582,-1.7582,-1.7582,-1.7582,-1.7582,-1.7582,-1.7582,-1.7582,-1.7582,-1.7582,-1.7582,-1.7582,-1.7582,-1.7582,-1.7582,-1.7582,-1.8108,-1.8422,-1.8422,-1.8952,-1.9279,-1.9279,-1.9376,-1.9376,-1.9376,-1.968,-1.9776,0.0,-0.6506,-0.5935,-0.6383,-0.676,-0.7102,-0.7421,0.0,0.0,0.0,0.0,0.0,0.0,-1.0946,-1.1646,-1.2508,-1.3292,-1.4221,-1.542,-1.6856,-1.8031,-1.8831,-1.9229,-1.9709,-2.0585,-2.0652,-2.0863,-2.1498,-2.163,-2.1741,-2.1741,-2.1741,-2.1741,-2.1741,-2.1741,-2.1741,-2.1741,-2.1741,-2.1741,-2.1741,-2.1651,-2.1482,-2.1392,-2.1212,-2.0925,-2.0645,-2.0292,-2.0019,-1.9745,-1.9387,-1.9012,-1.8635,-1.8265,-1.8014,-1.7801,-1.712,-1.6933,-1.6929,-1.6593,-1.6412,-1.6348,-1.6181,-1.6212,-1.6311,-1.6311,-1.6311,-1.6418,-1.6849,-1.7067,-1.7279,-1.7378,-1.7483,-1.7582,-1.7582,-1.7582,-1.7582,-1.7582,-1.7582,-1.7582,-1.7582,-1.7582,-1.7582,-1.7582,-1.7582,-1.7582,-1.7582,-1.7582,-1.7582,-1.7582,-1.7582,-1.7582,-1.7582,-1.7582,-1.7582,-1.7582,-1.7582,-1.7582,-1.7582,-1.7582,-1.7582,-1.7582,-1.8108,-1.8527,-1.8848,-1.9168,-1.9279,-1.9279,-1.9279,-1.9279,-1.9279,-1.948,-1.948,-0.8343,-0.8072,-0.7634,-0.7871,-0.8186,-0.8555,-0.893,0.0,0.0,0.0,0.0,0.0,0.0,-1.2099,0.0,-1.366,-1.4509,-1.5601,-1.7341,-1.81,-1.8732,-1.9288,-1.9733,-2.0191,-2.0619,-2.0853,-2.1015,-2.1358,-2.1599,-2.1741,-2.1741,-2.1741,-2.1741,-2.1741,-2.1741,-2.1651,-2.1651,-2.1651,-2.1651,-2.1651,-2.1482,-2.1392,-2.1302,-2.0835,-2.0473,-2.0201,-1.9837,0.0,-1.9096,-1.8735,-1.8365,-1.79,-1.7426,-1.7059,-1.669,-1.6021,-1.589,-1.6018,-1.5582,-1.5532,-1.5756,-1.5542,-1.5614,-1.5831,-1.5831,-1.5855,-1.5992,-1.6411,-1.6849,-1.7073,-1.7179,-1.7384,-1.7589,-1.7582,-1.7582,-1.7582,-1.7582,-1.7582,-1.7582,-1.7582,-1.7582,-1.7582,-1.7582,-1.7582,-1.7582,-1.7582,-1.7582,-1.7582,-1.7582,-1.7582,-1.7582,-1.7582,-1.7582,-1.7582,-1.7582,-1.7582,-1.7582,-1.7582,-1.7582,-1.7687,-1.7687,-1.8213,-1.8743,-1.9272,-1.9279,-1.9279,-1.9279,-1.9279,-1.9279,-1.9279,-1.9279,-1.9279,-0.9724,-1.0066,-1.0065,-0.9551,-0.9602,-0.9899,-1.0201,-1.0383,0.0,0.0,0.0,0.0,0.0,-1.3347,-1.4063,-1.4631,-1.5781,-1.709,-1.8543,-1.901,-1.9506,-2.0515,-2.0518,-2.0664,-2.1111,-2.1284,-2.1371,-2.1358,-2.1776,-2.1919,-2.1731,-2.1741,-2.1741,-2.1741,-2.1741,-2.1651,-2.1482,-2.1651,-2.1651,-2.1482,-2.1392,-2.1212,-2.0835,-2.0473,-2.0201,-1.9928,0.0,-1.892,-1.8827,-1.8187,-1.7714,-1.7419,-1.6864,-1.6393,-1.5927,-1.5629,-1.528,-1.498,-1.4832,-1.5014,-1.5167,-1.5167,-1.5348,-1.5559,-1.5559,-1.5716,-1.5891,-1.5992,-1.6211,-1.6537,-1.7067,-1.7279,-1.7279,-1.7589,-1.7582,-1.7582,-1.7582,-1.7582,-1.7582,-1.7582,-1.7582,-1.7582,-1.7582,-1.7582,-1.7582,-1.7582,-1.7582,-1.7582,-1.7582,-1.7582,-1.7582,-1.7582,-1.7582,-1.7582,-1.7582,-1.7582,-1.7582,-1.7582,-1.7582,-1.7793,-1.8213,-1.8646,-1.8966,-1.9272,-1.9279,-1.9279,-1.9279,-1.9279,-1.9279,-1.9279,-1.9279,-1.9279,-1.1036,-1.1527,-1.1785,-1.184,-1.1548,-1.1372,-1.1783,-1.2027,0.0,0.0,0.0,0.0,0.0,0.0,-1.5399,-1.6364,-1.7527,-1.8655,-1.9645,-2.0068,-2.0619,-2.1334,-2.1339,-2.1275,-2.133,-2.143,-2.1438,-2.131,-2.1579,-2.1674,-2.1586,-2.1612,-2.1741,-2.1741,-2.1741,-2.1562,-2.1392,-2.1482,-2.1383,-2.1195,-2.1114,-2.0843,-2.0473,-2.0201,-1.9837,-1.9288,0.0,-1.845,-1.7986,-1.7613,-1.7052,-1.6487,-1.6204,-1.5832,-1.5363,-1.5166,-1.4777,-1.4514,-1.4449,-1.4666,-1.4896,-1.4896,-1.5077,-1.5288,-1.5288,-1.5469,-1.568,-1.568,-1.5995,-1.643,-1.6849,-1.7067,-1.7279,-1.7582,-1.7582,-1.7582,-1.7582,-1.7582,-1.7582,-1.7582,-1.7582,-1.7582,-1.7582,-1.7582,-1.7582,-1.7582,-1.7582,-1.7582,-1.7582,-1.7582,-1.7582,-1.7582,-1.7582,-1.7582,-1.7582,-1.7582,-1.7687,-1.7786,-1.7799,-1.8122,-1.8646,-1.8869,-1.9078,-1.9272,-1.9279,-1.9279,-1.9279,-1.9279,-1.9279,-1.9279,-1.9279,-1.9279,-1.2292,-1.2721,-1.3072,-1.3915,0.0,-1.2858,-1.3361,-1.3631,0.0,0.0,0.0,0.0,0.0,-1.6166,-1.7006,-1.8287,-1.9204,-1.9993,-2.0707,-2.1188,-2.1597,-2.2048,-2.2025,-2.1949,-2.1731,-2.1676,-2.162,-2.1311,-2.1425,-2.1418,-2.1237,-2.1461,-2.1594,-2.1594,-2.1596,-2.1562,-2.1293,-2.1293,-2.1114,-2.0907,-2.0736,-2.0473,-2.0201,-1.9837,-1.9288,-1.8827,-1.855,-1.7986,-1.7232,-1.7044,-1.648,-1.5737,-1.5642,-1.5261,-1.4885,-1.4688,-1.4496,-1.4298,-1.4298,-1.4437,-1.4618,-1.4618,-1.4799,-1.5016,-1.5016,-1.5197,-1.5409,-1.5409,-1.5658,-1.6163,-1.6493,-1.6849,-1.7166,-1.7483,-1.7582,-1.7582,-1.7582,-1.7582,-1.7582,-1.7582,-1.7582,-1.7582,-1.7582,-1.7582,-1.7582,-1.7582,-1.7582,-1.7582,-1.7582,-1.7582,-1.7582,-1.7582,-1.7582,-1.7582,-1.7582,-1.7582,-1.7793,-1.8094,-1.8108,-1.8338,-1.8876,-1.8974,-1.9071,-1.9279,-1.9279,-1.9279,-1.9279,-1.9279,-1.9279,-1.9279,-1.9279,-1.9279,-1.3306,-1.3584,-1.3891,-1.5023,-1.4688,0.0,-1.4805,-1.509,0.0,-1.6379,0.0,0.0,0.0,-1.7978,-1.8901,-2.0052,-2.0379,-2.0939,-2.2012,-2.2176,-2.2382,-2.2872,-2.2777,-2.2553,-2.2327,-2.2355,-2.2086,-2.1541,-2.165,-2.1489,-2.0885,-2.12,-2.1346,-2.1154,-2.1362,-2.1293,-2.0997,-2.0826,-2.0744,-2.0744,-2.0473,-2.0201,-1.9928,-1.9196,-1.8827,-1.8735,-1.7792,-1.7326,-1.7232,-1.6298,-1.5825,-1.573,-1.507,-1.4592,-1.4394,-1.4298,-1.4298,-1.4298,-1.4298,-1.431,-1.4328,-1.4328,-1.4515,-1.4745,-1.4745,-1.4932,-1.5137,-1.5137,-1.5149,-1.5378,-1.6088,-1.653,-1.6842,-1.7173,-1.7378,-1.7582,-1.7582,-1.7582,-1.7582,-1.7582,-1.7582,-1.7582,-1.7582,-1.7582,-1.7582,-1.7582,-1.7582,-1.7582,-1.7582,-1.7582,-1.7582,-1.7582,-1.7582,-1.7582,-1.7582,-1.7582,-1.7793,-1.8318,-1.8422,-1.8534,-1.8869,-1.9175,-1.9279,-1.9279,-1.9279,-1.9279,-1.9279,-1.9279,-1.9279,-1.9279,-1.9279,-1.9279,-1.4106,-1.4493,-1.4864,-1.5879,-1.6308,0.0,0.0,-1.6556,-1.7042,-1.7451,-1.7739,0.0,0.0,-1.949,-2.0336,-2.0773,-2.1537,-2.2206,-2.2584,-2.2895,-2.3161,-2.335,-2.3298,-2.315,-2.2777,-2.2562,-2.2133,-2.1524,-2.1461,-2.1221,-2.0721,-2.0941,-2.0911,-2.058,-2.0893,-2.0837,-2.0474,-2.0442,-2.0292,-2.0011,-1.992,-1.9646,-1.9196,-1.8827,-1.8357,-1.7893,-1.7512,-1.6951,-1.6298,-1.592,-1.5547,-1.507,-1.4592,-1.4394,-1.4298,-1.4298,-1.4298,-1.4298,-1.4298,-1.4298,-1.4298,-1.4298,-1.437,-1.4455,-1.4455,-1.4648,-1.4865,-1.4865,-1.498,-1.5293,-1.5873,-1.6273,-1.6625,-1.7134,-1.7378,-1.7582,-1.7582,-1.7582,-1.7582,-1.7582,-1.7582,-1.7582,-1.7582,-1.7582,-1.7582,-1.7582,-1.7582,-1.7582,-1.7582,-1.7582,-1.7582,-1.7582,-1.7582,-1.7582,-1.7582,-1.7582,-1.7793,-1.8422,-1.8422,-1.8639,-1.9175,-1.9279,-1.9279,-1.9279,-1.9279,-1.9279,-1.9279,-1.9279,-1.9279,-1.9279,-1.9279,-1.9279,-1.4882,-1.5226,-1.569,0.0,0.0,0.0,-1.7952,-1.8169,-1.855,-1.8964,-1.9462,-1.9924,-2.0373,0.0,-2.1789,-2.1947,-2.2684,-2.3336,-2.3495,-2.3754,-2.397,-2.3897,-2.3824,-2.3604,-2.3224,-2.2777,-2.2252,-2.1655,-2.133,-2.0946,-2.0377,-2.0602,-2.0486,-2.0003,-2.0305,-2.0252,-1.9826,-1.9834,-1.9661,-1.9199,-1.9031,-1.8812,-1.855,-1.8265,-1.78,-1.7246,-1.7052,-1.6487,-1.5825,-1.5642,-1.5166,-1.4592,-1.4394,-1.4298,-1.4298,-1.4298,-1.4298,-1.4298,-1.4298,-1.4298,-1.4298,-1.4298,-1.4298,-1.4298,-1.4298,-1.4431,-1.4582,-1.4582,-1.4714,-1.5014,-1.5491,-1.5984,-1.6471,-1.6885,-1.7312,-1.7582,-1.7582,-1.7582,-1.7582,-1.7582,-1.7582,-1.7582,-1.7582,-1.7582,-1.7582,-1.7582,-1.7582,-1.7582,-1.7582,-1.7582,-1.7582,-1.7582,-1.7582,-1.7582,-1.7582,-1.7687,-1.7898,-1.8422,-1.8534,-1.875,-1.9279,-1.9279,-1.9279,-1.9279,-1.9279,-1.9279,-1.9279,-1.9279,-1.9279,-1.9279,-1.9279,-1.9279,-1.5531,-1.5793,-1.6258,0.0,0.0,0.0,-2.0251,-2.0031,-2.002,-2.1184,-2.2093,-2.2695,-2.2695,-2.2865,0.0,-2.3711,-2.3921,-2.4167,-2.4719,-2.479,-2.4718,-2.449,-2.4345,-2.4043,-2.3666,-2.3075,-2.2478,-2.1883,-2.1436,-2.0809,-1.9942,-2.0339,-2.0323,-1.957,-1.9724,-1.9598,-1.917,-1.91,-1.8742,-1.8295,-1.7896,-1.7878,-1.8087,-1.752,-1.7153,-1.6979,-1.6414,-1.6028,-1.5737,-1.5267,-1.479,-1.4298,-1.4298,-1.4298,-1.4298,-1.4298,-1.4298,-1.4298,-1.4298,-1.4298,-1.4298,-1.4298,-1.4298,-1.4298,-1.4298,-1.4298,-1.4298,-1.4298,-1.4298,-1.4455,-1.4918,-1.5689,-1.631,-1.6639,-1.7166,-1.7582,-1.7582,-1.7582,-1.7582,-1.7582,-1.7582,-1.7582,-1.7582,-1.7582,-1.7582,-1.7582,-1.7582,-1.7582,-1.7582,-1.7582,-1.7582,-1.7582,-1.7582,-1.7582,-1.7582,-1.7806,-1.8115,-1.8422,-1.8757,-1.8974,-1.9279,-1.9279,-1.9279,-1.9279,-1.9279,-1.9279,-1.9279,-1.9279,-1.9279,-1.9279,-1.9279,-1.9279,-1.607,-1.6911,0.0,-1.8723,0.0,0.0,0.0,-2.1572,0.0,0.0,-2.3273,-2.3447,-2.3447,-2.3847,-2.4101,-2.4174,-2.4483,-2.472,-2.4766,-2.479,-2.4718,-2.449,-2.4429,-2.42,-2.3666,-2.315,-2.2628,-2.1883,-2.1436,-2.0809,-1.9942,-1.9916,-1.9583,-1.903,-1.8985,-1.8852,-1.8608,-1.8275,-1.793,-1.7482,-1.6959,-1.7069,-1.752,-1.7052,-1.6683,-1.6414,-1.6021,-1.5648,-1.5267,-1.4783,-1.4394,-1.4298,-1.4298,-1.4298,-1.4298,-1.4298,-1.4298,-1.4298,-1.4298,-1.4298,-1.4298,-1.4298,-1.4298,-1.4298,-1.4298,-1.4298,-1.4298,-1.4496,-1.4592,-1.4706,-1.5262,-1.5752,-1.6127,-1.6542,-1.7015,-1.7335,-1.7542,-1.7582,-1.7582,-1.7582,-1.7582,-1.7582,-1.7582,-1.7582,-1.7582,-1.7582,-1.7582,-1.7582,-1.7582,-1.7582,-1.7582,-1.7582,-1.7582,-1.7582,-1.7582,-1.7806,-1.8115,-1.8422,-1.8757,-1.8974,-1.9279,-1.9279,-1.9279,-1.9279,-1.9279,-1.9279,-1.9279,-1.9279,-1.9279,-1.9279,-1.9279,-1.9279,-1.6523,-1.7554,0.0,-1.9498,-2.0653,-2.1933,-2.3213,0.0,0.0,0.0,-2.4542,-2.4633,-2.4756,-2.4981,-2.5075,-2.4936,-2.5107,-2.5241,-2.5123,-2.5064,-2.4921,-2.4646,-2.4646,-2.4345,-2.3677,-2.3224,-2.2703,-2.1883,-2.1349,-2.0722,-1.9942,-1.9627,-1.924,-1.87,-1.8507,-1.8201,-1.7796,-1.7475,-1.7125,-1.6613,-1.6132,-1.6041,-1.6409,-1.6158,-1.6007,-1.5933,-1.5547,-1.5166,-1.4885,-1.4496,-1.4298,-1.4298,-1.4298,-1.4298,-1.4298,-1.4298,-1.4298,-1.4298,-1.4298,-1.4298,-1.4298,-1.4394,-1.449,-1.4496,-1.4592,-1.4592,-1.4688,-1.479,-1.4885,-1.4981,-1.5356,-1.5575,-1.5947,-1.6531,-1.6965,-1.7228,-1.7522,-1.7582,-1.7582,-1.7582,-1.7582,-1.7582,-1.7582,-1.7582,-1.7582,-1.7582,-1.7582,-1.7582,-1.7582,-1.7582,-1.7582,-1.7582,-1.7582,-1.7582,-1.7582,-1.7905,-1.822,-1.8422,-1.8855,-1.9175,-1.9272,-1.9279,-1.9279,-1.9279,-1.9279,-1.9279,-1.9279,-1.9279,-1.9279,-1.9279,-1.9279,-1.9279,-1.6891,-1.7894,0.0,-2.0322,-2.1559,0.0,-2.5206,-2.5351,-2.5185,-2.5498,0.0,-2.6037,-2.6233,-2.6107,-2.598,-2.591,-2.5758,-2.5606,-2.5606,-2.5394,-2.5182,-2.4861,-2.479,-2.4418,-2.3677,-2.3224,-2.2628,-2.1807,-2.1262,-2.0634,-1.9942,-1.946,-1.9073,-1.862,-1.8201,-1.7627,-1.7049,-1.6698,-1.6259,-1.5755,-1.5184,-1.4897,-1.493,-1.5133,-1.5325,-1.5311,-1.4841,-1.4669,-1.4688,-1.4394,-1.4298,-1.4298,-1.4298,-1.4298,-1.4298,-1.4298,-1.4298,-1.4298,-1.4298,-1.4298,-1.4394,-1.4592,-1.4694,-1.479,-1.4987,-1.5083,-1.5083,-1.5083,-1.5178,-1.5172,-1.5445,-1.554,-1.5678,-1.6434,-1.6894,-1.7188,-1.7482,-1.7562,-1.7582,-1.7582,-1.7582,-1.7582,-1.7582,-1.7582,-1.7582,-1.7582,-1.7582,-1.7582,-1.7582,-1.7582,-1.7582,-1.7582,-1.7582,-1.7582,-1.7582,-1.8108,-1.8422,-1.8422,-1.8959,-1.9279,-1.9279,-1.9279,-1.9279,-1.9279,-1.9279,-1.9279,-1.9279,-1.9279,-1.9279,-1.9279,-1.9279,-1.9279,0.0,-1.8689,0.0,0.0,-2.2445,-2.4412,-2.558,-2.6097,-2.6413,-2.6629,-2.6718,-2.6739,-2.6577,-2.6577,-2.6452,-2.6201,-2.598,-2.5758,-2.5606,-2.5324,-2.5052,-2.4861,-2.4502,-2.4043,-2.3457,-2.3001,-2.2402,-2.1655,-2.1185,-2.0557,-1.9715,-1.932,-1.8754,-1.8201,-1.7627,-1.7049,-1.6558,-1.5967,-1.5329,-1.4747,-1.4406,-1.4216,-1.4083,-1.4372,-1.4571,-1.4559,-1.4472,-1.4401,-1.4394,-1.4298,-1.4298,-1.4298,-1.4298,-1.4298,-1.4298,-1.4298,-1.4298,-1.4298,-1.4298,-1.44,-1.4592,-1.4688,-1.4885,-1.4987,-1.5083,-1.5083,-1.5178,-1.5356,-1.5452,-1.5445,-1.5635,-1.573,-1.5823,-1.6279,-1.6587,-1.6881,-1.7174,-1.7422,-1.7582,-1.7582,-1.7582,-1.7582,-1.7582,-1.7582,-1.7582,-1.7582,-1.7582,-1.7582,-1.7582,-1.7582,-1.7582,-1.7582,-1.7582,-1.7694,-1.7911,-1.822,-1.8534,-1.8757,-1.9071,-1.9279,-1.9279,-1.9279,-1.9279,-1.9279,-1.9279,-1.9279,-1.9279,-1.9279,-1.9279,-1.9279,-1.9279,-1.9279,0.0,0.0,0.0,-2.2285,0.0,-2.4968,-2.6038,-2.6511,-2.6794,-2.6943,-2.6943,-2.6875,-2.6875,-2.6726,-2.6521,-2.627,-2.605,-2.584,-2.5606,-2.5324,-2.5052,-2.479,-2.4418,-2.397,-2.3372,-2.2852,-2.2252,-2.1436,-2.0876,-2.0245,-1.9469,-1.8993,-1.8514,-1.804,-1.7302,-1.673,-1.6237,-1.5575,-1.4908,-1.4243,-1.3906,-1.356,-1.3275,-1.3862,-1.4047,-1.3915,-1.4043,-1.4178,-1.4313,-1.4441,-1.449,-1.449,-1.449,-1.4394,-1.4298,-1.4298,-1.4298,-1.4298,-1.4298,-1.4496,-1.4688,-1.4885,-1.5077,-1.5267,-1.5363,-1.5458,-1.5452,-1.5635,-1.5635,-1.5635,-1.5737,-1.5832,-1.5872,-1.6025,-1.6393,-1.6787,-1.7088,-1.7375,-1.7582,-1.7582,-1.7582,-1.7582,-1.7582,-1.7582,-1.7582,-1.7582,-1.7582,-1.7582,-1.7582,-1.7582,-1.7582,-1.7582,-1.7694,-1.7806,-1.8016,-1.8436,-1.8757,-1.8869,-1.9175,-1.9279,-1.9279,-1.9279,-1.9279,-1.9279,-1.9279,-1.9279,-1.9279,-1.9279,-1.9279,-1.9279,-1.9279,-1.9279,0.0,0.0,-2.1467,-2.3963,-2.4703,0.0,-2.6405,-2.6714,-2.6726,-2.6943,-2.6863,-2.6794,-2.6943,-2.6658,-2.6396,-2.6201,-2.598,-2.5758,-2.5606,-2.5265,-2.4981,-2.4718,-2.4345,-2.3824,-2.3224,-2.2628,-2.1959,-2.1205,-2.0654,-2.0029,-1.9311,-1.8674,-1.8193,-1.787,-1.7057,-1.6409,-1.5922,-1.5257,-1.4587,-1.4004,-1.3483,-1.3052,-1.2723,-1.3352,-1.3585,-1.3459,-1.367,-1.3982,-1.4235,-1.4603,-1.4715,-1.4721,-1.4771,-1.4592,-1.4394,-1.4394,-1.4298,-1.4298,-1.4394,-1.4496,-1.479,-1.5077,-1.5356,-1.554,-1.5737,-1.5832,-1.5832,-1.5832,-1.5832,-1.5832,-1.5832,-1.5832,-1.5832,-1.5832,-1.6239,-1.6714,-1.7007,-1.7301,-1.7522,-1.7569,-1.7582,-1.7582,-1.7582,-1.7582,-1.7582,-1.7582,-1.7582,-1.7582,-1.7582,-1.7582,-1.7582,-1.7582,-1.7799,-1.8016,-1.8122,-1.8548,-1.8869,-1.8974,-1.9175,-1.9279,-1.9279,-1.9279,-1.9279,-1.9279,-1.9279,-1.9279,-1.9279,-1.9279,-1.9279,-1.9279,-1.9279,-1.9279,0.0,0.0,-2.1654,0.0,-2.4703,-2.5109,0.0,0.0,-2.6714,-2.6726,-2.6875,-2.6943,-2.6794,-2.6577,-2.6371,-2.6201,-2.591,-2.5535,-2.5382,-2.5052,-2.4718,-2.4345,-2.3751,-2.3224,-2.2852,-2.2252,-2.1645,-2.1021,-2.0566,-1.9951,-1.9082,-1.8594,-1.8031,-1.7221,-1.6574,-1.5922,-1.5257,-1.4587,-1.3997,-1.3483,-1.3052,-1.279,-1.2705,-1.2777,-1.2946,-1.3175,-1.3465,-1.3709,-1.3963,-1.4421,-1.4621,-1.4646,-1.4893,-1.4885,-1.4688,-1.4688,-1.4496,-1.4298,-1.4592,-1.479,-1.5077,-1.5356,-1.5547,-1.573,-1.5825,-1.5832,-1.5832,-1.5832,-1.5832,-1.5832,-1.5832,-1.5832,-1.5832,-1.5832,-1.6086,-1.6413,-1.67,-1.6994,-1.7281,-1.7528,-1.7582,-1.7582,-1.7582,-1.7582,-1.7582,-1.7582,-1.7582,-1.7582,-1.7582,-1.7582,-1.7582,-1.7582,-1.7799,-1.8122,-1.8325,-1.8653,-1.8974,-1.9279,-1.9279,-1.9279,-1.9279,-1.9279,-1.9279,-1.9279,-1.9279,-1.9279,-1.9279,-1.9279,-1.9279,-1.9279,-1.9279,-1.9279,-1.8077,-1.9636,-2.1378,0.0,-2.405,-2.476,-2.561,-2.6021,-2.6245,-2.6245,-2.6327,-2.6396,-2.644,-2.6233,-2.6025,-2.5898,-2.5606,-2.5382,-2.5182,-2.4849,-2.449,-2.42,-2.3677,-2.3075,-2.2553,-2.1959,-2.1339,-2.0644,-2.0186,-1.9557,-1.8851,-1.8273,-1.77,-1.7139,-1.6319,-1.5575,-1.4908,-1.4334,-1.3828,-1.3228,-1.2875,-1.2705,-1.2705,-1.2875,-1.2949,-1.3077,-1.3392,-1.3705,-1.4116,-1.4488,-1.4604,-1.463,-1.4913,-1.4841,-1.4672,-1.4829,-1.4885,-1.479,-1.4885,-1.5077,-1.5356,-1.5445,-1.5635,-1.5832,-1.5832,-1.5832,-1.5832,-1.5832,-1.5832,-1.5832,-1.5832,-1.5832,-1.5832,-1.5832,-1.5925,-1.6146,-1.6607,-1.6941,-1.7235,-1.7522,-1.7582,-1.7582,-1.7582,-1.7582,-1.7582,-1.7582,-1.7582,-1.7582,-1.7582,-1.7582,-1.7694,-1.7799,-1.801,-1.8325,-1.8646,-1.8966,-1.9175,-1.9272,-1.9279,-1.9279,-1.9279,-1.9279,-1.9279,-1.9279,-1.9279,-1.9279,-1.9279,-1.9279,-1.9279,-1.9279,-1.9279,-1.9279,0.0,0.0,-2.073,-2.2273,-2.3292,-2.4103,0.0,-2.5419,-2.5738,-2.5804,-2.5828,-2.5828,-2.5943,-2.5886,-2.5758,-2.5535,-2.5382,-2.5182,-2.4981,-2.4634,-2.4345,-2.397,-2.3446,-2.2927,-2.2327,-2.1721,-2.1041,-2.0342,-1.9794,-1.924,-1.87,-1.8031,-1.7456,-1.6968,-1.6064,-1.5318,-1.465,-1.4075,-1.3568,-1.2966,-1.279,-1.2705,-1.279,-1.3052,-1.3137,-1.3234,-1.3435,-1.379,-1.4082,-1.4451,-1.4576,-1.4602,-1.4891,-1.4864,-1.4775,-1.4986,-1.5114,-1.5083,-1.5172,-1.5356,-1.554,-1.554,-1.5635,-1.5832,-1.5832,-1.5832,-1.5832,-1.5832,-1.5832,-1.5832,-1.5832,-1.5832,-1.5832,-1.5832,-1.5832,-1.5992,-1.658,-1.6994,-1.7321,-1.7542,-1.7582,-1.7582,-1.7582,-1.7582,-1.7582,-1.7582,-1.7582,-1.7582,-1.7582,-1.7582,-1.7687,-1.7911,-1.822,-1.8534,-1.8757,-1.9071,-1.9279,-1.9279,-1.9279,-1.9279,-1.9279,-1.9279,-1.9279,-1.9279,-1.9279,-1.9279,-1.9279,-1.9279,-1.9279,-1.9279,-1.9279,-1.9279,-1.7953,-1.8742,0.0,-2.1885,-2.2592,-2.3182,-2.4743,-2.5124,-2.5215,-2.5578,-2.5606,-2.5535,-2.5382,-2.5453,-2.5535,-2.5382,-2.5182,-2.4981,-2.4562,-2.4345,-2.397,-2.3446,-2.3001,-2.2478,-2.1883,-2.1262,-2.0799,-2.0342,-1.9706,-1.9152,-1.87,-1.8031,-1.7375,-1.673,-1.5899,-1.5061,-1.4391,-1.3561,-1.3052,-1.2705,-1.2705,-1.279,-1.3058,-1.3052,-1.3307,-1.3652,-1.3665,-1.3672,-1.3783,-1.4329,-1.4543,-1.4576,-1.487,-1.4969,-1.5015,-1.5034,-1.5029,-1.5178,-1.5356,-1.5445,-1.554,-1.5737,-1.5825,-1.5832,-1.5832,-1.5832,-1.5832,-1.5832,-1.5832,-1.5832,-1.5832,-1.5832,-1.5832,-1.5832,-1.5832,-1.5992,-1.658,-1.7154,-1.7562,-1.7582,-1.7582,-1.7582,-1.7582,-1.7582,-1.7582,-1.7582,-1.7582,-1.7582,-1.7582,-1.7582,-1.7582,-1.7582,-1.8108,-1.8422,-1.8422,-1.8952,-1.9279,-1.9279,-1.9279,-1.9279,-1.9279,-1.9279,-1.9279,-1.9279,-1.9279,-1.9279,-1.9279,-1.9279,-1.9279,-1.9279,-1.9279,-1.9279,-1.7472,0.0,0.0,-2.044,-2.1567,-2.2528,-2.3098,-2.3977,-2.4752,-2.4873,-2.5157,-2.5382,-2.5312,-2.5324,-2.5253,-2.5182,-2.4909,-2.4634,-2.4345,-2.4116,-2.3751,-2.315,-2.2777,-2.2252,-2.1655,-2.1031,-2.0557,-2.0079,-1.9423,-1.8966,-1.87,-1.7908,-1.7228,-1.6748,-1.5838,-1.4873,-1.375,-1.3313,-1.2966,-1.2705,-1.2881,-1.3052,-1.3143,-1.3574,-1.3828,-1.3997,-1.4237,-1.4237,-1.4159,-1.4352,-1.4484,-1.4682,-1.4831,-1.4926,-1.4952,-1.4953,-1.512,-1.5278,-1.5365,-1.5577,-1.573,-1.5737,-1.5832,-1.5832,-1.5832,-1.5832,-1.5832,-1.5832,-1.5832,-1.5832,-1.5832,-1.5832,-1.5832,-1.5832,-1.5972,-1.6226,-1.662,-1.7021,-1.7361,-1.7549,-1.7582,-1.7582,-1.7582,-1.7582,-1.7582,-1.7582,-1.7582,-1.7582,-1.7582,-1.7582,-1.7687,-1.7799,-1.801,-1.822,-1.8422,-1.875,-1.9078,-1.9078,-1.9175,-1.9279,-1.9279,-1.9279,-1.9279,-1.9279,-1.9279,-1.9279,-1.9279,-1.9279,-1.9279,-1.9279,-1.9279,-1.9279,-1.6968,-1.7788,0.0,0.0,-2.0494,-2.1511,-2.2103,-2.2965,-2.3902,-2.439,-2.4755,-2.5075,-2.5205,-2.5087,-2.5028,-2.4981,-2.4706,-2.4418,-2.4116,-2.3897,-2.3446,-2.2852,-2.2478,-2.1939,-2.1242,-2.0769,-2.0294,-1.9816,-1.9228,-1.885,-1.87,-1.7891,-1.7114,-1.6398,-1.5591,-1.4713,-1.3672,-1.3326,-1.3149,-1.2973,-1.3143,-1.3307,-1.3483,-1.3913,-1.4257,-1.4419,-1.4748,-1.4734,-1.4482,-1.4482,-1.4566,-1.4671,-1.4808,-1.4874,-1.4984,-1.5008,-1.5183,-1.5362,-1.5364,-1.5524,-1.5698,-1.5798,-1.5832,-1.5832,-1.5832,-1.5832,-1.5832,-1.5832,-1.5832,-1.5832,-1.5832,-1.5832,-1.5832,-1.5832,-1.5979,-1.6206,-1.6493,-1.6867,-1.7235,-1.7522,-1.7582,-1.7582,-1.7582,-1.7582,-1.7582,-1.7582,-1.7582,-1.7582,-1.7582,-1.7582,-1.7687,-1.7806,-1.7911,-1.8122,-1.822,-1.8541,-1.8757,-1.8757,-1.8855,-1.8959,-1.8959,-1.8959,-1.9063,-1.9175,-1.9175,-1.9175,-1.9279,-1.9279,-1.9279,-1.9279,-1.9279,-1.9279,0.0,0.0,0.0,-1.871,-1.9397,-2.0165,-2.1801,-2.2149,-2.2651,-2.4129,-2.4472,-2.4625,-2.498,-2.4886,-2.4791,-2.4778,-2.4562,-2.4345,-2.397,-2.3519,-2.3075,-2.2478,-2.2025,-2.1471,-2.072,-2.0411,-2.01,-1.9631,-1.9043,-1.8744,-1.8692,-1.79,-1.6895,-1.5779,-1.5054,-1.4489,-1.4088,-1.3672,-1.3423,-1.343,-1.3404,-1.3659,-1.4088,-1.4173,-1.4503,-1.509,-1.5173,-1.4999,-1.4734,-1.4734,-1.4734,-1.4734,-1.4734,-1.4923,-1.5189,-1.495,-1.5055,-1.5266,-1.5362,-1.5384,-1.5444,-1.5725,-1.5818,-1.5832,-1.5832,-1.5832,-1.5832,-1.5832,-1.5832,-1.5832,-1.5832,-1.5832,-1.5832,-1.5832,-1.5832,-1.5912,-1.6213,-1.6727,-1.7221,-1.7515,-1.7575,-1.7582,-1.7582,-1.7582,-1.7582,-1.7582,-1.7582,-1.7582,-1.7582,-1.7582,-1.7582,-1.7582,-1.7799,-1.7911,-1.7911,-1.822,-1.8318,-1.8318,-1.8422,-1.8422,-1.8422,-1.8422,-1.8534,-1.8869,-1.8869,-1.8974,-1.9272,-1.9272,-1.9279,-1.9279,-1.9279,-1.9279,-1.6571,0.0,0.0,0.0,0.0,0.0,-2.0269,-2.1352,-2.2342,-2.2731,-2.3414,-2.3979,-2.3967,-2.4068,-2.4097,-2.38,-2.3963,-2.397,-2.3751,-2.3372,-2.2852,-2.2252,-2.1807,-2.1318,-2.0643,-2.0265,-1.9934,0.0,-1.9182,-1.8877,-1.87,-1.7759,-1.6894,-1.6198,-1.5567,-1.5027,-1.4565,-1.4298,-1.4037,-1.3887,-1.4064,-1.4304,-1.4517,-1.4908,-1.5325,-1.5839,-1.5989,-1.6072,-1.6072,-1.565,-1.5575,-1.5665,-1.5484,-1.5369,-1.5281,-1.5134,-1.4998,-1.5021,-1.5008,-1.523,-1.5411,-1.5491,-1.5658,-1.5832,-1.5832,-1.5832,-1.5832,-1.5832,-1.5832,-1.5832,-1.5832,-1.5832,-1.5832,-1.5832,-1.5832,-1.5912,-1.6213,-1.6567,-1.6914,-1.7215,-1.7442,-1.7582,-1.7582,-1.7483,-1.7279,-1.7279,-1.706,-1.6942,-1.6942,-1.6942,-1.6942,-1.6942,-1.7054,-1.7054,-1.7054,-1.7378,-1.749,-1.749,-1.7694,-1.7905,-1.8122,-1.8115,-1.8227,-1.8534,-1.8534,-1.8534,-1.8639,-1.9063,-1.9279,-1.9279,-1.9279,-1.9279,-1.6352,-1.6434,-1.6753,-1.7376,0.0,0.0,-1.9332,-2.0329,-2.1389,-2.2091,-2.2633,-2.3089,-2.3344,-2.3487,-2.3456,-2.306,-2.3018,-2.3133,-2.3316,-2.3001,-2.2553,-2.1959,-2.1395,-2.0894,-2.0372,-1.9974,-1.9653,-1.9487,-1.921,-1.8807,-1.8432,-1.7848,-1.7163,-1.6542,-1.6057,-1.5597,-1.5154,-1.4965,-1.479,-1.4628,-1.4747,-1.5007,-1.5252,-1.5543,-1.602,-1.6523,-1.6656,-1.6812,-1.6984,-1.6566,-1.6402,-1.6327,-1.6072,-1.5899,-1.5733,-1.5409,-1.5197,-1.5127,-1.4922,-1.5103,-1.5329,-1.5357,-1.5591,-1.5832,-1.5832,-1.5832,-1.5832,-1.5832,-1.5832,-1.5832,-1.5832,-1.5832,-1.5832,-1.5832,-1.5832,-1.5879,-1.6052,-1.6319,-1.6653,-1.7068,-1.7284,-1.7483,-1.7483,-1.7166,-1.6955,-1.6955,-1.6842,-1.673,-1.673,-1.673,-1.673,-1.673,-1.673,-1.6624,-1.6524,-1.6749,-1.6749,-1.6643,-1.6955,-1.7166,-1.7279,-1.7378,-1.7589,-1.7905,-1.7905,-1.7898,-1.8108,-1.8639,-1.8959,-1.8959,-1.8959,-1.8959,-1.6082,-1.6195,-1.6527,-1.6589,-1.7339,0.0,-1.8773,-1.9332,-2.014,-2.1632,-2.1849,-2.1944,-2.2696,-2.2793,-2.2619,-2.2246,-2.1981,-2.2033,-2.2717,-2.252,-2.2027,-2.1507,-2.0951,-2.0382,-1.9955,-1.9743,-1.9528,-1.9292,-1.9097,-1.87,-1.8103,-1.8031,-1.7627,-1.6812,-1.6624,-1.6319,-1.5884,-1.5688,-1.5506,-1.5506,-1.5551,-1.5769,-1.6247,-1.6254,-1.6554,-1.7212,-1.7245,-1.7392,-1.7563,-1.7563,-1.7229,-1.673,-1.6558,-1.6476,-1.6394,-1.5726,-1.5477,-1.5354,-1.507,-1.5108,-1.5322,-1.5349,-1.5545,-1.5785,-1.5818,-1.5832,-1.5832,-1.5832,-1.5832,-1.5832,-1.5832,-1.5832,-1.5832,-1.5832,-1.5832,-1.5832,-1.5832,-1.6059,-1.644,-1.6994,-1.7133,-1.714,-1.7166,-1.6849,-1.6624,-1.6624,-1.6624,-1.6524,-1.6524,-1.6518,-1.6518,-1.6518,-1.6518,-1.6418,-1.6217,-1.6111,-1.6004,-1.5785,-1.6004,-1.6217,-1.6217,-1.6418,-1.6736,-1.7073,-1.7073,-1.7279,-1.7477,-1.8003,-1.8318,-1.8318,-1.8318,-1.8541,-1.6776,-1.6369,0.0,0.0,-1.6786,0.0,-1.8118,-1.8744,-1.9364,-2.0128,-2.0484,-2.0706,-2.0724,-2.0824,-2.0938,-2.0955,-2.0997,-2.1279,-2.1778,-2.1605,-2.1248,-2.0961,-2.0761,-2.042,-1.9982,-1.9712,-1.9528,-1.9292,-1.9097,-1.8903,-1.8567,-1.8238,-1.7861,-1.7504,-1.7155,-1.695,-1.6802,-1.659,-1.6409,-1.6409,-1.6417,-1.6613,-1.69,-1.7041,-1.7383,-1.7817,-1.8027,-1.8253,-1.8486,-1.8469,-1.7968,-1.7229,-1.7229,-1.6984,-1.6648,-1.6484,-1.5982,-1.5401,-1.5307,-1.5284,-1.5262,-1.5308,-1.5524,-1.571,-1.5758,-1.5832,-1.5832,-1.5832,-1.5832,-1.5832,-1.5832,-1.5832,-1.5832,-1.5832,-1.5832,-1.5832,-1.5832,-1.6059,-1.6281,-1.6439,-1.6632,-1.6795,-1.6804,-1.653,-1.643,-1.643,-1.6004,-1.569,-1.569,-1.547,-1.5357,-1.5357,-1.5357,-1.5357,-1.5256,-1.525,-1.5256,-1.5143,-1.525,-1.5357,-1.5672,-1.5672,-1.5885,-1.6105,-1.6324,-1.6643,-1.6836,-1.7477,-1.7793,-1.7793,-1.801,-1.8122,-1.7174,0.0,0.0,-1.6312,0.0,0.0,0.0,-1.782,-1.8437,-1.9223,-1.9449,-1.9581,-2.005,-1.9982,-1.9867,-1.9812,-1.9764,-1.9684,-1.9715,-2.0278,-2.0492,-2.0126,-1.9782,-1.9637,-1.9437,-1.9233,-1.9173,-1.9292,-1.9204,-1.9088,-1.8885,-1.8629,-1.8334,-1.7853,-1.7644,-1.7481,-1.7286,-1.7098,-1.7098,-1.7196,-1.7196,-1.7392,-1.7784,-1.7878,-1.8023,-1.8353,-1.8496,-1.8594,-1.8718,-1.8692,-1.8434,-1.8031,-1.7797,-1.7554,-1.7302,-1.6976,-1.6558,-1.5982,-1.565,-1.5536,-1.5497,-1.5304,-1.5487,-1.5701,-1.5758,-1.5812,-1.5832,-1.5832,-1.5832,-1.5832,-1.5832,-1.5832,-1.5832,-1.5832,-1.5832,-1.5832,-1.5832,-1.5945,-1.6042,-1.6051,-1.6238,-1.6356,-1.6455,-1.6217,-1.5903,-1.5903,-1.5583,-1.5261,-1.5261,-1.5148,-1.5041,-1.5041,-1.5041,-1.4928,-1.4821,-1.4821,-1.4719,-1.4617,-1.4719,-1.4928,-1.503,-1.5137,-1.5351,-1.5464,-1.5577,-1.5678,-1.5885,-1.6205,-1.663,-1.7153,-1.7265,-1.7483,0.0,0.0,0.0,0.0,0.0,-1.651,0.0,0.0,0.0,-1.8473,-1.8458,-1.846,-1.9313,-1.9109,-1.8771,-1.8655,-1.8365,-1.8009,-1.775,-1.8803,-1.9425,-1.9076,-1.8826,-1.8738,-1.8879,-1.8813,-1.8806,-1.9195,-1.9292,-1.9204,-1.9,-1.8985,-1.8691,-1.8175,-1.8121,-1.7951,-1.7649,-1.7649,-1.7747,-1.7853,-1.79,-1.8086,-1.8477,-1.8486,-1.8585,-1.8788,-1.8797,-1.885,-1.8851,-1.8825,-1.8816,-1.8745,-1.8273,-1.8121,-1.8031,-1.7465,-1.7057,-1.673,-1.6147,-1.592,-1.5911,-1.5447,-1.5541,-1.5688,-1.5742,-1.5832,-1.5832,-1.5832,-1.5832,-1.5832,-1.5832,-1.5832,-1.5832,-1.5832,-1.5832,-1.5832,-1.5832,-1.5832,-1.5823,-1.5843,-1.5924,-1.6069,-1.6163,-1.5867,-1.5589,-1.5482,-1.5261,-1.4928,-1.4928,-1.4934,-1.4826,-1.4826,-1.4826,-1.4719,-1.4498,-1.4498,-1.4396,-1.4191,-1.4401,-1.4498,-1.4498,-1.4719,-1.4826,-1.4928,-1.4928,-1.4928,-1.5041,-1.5041,-1.5458,-1.6411,-1.6411,-1.663,0.0,0.0,0.0,0.0,-1.6454,0.0,0.0,0.0,-1.6839,-1.7445,0.0,-1.7156,-1.7167,0.0,0.0,-1.7401,-1.707,-1.6953,-1.7482,-1.7466,-1.7536,-1.8066,-1.8481,-1.8658,-1.8488,-1.8574,-1.8699,-1.8788,-1.9097,-1.9204,-1.9,-1.9018,-1.885,-1.8638,-1.8638,-1.8637,-1.8547,-1.8547,-1.8547,-1.8556,-1.863,-1.8629,-1.8647,-1.8841,-1.893,-1.8991,-1.9186,-1.9213,-1.9222,-1.9222,-1.9222,-1.9222,-1.8772,-1.8531,-1.8362,-1.8031,-1.7635,-1.7229,-1.673,-1.6507,-1.6262,-1.5896,-1.5814,-1.5729,-1.6088,-1.5994,-1.5832,-1.5832,-1.5832,-1.5832,-1.5832,-1.5832,-1.5832,-1.5832,-1.5832,-1.5832,-1.5832,-1.5832,-1.5823,-1.5843,-1.613,-1.622,-1.6019,-1.5846,-1.5791,-1.5589,-1.5261,-1.4928,-1.4713,-1.4401,-1.4299,-1.4299,-1.4299,-1.4299,-1.4299,-1.4299,-1.4191,-1.4196,-1.4196,-1.4299,-1.4299,-1.4299,-1.4401,-1.4606,-1.4606,-1.4713,-1.5041,-1.5041,-1.5041,-1.525,-1.5458,-1.5779,0.0,0.0,0.0,0.0,0.0,0.0,-1.6779,0.0,-1.6406,0.0,0.0,0.0,0.0,0.0,0.0,0.0,-1.5977,-1.5779,-1.5792,-1.6066,-1.6461,-1.7042,-1.7157,-1.7295,-1.7533,-1.8036,-1.848,-1.8716,-1.8885,-1.9,-1.9195,-1.9195,-1.9097,-1.8894,-1.8886,-1.8843,-1.8736,-1.8736,-1.8745,-1.8851,-1.885,-1.8903,-1.9088,-1.9107,-1.9204,-1.9311,-1.9408,-1.9515,-1.9613,-1.9613,-1.9613,-1.9613,-1.9436,-1.9091,-1.8763,-1.8531,-1.8121,-1.7708,-1.7383,-1.6976,-1.6487,-1.626,-1.6006,-1.5868,-1.6168,-1.6123,-1.6028,-1.5832,-1.5927,-1.6028,-1.6028,-1.6116,-1.6305,-1.6305,-1.6305,-1.6305,-1.6305,-1.6305,-1.6252,-1.6101,-1.6162,-1.6255,-1.6145,-1.6039,-1.5791,-1.5589,-1.5041,-1.4713,-1.4606,-1.4401,-1.4196,-1.4196,-1.4196,-1.4196,-1.4196,-1.4196,-1.4196,-1.4196,-1.4196,-1.4196,-1.4196,-1.4196,-1.4299,-1.4401,-1.4401,-1.4401,-1.4509,-1.4509,-1.4509,-1.4509,-1.5041,-1.5357,-1.9722,0.0,0.0,0.0,0.0,0.0,0.0,0.0,0.0,0.0,-1.6326,0.0,0.0,0.0,0.0,0.0,0.0,-1.4831,-1.4641,-1.5004,-1.5459,-1.6037,-1.6104,-1.6264,-1.6766,-1.7366,-1.7943,-1.8361,-1.8554,-1.8806,-1.9107,-1.9204,-1.9204,-1.9097,-1.9097,-1.9,-1.8894,-1.8885,-1.8991,-1.9195,-1.9195,-1.9292,-1.9497,-1.9497,-1.9515,-1.9701,-1.9645,-1.9803,-1.991,-1.991,-1.991,-1.991,-1.9863,-1.9618,-1.924,-1.8922,-1.8683,-1.8273,-1.7942,-1.7294,-1.6684,-1.6583,-1.6367,-1.6142,-1.6313,-1.6414,-1.6312,-1.6116,-1.6116,-1.6312,-1.6312,-1.6494,-1.6588,-1.6588,-1.6588,-1.6588,-1.6588,-1.6588,-1.6494,-1.6312,-1.6354,-1.6458,-1.6473,-1.6207,-1.5913,-1.5678,-1.5256,-1.4821,-1.46,-1.4396,-1.4299,-1.4196,-1.4196,-1.4196,-1.4196,-1.4196,-1.4196,-1.4196,-1.4196,-1.4196,-1.4196,-1.4196,-1.4196,-1.4196,-1.4196,-1.4196,-1.4196,-1.4196,-1.4196,-1.4196,-1.4617,-1.4939,0.0,0.0,0.0,-1.9128,0.0,0.0,0.0,0.0,-1.6795,0.0,0.0,0.0,0.0,0.0,0.0,0.0,0.0,0.0,0.0,-1.4326,-1.4428,-1.5168,-1.5624,-1.6086,-1.6491,-1.6742,-1.7112,-1.752,-1.8233,-1.8699,-1.8699,-1.9097,-1.9301,-1.9301,-1.9301,-1.9301,-1.9292,-1.9292,-1.9399,-1.9604,-1.9604,-1.9701,-1.9907,-1.9907,-1.9907,-1.9897,-1.9866,-1.9858,-1.9936,-1.9936,-1.9936,-1.9936,-1.9936,-1.9925,-1.9784,-1.946,-1.9301,-1.9143,-1.8273,-1.7383,-1.6767,-1.7212,-1.6896,-1.6388,-1.6872,-1.6784,-1.6588,-1.6588,-1.6588,-1.6588,-1.6588,-1.6581,-1.6588,-1.6588,-1.6588,-1.6588,-1.6588,-1.6588,-1.6588,-1.6588,-1.6833,-1.7044,-1.7066,-1.6655,-1.6216,-1.5956,-1.5891,-1.5571,-1.4713,-1.46,-1.4504,-1.4196,-1.4196,-1.4196,-1.4196,-1.4196,-1.4196,-1.4196,-1.4196,-1.4196,-1.4196,-1.4196,-1.4196,-1.4196,-1.4196,-1.4196,-1.4196,-1.4196,-1.4196,-1.4196,-1.4191,-1.4401,0.0,0.0,-2.0798,-2.0245,0.0,0.0,0.0,0.0,0.0,0.0,0.0,0.0,0.0,0.0,0.0,0.0,0.0,0.0,0.0,-1.3711,-1.4008,-1.4869,-1.5245,-1.5583,-1.5898,-1.637,-1.6811,-1.7181,-1.7881,-1.8453,-1.8725,-1.9097,-1.9301,-1.9301,-1.9301,-1.939,-1.9506,-1.9506,-1.9604,-1.9809,-1.9835,-1.9856,-1.9875,-1.9875,-1.9972,-2.0167,-2.0178,-2.0246,-2.0353,-2.0353,-2.0353,-2.0353,-2.0353,-2.0372,-2.0333,-1.9835,-1.9529,-1.9143,-1.8273,-1.7635,-1.7179,-1.747,-1.7167,-1.6669,-1.705,-1.7066,-1.6784,-1.6683,-1.6683,-1.6878,-1.6878,-1.6965,-1.7052,-1.7052,-1.7052,-1.7052,-1.7052,-1.7052,-1.7052,-1.6878,-1.6964,-1.7103,-1.7322,-1.7189,-1.7021,-1.6778,-1.6318,-1.5779,-1.5458,-1.4922,-1.4606,-1.4504,-1.4299,-1.4196,-1.4196,-1.4196,-1.4196,-1.4196,-1.4196,-1.4196,-1.4196,-1.4196,-1.4196,-1.4196,-1.4196,-1.4196,-1.4196,-1.4196,-1.4196,-1.4196,-1.4196,-1.4293,-2.2358,-2.2083,0.0,-2.1176,-2.069,0.0,-1.9673,0.0,-1.8338,0.0,0.0,0.0,0.0,0.0,0.0,0.0,0.0,0.0,0.0,-1.3212,-1.3621,-1.4449,-1.482,-1.5167,-1.5625,-1.6084,-1.6551,-1.695,-1.7622,-1.8169,-1.8601,-1.8903,-1.9186,-1.9301,-1.9399,-1.9497,-1.9604,-1.9706,-1.9784,-2.0077,-2.0022,-2.0052,-2.0139,-2.0139,-2.0246,-2.044,-2.044,-2.0459,-2.0566,-2.0566,-2.0566,-2.0566,-2.0566,-2.0566,-2.0557,-2.0216,-1.9747,-1.9222,-1.8505,-1.7959,-1.7516,-1.7736,-1.735,-1.6854,-1.7328,-1.7246,-1.7066,-1.6864,-1.6965,-1.7066,-1.7066,-1.7239,-1.7326,-1.7326,-1.7326,-1.7326,-1.7326,-1.7326,-1.7239,-1.7153,-1.7066,-1.7224,-1.7547,-1.7633,-1.7622,-1.7397,-1.6849,-1.6311,-1.5998,-1.5351,-1.4815,-1.46,-1.4401,-1.4196,-1.4196,-1.4196,-1.4196,-1.4196,-1.4196,-1.4196,-1.4196,-1.4196,-1.4196,-1.4196,-1.4196,-1.4196,-1.4196,-1.4196,-1.4196,-1.4196,-1.4299,-1.4396]},{"header":{"parameterUnit":"m.s-1","parameterCategory":1,"la1":30.6,"la2":29.2853,"lo1":-89.7004,"lo2":-87.6739,"dy":0.0162,"dx":0.0183,"nx":112,"ny":82,"refTime":"2023-03-06T18:00:00:Z","depth":0,"parameterNumber":3,"parameterNumberName":"V-component_of_WINDS"},"data":[0.0,0.0,0.0,0.0,0.0,0.0,0.0,0.0,0.0,0.0,0.0,0.0,0.0,0.0,0.0,0.0,0.0,0.0,0.0,0.0,0.0,0.0,0.0,0.0,0.0,0.0,0.0,0.0,0.0,0.0,0.0,0.0,0.0,0.0,0.0,0.0,0.0,0.0,0.0,0.0,0.0,0.0,0.0,0.0,0.0,0.0,0.0,0.0,0.0,0.0,0.0,0.0,0.0,0.0,0.0,0.0,0.0,0.0,0.0,0.0,0.0,0.0,0.0,0.0,0.0,0.0,0.0,0.0,0.0,0.0,0.0,0.0,0.0,0.0,0.0,0.0,0.0,0.0,0.0,0.0,0.0,0.0,0.0,0.0,0.0,0.0,0.0,0.0,0.0,0.0,-4.3251,-4.2908,-4.3474,-4.3898,-4.3839,-4.3007,-4.2278,-4.1693,0.0,0.0,0.0,0.0,0.0,0.0,0.0,0.0,0.0,0.0,0.0,0.0,0.0,0.0,0.0,0.0,0.0,0.0,0.0,0.0,0.0,0.0,0.0,0.0,0.0,0.0,0.0,0.0,0.0,0.0,0.0,0.0,0.0,0.0,0.0,0.0,0.0,0.0,0.0,0.0,0.0,0.0,0.0,0.0,0.0,0.0,0.0,0.0,0.0,0.0,0.0,0.0,0.0,0.0,0.0,0.0,0.0,0.0,0.0,0.0,0.0,0.0,0.0,0.0,0.0,0.0,0.0,0.0,0.0,0.0,0.0,0.0,0.0,0.0,0.0,0.0,0.0,0.0,0.0,0.0,0.0,0.0,0.0,0.0,0.0,0.0,0.0,0.0,0.0,0.0,0.0,0.0,0.0,0.0,0.0,0.0,0.0,0.0,0.0,0.0,0.0,0.0,0.0,0.0,-4.3025,-4.3645,-4.3823,-4.3822,-4.3628,-4.2949,-4.2204,-4.1475,0.0,0.0,0.0,0.0,0.0,0.0,0.0,0.0,0.0,0.0,0.0,0.0,0.0,0.0,0.0,0.0,0.0,0.0,0.0,0.0,0.0,0.0,0.0,0.0,0.0,0.0,0.0,0.0,0.0,0.0,0.0,0.0,0.0,0.0,0.0,0.0,0.0,0.0,0.0,0.0,0.0,0.0,0.0,0.0,0.0,0.0,0.0,0.0,0.0,0.0,0.0,0.0,0.0,0.0,0.0,0.0,0.0,0.0,0.0,0.0,0.0,0.0,0.0,0.0,0.0,0.0,0.0,0.0,0.0,0.0,0.0,0.0,0.0,0.0,0.0,0.0,0.0,0.0,0.0,0.0,0.0,0.0,0.0,0.0,0.0,0.0,0.0,0.0,0.0,0.0,0.0,0.0,0.0,0.0,0.0,0.0,0.0,0.0,0.0,0.0,0.0,0.0,0.0,-4.221,-4.2766,-4.3789,-4.3822,-4.3704,-4.3628,-4.3313,-4.2634,-4.1491,-4.0835,0.0,0.0,0.0,0.0,0.0,0.0,0.0,0.0,0.0,0.0,0.0,0.0,0.0,0.0,0.0,0.0,0.0,0.0,0.0,0.0,0.0,0.0,0.0,0.0,0.0,0.0,0.0,0.0,0.0,0.0,0.0,0.0,0.0,0.0,0.0,0.0,0.0,0.0,0.0,0.0,0.0,0.0,0.0,0.0,0.0,0.0,0.0,0.0,0.0,0.0,0.0,0.0,0.0,0.0,0.0,0.0,0.0,0.0,0.0,0.0,0.0,0.0,0.0,0.0,0.0,0.0,0.0,0.0,0.0,0.0,0.0,0.0,0.0,0.0,0.0,0.0,0.0,0.0,0.0,0.0,0.0,0.0,0.0,0.0,0.0,0.0,0.0,0.0,0.0,0.0,0.0,0.0,0.0,0.0,0.0,0.0,0.0,0.0,0.0,0.0,0.0,0.0,-4.2176,-4.249,-4.3672,-4.3687,-4.3628,-4.3628,-4.3628,-4.2999,-4.1508,-4.1409,0.0,0.0,0.0,0.0,0.0,0.0,0.0,0.0,0.0,0.0,0.0,0.0,0.0,0.0,0.0,0.0,0.0,0.0,0.0,0.0,0.0,0.0,0.0,0.0,0.0,0.0,0.0,0.0,0.0,0.0,0.0,0.0,0.0,0.0,0.0,0.0,0.0,0.0,0.0,0.0,0.0,0.0,0.0,0.0,0.0,0.0,0.0,0.0,0.0,0.0,0.0,0.0,0.0,0.0,0.0,0.0,0.0,0.0,0.0,0.0,0.0,0.0,0.0,0.0,0.0,0.0,0.0,0.0,0.0,0.0,0.0,0.0,0.0,0.0,0.0,0.0,0.0,0.0,0.0,0.0,0.0,0.0,0.0,0.0,0.0,0.0,0.0,0.0,0.0,0.0,0.0,0.0,0.0,0.0,0.0,0.0,0.0,0.0,0.0,0.0,0.0,0.0,-4.1882,-4.2209,-4.3479,-4.3628,-4.3628,-4.3628,-4.3628,-4.2999,-4.1508,-4.1409,0.0,0.0,0.0,0.0,0.0,0.0,0.0,0.0,0.0,0.0,0.0,0.0,0.0,0.0,0.0,0.0,0.0,0.0,0.0,0.0,0.0,0.0,0.0,0.0,0.0,0.0,0.0,0.0,0.0,0.0,0.0,0.0,0.0,0.0,0.0,0.0,0.0,0.0,0.0,0.0,0.0,0.0,0.0,0.0,0.0,0.0,0.0,0.0,0.0,0.0,0.0,0.0,0.0,0.0,0.0,0.0,0.0,0.0,0.0,0.0,0.0,0.0,0.0,0.0,0.0,0.0,0.0,0.0,0.0,0.0,0.0,0.0,0.0,0.0,0.0,0.0,0.0,0.0,0.0,0.0,0.0,0.0,0.0,0.0,0.0,0.0,0.0,0.0,0.0,0.0,0.0,0.0,0.0,0.0,0.0,0.0,0.0,0.0,0.0,0.0,0.0,0.0,-4.2194,-4.2675,-4.3512,-4.3628,-4.3628,-4.3628,-4.3628,-4.2999,-4.1508,0.0,0.0,0.0,0.0,0.0,0.0,0.0,0.0,0.0,0.0,0.0,0.0,0.0,0.0,0.0,0.0,0.0,0.0,0.0,0.0,0.0,0.0,0.0,0.0,0.0,0.0,0.0,0.0,0.0,0.0,0.0,0.0,0.0,0.0,0.0,0.0,0.0,0.0,0.0,0.0,0.0,0.0,0.0,0.0,0.0,0.0,0.0,0.0,0.0,0.0,0.0,0.0,0.0,0.0,0.0,0.0,0.0,0.0,0.0,0.0,0.0,0.0,0.0,0.0,0.0,0.0,0.0,0.0,0.0,0.0,0.0,0.0,0.0,0.0,0.0,0.0,0.0,0.0,0.0,0.0,0.0,0.0,0.0,0.0,0.0,0.0,0.0,0.0,0.0,0.0,0.0,0.0,0.0,0.0,0.0,0.0,0.0,0.0,0.0,0.0,0.0,0.0,-4.1765,-4.2299,-4.29,-4.3545,-4.3628,-4.3628,-4.3628,-4.3628,-4.2999,-4.1508,0.0,0.0,0.0,0.0,0.0,0.0,0.0,0.0,0.0,0.0,0.0,0.0,0.0,0.0,0.0,0.0,0.0,0.0,0.0,0.0,0.0,0.0,0.0,0.0,0.0,0.0,0.0,0.0,0.0,0.0,0.0,0.0,0.0,0.0,0.0,0.0,0.0,0.0,0.0,0.0,0.0,0.0,0.0,0.0,0.0,0.0,0.0,0.0,0.0,0.0,0.0,0.0,0.0,0.0,0.0,0.0,0.0,0.0,0.0,0.0,0.0,0.0,0.0,0.0,0.0,0.0,0.0,0.0,0.0,0.0,0.0,0.0,0.0,0.0,0.0,0.0,0.0,0.0,0.0,0.0,0.0,0.0,0.0,0.0,0.0,0.0,0.0,0.0,0.0,0.0,0.0,0.0,0.0,0.0,0.0,0.0,0.0,0.0,0.0,0.0,0.0,0.0,-4.1616,-4.2161,-4.2816,-4.3545,-4.3628,-4.3628,-4.3628,-4.3628,-4.2999,0.0,0.0,0.0,0.0,0.0,0.0,0.0,0.0,0.0,0.0,0.0,0.0,0.0,0.0,0.0,0.0,0.0,0.0,0.0,0.0,0.0,0.0,0.0,0.0,0.0,0.0,0.0,0.0,0.0,0.0,0.0,0.0,0.0,0.0,0.0,0.0,0.0,0.0,0.0,0.0,0.0,0.0,0.0,0.0,0.0,0.0,0.0,0.0,0.0,0.0,0.0,0.0,0.0,0.0,0.0,0.0,0.0,0.0,0.0,0.0,0.0,0.0,0.0,0.0,0.0,0.0,0.0,0.0,0.0,0.0,0.0,0.0,0.0,0.0,0.0,0.0,0.0,0.0,0.0,0.0,0.0,0.0,0.0,0.0,0.0,0.0,0.0,0.0,0.0,0.0,0.0,0.0,0.0,0.0,0.0,0.0,0.0,0.0,0.0,0.0,0.0,0.0,0.0,-4.1683,-4.2609,-4.338,-4.3611,-4.3628,-4.3628,-4.3628,-4.3628,-4.3214,-4.2253,0.0,0.0,0.0,0.0,0.0,0.0,0.0,0.0,0.0,0.0,0.0,0.0,0.0,0.0,0.0,0.0,0.0,0.0,0.0,0.0,0.0,0.0,0.0,0.0,0.0,0.0,0.0,0.0,0.0,0.0,0.0,0.0,0.0,0.0,0.0,0.0,0.0,0.0,0.0,0.0,0.0,0.0,0.0,0.0,0.0,0.0,0.0,0.0,0.0,0.0,0.0,0.0,0.0,0.0,0.0,0.0,0.0,0.0,0.0,0.0,0.0,0.0,0.0,0.0,0.0,0.0,0.0,0.0,0.0,0.0,0.0,0.0,0.0,0.0,0.0,0.0,0.0,0.0,0.0,0.0,0.0,0.0,0.0,0.0,0.0,0.0,0.0,0.0,0.0,0.0,0.0,0.0,0.0,0.0,0.0,0.0,0.0,0.0,0.0,0.0,0.0,0.0,-4.1571,-4.2775,-4.3628,-4.3628,-4.3628,-4.3628,-4.3628,-4.3628,-4.3313,-4.2568,0.0,0.0,0.0,0.0,0.0,0.0,0.0,0.0,0.0,0.0,0.0,0.0,0.0,0.0,0.0,0.0,0.0,0.0,0.0,0.0,0.0,0.0,0.0,0.0,0.0,0.0,0.0,0.0,0.0,0.0,0.0,0.0,0.0,0.0,0.0,0.0,0.0,0.0,0.0,0.0,0.0,0.0,0.0,0.0,0.0,0.0,0.0,0.0,0.0,0.0,0.0,0.0,0.0,0.0,0.0,0.0,0.0,0.0,0.0,0.0,0.0,0.0,0.0,0.0,0.0,0.0,0.0,0.0,0.0,0.0,0.0,0.0,0.0,0.0,0.0,0.0,0.0,0.0,0.0,0.0,0.0,0.0,0.0,0.0,0.0,0.0,0.0,0.0,0.0,0.0,0.0,0.0,0.0,0.0,0.0,0.0,0.0,0.0,0.0,0.0,0.0,0.0,-4.1425,-4.2717,-4.3628,-4.3628,-4.3628,-4.3628,-4.3628,-4.3628,-4.333,-4.2667,0.0,0.0,0.0,0.0,0.0,0.0,0.0,0.0,0.0,0.0,0.0,0.0,0.0,0.0,0.0,0.0,0.0,0.0,0.0,0.0,0.0,0.0,0.0,0.0,0.0,0.0,0.0,0.0,0.0,0.0,0.0,0.0,0.0,0.0,0.0,0.0,0.0,0.0,0.0,0.0,0.0,0.0,0.0,0.0,0.0,0.0,0.0,0.0,0.0,0.0,0.0,0.0,0.0,0.0,0.0,0.0,0.0,0.0,0.0,0.0,-4.2264,-4.163,0.0,0.0,0.0,0.0,0.0,0.0,0.0,0.0,0.0,0.0,0.0,0.0,0.0,0.0,0.0,0.0,0.0,0.0,0.0,0.0,0.0,0.0,0.0,0.0,0.0,0.0,0.0,0.0,0.0,0.0,0.0,0.0,0.0,0.0,0.0,0.0,0.0,0.0,0.0,0.0,-4.1409,-4.2717,-4.3628,-4.3628,-4.3628,-4.3628,-4.3628,-4.3628,-4.3562,-4.3396,-4.2684,0.0,0.0,0.0,0.0,0.0,0.0,0.0,0.0,0.0,0.0,0.0,0.0,0.0,0.0,0.0,0.0,0.0,0.0,0.0,0.0,0.0,0.0,0.0,0.0,0.0,0.0,0.0,0.0,0.0,0.0,0.0,0.0,0.0,0.0,0.0,0.0,0.0,0.0,0.0,0.0,0.0,0.0,0.0,0.0,0.0,0.0,0.0,0.0,0.0,0.0,0.0,0.0,0.0,0.0,0.0,0.0,0.0,0.0,0.0,-4.2399,-4.1939,0.0,0.0,0.0,0.0,0.0,0.0,0.0,0.0,0.0,0.0,0.0,0.0,0.0,0.0,0.0,0.0,0.0,0.0,0.0,0.0,0.0,0.0,0.0,0.0,0.0,0.0,0.0,0.0,0.0,0.0,0.0,0.0,0.0,0.0,0.0,0.0,0.0,0.0,0.0,0.0,-4.1905,-4.2932,-4.3628,-4.3628,-4.3628,-4.3628,-4.3628,-4.3628,-4.3628,-4.3628,-4.2932,0.0,0.0,0.0,0.0,0.0,0.0,0.0,0.0,0.0,0.0,0.0,0.0,0.0,0.0,0.0,0.0,0.0,0.0,0.0,0.0,0.0,0.0,0.0,0.0,0.0,0.0,0.0,0.0,0.0,0.0,0.0,0.0,0.0,0.0,0.0,0.0,0.0,0.0,0.0,0.0,0.0,0.0,0.0,0.0,0.0,0.0,0.0,0.0,0.0,0.0,0.0,0.0,0.0,-4.2661,-4.3001,-4.3568,-4.3337,-4.3305,-4.3391,-4.2881,-4.2531,-4.2244,-4.1501,0.0,0.0,0.0,0.0,0.0,0.0,0.0,0.0,0.0,0.0,0.0,0.0,0.0,0.0,0.0,0.0,0.0,0.0,0.0,0.0,0.0,0.0,0.0,0.0,-4.3339,-4.3476,-4.3709,0.0,0.0,0.0,0.0,0.0,0.0,0.0,0.0,0.0,0.0,0.0,-4.2435,-4.3164,-4.3628,-4.3628,-4.3628,-4.3628,-4.3628,-4.3628,-4.3628,-4.3628,-4.3048,-4.2651,0.0,0.0,0.0,0.0,0.0,0.0,0.0,0.0,0.0,0.0,0.0,0.0,0.0,0.0,0.0,0.0,0.0,0.0,0.0,0.0,0.0,0.0,0.0,0.0,0.0,0.0,0.0,0.0,0.0,0.0,0.0,0.0,-3.9873,-3.9604,0.0,0.0,0.0,0.0,0.0,0.0,0.0,0.0,0.0,0.0,0.0,0.0,0.0,-4.1525,-4.1313,-4.2118,-4.2416,-4.2267,-4.278,-4.3321,-4.3941,-4.3819,-4.4126,-4.469,-4.4007,0.0,-4.2569,-4.1834,0.0,0.0,0.0,0.0,0.0,0.0,0.0,0.0,0.0,0.0,0.0,0.0,0.0,0.0,0.0,0.0,0.0,0.0,0.0,0.0,0.0,0.0,-4.3664,-4.3767,-4.428,-4.4741,0.0,-4.3734,-4.2689,-4.2483,-4.2136,-4.16,0.0,0.0,0.0,0.0,0.0,0.0,-4.2502,-4.3164,-4.3628,-4.3628,-4.3628,-4.3628,-4.3628,-4.3628,-4.3628,-4.3628,-4.3529,-4.3197,-4.2551,-4.2336,0.0,0.0,0.0,0.0,0.0,0.0,0.0,0.0,0.0,0.0,0.0,0.0,0.0,0.0,0.0,0.0,0.0,0.0,0.0,0.0,0.0,0.0,0.0,0.0,0.0,0.0,0.0,0.0,0.0,-3.9702,-3.9477,-3.9245,-3.9036,-3.8807,0.0,0.0,0.0,0.0,0.0,0.0,0.0,0.0,0.0,-4.0937,-4.1216,-4.1435,-4.1635,-4.1981,-4.2489,-4.3151,-4.3426,-4.3923,-4.4536,-4.4446,-4.4579,-4.4869,-4.4453,-4.4113,-4.3705,-4.2584,-4.2091,-4.1902,0.0,0.0,0.0,0.0,-4.0917,-4.0968,-4.1393,-4.1529,-4.1529,-4.1529,0.0,0.0,0.0,0.0,0.0,0.0,0.0,-4.2072,0.0,0.0,-4.3702,-4.4198,-4.4555,-4.4793,-4.4793,-4.4266,-4.3724,0.0,-4.2517,-4.1858,-4.1469,-4.1394,0.0,0.0,0.0,-4.2667,-4.3081,-4.3429,-4.3628,-4.3628,-4.3628,-4.3628,-4.3628,-4.3628,-4.3628,-4.3628,-4.3628,-4.3479,-4.3148,-4.2734,-4.222,0.0,0.0,0.0,0.0,0.0,0.0,0.0,0.0,0.0,0.0,0.0,0.0,0.0,0.0,0.0,0.0,0.0,0.0,0.0,0.0,0.0,0.0,0.0,0.0,0.0,0.0,0.0,0.0,-3.9279,-3.9157,-3.915,-3.8744,-3.8478,0.0,0.0,0.0,0.0,0.0,0.0,-3.9456,-3.9818,-4.0363,-4.1053,-4.0965,-4.1116,-4.1454,-4.1848,-4.2569,-4.3541,-4.3934,-4.4412,-4.4886,-4.4776,-4.4737,-4.472,-4.4626,-4.4587,-4.4468,-4.3257,-4.2698,-4.2506,-4.1779,-4.1474,-4.1474,-4.1474,-4.1474,-4.1559,-4.21,-4.2286,-4.2286,-4.2286,-4.2286,-4.2185,-4.1644,0.0,0.0,0.0,0.0,-4.2709,-4.3267,-4.3572,-4.3859,-4.4451,-4.4587,-4.4587,-4.4587,-4.4587,-4.4473,0.0,-4.3137,-4.2406,-4.2205,-4.2043,0.0,-4.2469,-4.2684,-4.2999,-4.3562,-4.3628,-4.3628,-4.3628,-4.3628,-4.3628,-4.3628,-4.3628,-4.3628,-4.3628,-4.3628,-4.3628,-4.3628,-4.3098,-4.2717,-4.2593,0.0,0.0,0.0,0.0,0.0,0.0,0.0,0.0,0.0,0.0,0.0,0.0,0.0,0.0,0.0,0.0,0.0,0.0,0.0,0.0,0.0,0.0,0.0,0.0,0.0,0.0,0.0,0.0,0.0,-3.9491,-3.8658,0.0,0.0,0.0,0.0,-3.8891,-3.8868,-3.912,-3.9675,-3.9606,-3.989,-4.0728,-4.0583,-4.0551,-4.0585,-4.1937,-4.2654,-4.26,-4.4028,-4.4703,-4.4626,-4.4626,-4.4626,-4.4626,-4.457,-4.4587,-4.4519,-4.3707,-4.3369,-4.3284,-4.2523,-4.2236,-4.2236,-4.2236,-4.2236,-4.2236,-4.2286,-4.2286,-4.2286,-4.2286,-4.2286,-4.2286,-4.2252,-4.2236,0.0,0.0,-4.2811,-4.3369,-4.3403,-4.3961,-4.4536,-4.457,-4.4587,-4.4587,-4.4587,-4.4587,-4.457,0.0,-4.4259,-4.3762,-4.3059,0.0,-4.328,-4.2618,-4.3115,-4.3578,-4.3628,-4.3628,-4.3628,-4.3628,-4.3628,-4.3628,-4.3628,-4.3628,-4.3628,-4.3628,-4.3628,-4.3628,-4.3628,-4.3595,-4.3306,-4.2798,-4.2715,0.0,0.0,0.0,0.0,0.0,0.0,0.0,0.0,0.0,0.0,0.0,0.0,0.0,0.0,0.0,0.0,0.0,0.0,0.0,0.0,0.0,0.0,0.0,0.0,0.0,0.0,0.0,0.0,-3.9914,-3.9405,0.0,-3.9567,-3.9048,-3.8719,-3.8755,-3.8997,-3.9191,-3.9324,-3.9771,-4.0114,-4.032,-4.0337,-4.0576,-4.0951,-4.1953,-4.2647,-4.3085,-4.419,-4.4626,-4.4587,-4.4587,-4.4587,-4.4587,-4.4587,-4.4587,-4.4553,-4.4282,-4.4164,-4.4079,-4.3318,-4.3014,-4.3014,-4.3014,-4.3014,-4.3081,-4.3589,-4.3758,-4.3758,-4.3758,-4.342,-4.3115,-4.3606,-4.342,-4.3115,-4.3623,-4.3961,-4.4164,-4.4164,-4.4367,-4.4587,-4.4587,-4.4587,-4.4587,-4.4587,-4.4587,-4.4587,-4.4587,-4.4384,-4.4112,-4.3746,-4.3756,-4.3663,-4.328,-4.3446,-4.3628,-4.3628,-4.3628,-4.3628,-4.3628,-4.3628,-4.3628,-4.3628,-4.3628,-4.3645,-4.3763,-4.3763,-4.3822,-4.3923,-4.3923,-4.3864,-4.3655,-4.3243,-4.2853,0.0,0.0,0.0,0.0,0.0,0.0,0.0,0.0,0.0,0.0,0.0,0.0,0.0,0.0,0.0,0.0,0.0,0.0,0.0,0.0,0.0,0.0,0.0,0.0,0.0,-3.9418,-3.9518,-4.0354,-3.9895,-3.9605,-3.9904,-3.9469,-3.9168,-3.9123,-3.9412,-3.9474,-3.9326,-3.9817,-4.0087,-4.0037,-4.0104,-4.0392,-4.0815,-4.1559,-4.2303,-4.3047,-4.3809,-4.4333,-4.4587,-4.4587,-4.4587,-4.4587,-4.4587,-4.4587,-4.4587,-4.4587,-4.4587,-4.4536,-4.4012,-4.3809,-4.3809,-4.3809,-4.3809,-4.3876,-4.4401,-4.4587,-4.4587,-4.4587,-4.4231,-4.391,-4.4418,-4.4215,-4.3927,-4.4434,-4.4587,-4.4587,-4.4587,-4.4587,-4.4587,-4.4587,-4.4587,-4.4587,-4.4587,-4.4587,-4.4587,-4.4587,-4.444,-4.4253,-4.4196,-4.4056,-4.3939,-4.3805,-4.3747,-4.3747,-4.3747,-4.3747,-4.3747,-4.3747,-4.3747,-4.3747,-4.3747,-4.3747,-4.3805,-4.3956,-4.3956,-4.3998,-4.4097,-4.4097,-4.4097,-4.4155,-4.3586,-4.3271,-4.3255,0.0,0.0,0.0,0.0,0.0,0.0,0.0,0.0,0.0,0.0,0.0,0.0,0.0,0.0,0.0,0.0,0.0,0.0,0.0,0.0,0.0,0.0,0.0,-3.9626,-3.9317,-3.9512,-4.077,-3.9999,-3.9783,-4.0886,-4.0227,-3.9825,-4.007,-4.007,-3.9969,-3.9729,-3.9677,-3.9729,-3.9901,-3.9901,-3.9935,-4.007,-4.0832,-4.1576,-4.2303,-4.3064,-4.3826,-4.4587,-4.4587,-4.4587,-4.4587,-4.4587,-4.4587,-4.4587,-4.4587,-4.4587,-4.4587,-4.4587,-4.4587,-4.4587,-4.4587,-4.4587,-4.4587,-4.4587,-4.4587,-4.4587,-4.4587,-4.4587,-4.4587,-4.4587,-4.4587,-4.4587,-4.4587,-4.4587,-4.4587,-4.4587,-4.4587,-4.4587,-4.4587,-4.4587,-4.4587,-4.4587,-4.4587,-4.4587,-4.4587,-4.444,-4.431,-4.431,-4.4196,-4.4097,-4.4097,-4.4097,0.0,-4.4097,-4.4097,-4.4097,-4.4097,-4.4097,-4.4097,-4.4097,-4.4097,-4.4097,-4.4097,-4.4097,-4.4097,-4.4114,-4.4114,-4.4155,-4.431,-4.3715,-4.3453,-4.342,0.0,0.0,0.0,0.0,0.0,0.0,0.0,0.0,0.0,0.0,0.0,0.0,0.0,0.0,0.0,0.0,0.0,0.0,0.0,0.0,0.0,-3.9685,-3.9722,-3.9987,-4.0229,-4.0646,-4.1339,-4.0936,-4.0718,-4.0931,-4.0443,-4.0116,-4.0104,-3.9935,-3.9729,-3.9537,-3.9537,-3.9642,-3.9729,-3.9849,-3.9935,-4.007,-4.0832,-4.1576,-4.2303,-4.3064,-4.3826,-4.4587,-4.4587,-4.4587,-4.4587,-4.4587,-4.4587,-4.4587,-4.4587,-4.4587,-4.4587,-4.4587,-4.4587,-4.4587,-4.4587,-4.4587,-4.4587,-4.4587,-4.4587,-4.4587,-4.4587,-4.4587,-4.4587,-4.4587,-4.4587,-4.4587,-4.4587,-4.4587,-4.4587,-4.4587,-4.4587,-4.4587,-4.4587,-4.4587,-4.4587,-4.4587,-4.4587,-4.4587,-4.4587,-4.457,-4.444,-4.431,-4.4253,-4.4196,-4.4097,-4.4097,-4.4097,-4.4097,-4.4097,-4.4097,-4.4097,-4.4097,-4.4097,-4.4097,-4.4097,-4.4155,-4.4253,-4.4253,-4.4327,-4.4457,-4.4457,-4.4457,-4.4514,-4.4367,-4.3978,0.0,0.0,0.0,0.0,0.0,0.0,0.0,0.0,0.0,0.0,0.0,0.0,0.0,0.0,0.0,0.0,0.0,0.0,0.0,0.0,0.0,0.0,-3.9995,-4.013,-4.0518,-4.0726,-4.1007,-4.1455,-4.1215,-4.0935,-4.0728,-4.0485,-4.0188,-3.9918,-3.9781,-3.9625,-3.9448,-3.9448,-3.9537,-3.9677,-3.9833,-3.9935,-4.007,-4.051,-4.1255,-4.2303,-4.2726,-4.3521,-4.4587,-4.4587,-4.4587,-4.4587,-4.4587,-4.4587,-4.4587,-4.4587,-4.4587,0.0,0.0,0.0,0.0,0.0,-4.4587,-4.4587,-4.4587,-4.4587,-4.4587,-4.4587,-4.4587,-4.4587,-4.4587,-4.4587,-4.4587,-4.4587,-4.4587,-4.4587,-4.4587,-4.4587,-4.4587,-4.4587,-4.4587,-4.4587,-4.4587,-4.4587,-4.4587,-4.4587,-4.4587,0.0,-4.444,-4.444,-4.4384,-4.4327,-4.4344,-4.4344,-4.4344,-4.4344,-4.4344,-4.4344,-4.4344,-4.4344,-4.4344,-4.4344,0.0,0.0,0.0,-4.4497,-4.4587,-4.4587,0.0,0.0,0.0,-4.435,-4.391,0.0,0.0,0.0,-4.2912,-4.2997,0.0,0.0,0.0,0.0,0.0,0.0,0.0,0.0,0.0,0.0,0.0,0.0,0.0,0.0,0.0,0.0,-4.032,-4.078,-4.1167,-4.0973,-4.0926,-4.1338,-4.1059,-4.0776,-4.0534,-4.0387,-4.0138,-3.9729,-3.9729,-3.9625,-3.9379,-3.9432,0.0,0.0,0.0,-3.9935,-4.007,-4.0155,-4.0899,-4.2286,-4.2371,-4.3183,-4.4587,-4.4587,-4.4587,-4.4587,-4.4587,-4.4587,-4.4587,-4.4587,-4.4587,-4.4587,-4.4587,-4.4587,-4.4587,-4.4587,-4.4587,-4.4587,-4.4587,0.0,0.0,-4.4587,-4.4587,-4.4587,-4.4587,-4.4587,-4.4587,-4.4587,-4.4587,-4.4587,-4.4587,-4.4587,-4.4587,-4.4587,-4.4587,-4.4587,-4.4587,-4.4587,-4.4587,-4.4587,-4.4587,-4.4587,-4.4587,-4.4587,-4.4587,-4.4587,-4.4587,-4.4587,-4.4587,-4.4587,-4.4587,-4.4587,0.0,0.0,-4.4587,-4.4587,-4.4587,-4.4587,-4.4587,-4.4587,-4.4587,-4.4587,-4.4587,-4.4587,-4.4587,-4.4587,-4.4587,-4.4587,-4.4587,-4.4553,-4.3876,-4.3555,0.0,0.0,0.0,0.0,0.0,0.0,0.0,0.0,0.0,0.0,0.0,0.0,0.0,0.0,0.0,-4.0666,-4.1158,-4.1611,-4.2029,-4.1722,-4.1385,-4.1237,-4.0965,-4.0697,-4.0534,-4.0288,-4.0037,-3.9901,-3.9849,-3.9781,-3.9625,-3.9625,-3.9729,-3.9849,-3.9901,-3.9935,-4.007,-4.0679,-4.1424,-4.2303,0.0,0.0,-4.4587,-4.4587,-4.4587,-4.4587,-4.4587,-4.4587,-4.4587,-4.4587,-4.4587,-4.4587,-4.4587,-4.4587,-4.4587,-4.4587,-4.4587,-4.4587,-4.4587,-4.4587,-4.4587,-4.4587,-4.4587,-4.4587,-4.4587,-4.4587,0.0,-4.4587,-4.4587,-4.4587,-4.4587,-4.4587,-4.4587,-4.4587,-4.4587,-4.4587,-4.4587,-4.4587,-4.4587,-4.4587,-4.4587,-4.4587,-4.4587,-4.4587,-4.4587,-4.4587,-4.4587,-4.4587,-4.4587,-4.4587,-4.4587,-4.4587,-4.4587,-4.4587,-4.4587,-4.4587,-4.4587,-4.4587,-4.4587,-4.4587,-4.4587,-4.4587,-4.4587,-4.4587,-4.4587,-4.4587,-4.4587,-4.4587,-4.4587,-4.4587,-4.4418,-4.435,0.0,0.0,0.0,0.0,0.0,0.0,0.0,0.0,0.0,0.0,0.0,-3.9698,-3.9502,0.0,-4.107,-4.1566,-4.1667,-4.1845,-4.2244,-4.1909,-4.1498,-4.1255,-4.0901,-4.0648,-4.0534,-4.0337,-4.0138,-3.9901,-3.9901,-3.9849,-3.9729,-3.9781,-3.9833,-3.9901,-3.9952,-4.0223,-4.0646,-4.1018,-4.1762,-4.2861,-4.3234,-4.3826,-4.4587,-4.4587,-4.4587,-4.4587,-4.4587,-4.4587,-4.4587,-4.4587,-4.4587,-4.4587,-4.4587,-4.4587,-4.4587,-4.4587,-4.4587,-4.4587,-4.4587,-4.4587,-4.4587,-4.4587,-4.4587,-4.4587,-4.4587,-4.4587,-4.4587,-4.4587,-4.4587,-4.4587,-4.4587,-4.4587,-4.4587,-4.4587,-4.4587,-4.4587,-4.4587,-4.4587,-4.4587,-4.4587,-4.4587,-4.4587,-4.4587,-4.4587,-4.4587,-4.4587,-4.4587,-4.4587,-4.4587,-4.4587,-4.4587,-4.4587,-4.4587,-4.4587,-4.4587,-4.4587,-4.4587,-4.4587,-4.4587,-4.4587,-4.4587,-4.4587,-4.4587,-4.4587,-4.4587,-4.4587,-4.4587,-4.4587,-4.4587,-4.4587,-4.4587,-4.4587,0.0,0.0,0.0,0.0,0.0,0.0,0.0,0.0,-3.9489,-3.9469,-4.0397,-4.1167,-4.0963,-4.1418,-4.1915,-4.2261,-4.2103,-4.2026,-4.2279,-4.1909,-4.1542,-4.1255,-4.0901,-4.0648,-4.0534,-4.0387,-4.0205,-3.9952,-3.9952,-3.9884,-3.9781,-3.9884,-3.9952,-3.9952,-4.0037,-4.0443,-4.1204,-4.1339,-4.2083,-4.342,-4.3572,-4.3978,-4.4587,-4.4587,-4.4587,-4.4587,-4.4626,-4.4626,-4.4626,-4.4682,-4.4682,-4.4682,-4.4682,-4.4682,-4.4682,-4.4626,-4.4626,-4.4682,-4.4682,-4.4682,-4.4682,-4.4682,-4.4682,-4.4682,-4.4682,-4.4682,-4.4682,-4.4682,-4.4682,-4.4682,-4.4682,-4.4682,-4.4682,-4.4682,-4.4682,-4.4682,-4.4682,-4.4682,-4.4682,-4.4626,-4.4626,-4.4626,-4.457,-4.4587,-4.4587,-4.4587,-4.4587,-4.4587,-4.4587,-4.4587,-4.4587,-4.4587,-4.4587,-4.4587,-4.4587,-4.4587,-4.4587,-4.4587,-4.4587,-4.4587,-4.4587,-4.4587,-4.4587,-4.4587,-4.4587,-4.4587,-4.4587,-4.4587,-4.4587,-4.4587,-4.4587,-4.4587,-3.7636,-3.7318,-3.7579,-3.9143,-3.9442,-3.9719,0.0,0.0,-4.1474,-4.2042,-4.2105,-4.2002,-4.1815,-4.2199,-4.2538,-4.232,-4.2559,-4.2639,-4.2351,-4.1995,-4.1631,-4.1255,-4.0901,-4.0648,-4.0534,-4.0387,-4.0255,-4.0087,-4.0087,-4.007,-4.0087,-4.0087,-4.0087,-4.0087,-4.007,-4.0443,-4.1204,-4.1847,-4.2591,-4.342,-4.4113,-4.4485,-4.4587,-4.4587,-4.4587,-4.4643,-4.4737,-4.4776,-4.4793,-4.4886,-4.494,-4.494,-4.494,-4.494,-4.4923,-4.4831,-4.4831,-4.494,-4.494,-4.494,-4.494,-4.494,-4.494,-4.494,-4.494,-4.494,-4.494,-4.494,-4.494,-4.494,-4.494,-4.494,-4.494,-4.494,-4.494,-4.494,-4.494,-4.494,-4.494,-4.4776,-4.4776,-4.4737,-4.4626,-4.4587,-4.4587,-4.4587,-4.4587,-4.4587,-4.4587,-4.4587,-4.4587,-4.4587,-4.4587,-4.4587,-4.4587,-4.4587,-4.4587,-4.4587,-4.4587,-4.4587,-4.4587,-4.4587,-4.4587,-4.4587,-4.4587,-4.4587,-4.4587,-4.4587,-4.4587,-4.4587,-4.4587,-4.4587,-3.7949,-3.7985,-3.8472,-4.0614,-4.1082,-4.1308,-4.2414,-4.2533,-4.2482,-4.268,-4.2911,-4.3023,-4.2799,-4.3203,-4.3466,-4.3166,-4.3031,-4.2844,-4.2512,-4.2079,-4.1692,-4.1363,-4.1076,-4.084,-4.0648,-4.0551,-4.0436,-4.0238,-4.0188,-4.0188,-4.0121,-4.007,-4.007,-4.007,-4.051,-4.1085,-4.183,-4.2574,-4.3335,-4.4096,-4.4418,-4.4626,-4.4737,-4.4737,-4.4776,-4.4831,-4.4886,-4.494,-4.494,-4.4995,-4.4978,-4.4978,-4.4978,-4.5032,-4.5086,-4.4995,-4.4923,-4.4978,-4.4978,-4.4978,-4.4978,-4.4978,-4.4978,-4.4978,-4.4978,-4.4978,-4.4978,-4.4978,-4.4978,-4.4978,-4.4978,-4.4978,-4.4978,-4.4978,-4.4978,-4.4978,-4.4978,-4.4978,-4.4978,-4.494,-4.494,-4.4886,-4.4831,-4.4831,-4.4831,-4.4831,-4.4682,-4.4587,-4.4587,-4.4587,-4.4587,-4.4587,-4.4587,-4.4587,-4.4587,-4.4587,-4.4587,-4.4587,-4.4587,-4.4587,-4.4587,-4.4587,-4.4587,-4.4587,-4.4587,-4.4587,-4.4587,-4.4587,-4.4587,-4.4587,-4.4587,-4.4587,-3.8261,-3.868,-3.9408,-4.1682,-4.2196,-4.2392,-4.3382,-4.3511,-4.3445,-4.3539,-4.3671,-4.3722,-4.3485,-4.3501,-4.3524,-4.3407,-4.3008,-4.2684,-4.2613,-4.2205,-4.178,-4.1471,-4.1244,-4.1029,-4.084,-4.0745,-4.06,-4.0387,-4.0355,-4.0288,-4.0238,-4.0221,-4.0221,-4.0221,-4.09,-4.1646,-4.2392,-4.3155,-4.3919,-4.4737,-4.4737,-4.4776,-4.4831,-4.4831,-4.494,-4.4978,-4.5032,-4.5032,-4.5032,-4.5086,-4.5086,-4.5086,-4.5086,-4.514,-4.5247,-4.5157,-4.5086,-4.5086,-4.5086,-4.5086,-4.5086,-4.5086,-4.5086,-4.5086,-4.5086,-4.5086,-4.5086,-4.5086,-4.5086,-4.5086,-4.5086,-4.5086,-4.5086,-4.5086,-4.5086,-4.5086,-4.5086,-4.5086,-4.5086,-4.5086,-4.5032,-4.5032,-4.4978,-4.4978,-4.4978,-4.4978,-4.4831,-4.4737,-4.4737,-4.4737,-4.4737,-4.4737,-4.4737,-4.4682,-4.4682,-4.4626,-4.4626,-4.4587,-4.4587,-4.4587,-4.4587,-4.4587,-4.4587,-4.4587,-4.4587,-4.4587,-4.4587,-4.4587,-4.4587,-4.4587,-4.4587,-4.4587,0.0,0.0,-4.0176,-4.1949,-4.2286,-4.2624,-4.4275,-4.4544,-4.4635,-4.5276,-4.4672,-4.3916,-4.363,-4.2686,-4.2109,-4.2545,-4.2304,-4.2178,-4.2541,-4.231,-4.1977,-4.1648,-4.1363,-4.118,-4.1093,-4.084,-4.0648,-4.0485,-4.0468,-4.0468,-4.0485,-4.0485,-4.0485,-4.0485,-4.1186,-4.1937,-4.2654,-4.3492,-4.426,-4.4978,-4.4978,-4.4978,-4.4978,-4.4978,-4.4978,-4.4978,-4.514,-4.5177,-4.5177,-4.53,-4.5371,-4.5371,-4.5371,-4.5371,-4.5371,-4.5371,-4.5371,-4.5371,-4.5371,-4.5371,-4.5371,-4.5371,-4.5371,-4.5371,-4.5371,-4.5371,-4.5371,-4.5371,-4.5371,-4.5371,-4.5371,-4.5371,-4.5371,-4.5371,-4.5371,-4.5371,-4.5371,-4.5371,-4.5371,-4.5247,-4.5177,-4.5123,-4.5032,-4.4978,-4.4978,-4.4978,-4.4978,-4.4978,-4.4978,-4.4978,-4.4978,-4.4978,-4.4978,-4.494,-4.4776,-4.4776,-4.4737,-4.4626,-4.4587,-4.4587,-4.4587,-4.4587,-4.4587,-4.4587,-4.4587,-4.4587,-4.4587,-4.4587,-4.4587,-4.4587,-4.4587,-4.4587,0.0,0.0,-4.1069,-4.276,-4.3596,-4.4277,-4.5375,-4.511,-4.4673,-4.4815,-4.4042,-4.3254,-4.2995,-4.2517,-4.2145,-4.2071,-4.2179,-4.2207,-4.2104,-4.2171,-4.2121,-4.178,-4.1408,-4.118,-4.1093,-4.0935,-4.0793,-4.0631,-4.0648,-4.0583,-4.0517,-4.0485,-4.0485,-4.0485,-4.1681,-4.245,-4.2706,-4.397,-4.4739,-4.4978,-4.5086,-4.5123,-4.514,-4.5194,-4.5264,-4.5264,-4.53,-4.53,-4.5318,-4.5371,-4.5423,-4.5423,-4.5423,-4.5423,-4.5423,-4.5423,-4.5423,-4.5423,-4.5423,-4.5423,-4.5423,-4.5423,-4.5423,-4.5423,-4.5423,-4.5423,-4.5423,-4.5423,-4.5423,-4.5423,-4.5423,-4.5423,-4.5423,-4.5528,-4.5528,-4.5581,-4.5632,-4.5684,-4.5667,-4.5615,-4.5615,-4.5563,-4.5563,-4.5511,-4.5511,-4.5511,-4.5247,-4.4978,-4.4978,-4.4978,-4.4978,-4.4978,-4.4978,-4.4978,-4.494,-4.4923,-4.4923,-4.4886,-4.4886,-4.4831,-4.4737,-4.472,-4.4682,-4.4587,-4.4587,-4.4587,-4.4587,-4.4587,-4.4587,-4.4587,-4.4587,-4.4587,0.0,-3.9744,-4.1503,-4.3214,-4.3829,-4.4306,-4.5414,-4.4958,-4.4245,-4.4131,-4.3067,-4.2071,-4.1839,-4.1369,-4.1,-4.0974,-4.1356,-4.1673,-4.1849,-4.1913,-4.1966,-4.1917,-4.1587,-4.1272,-4.1169,-4.1029,-4.0935,-4.0793,-4.0793,-4.0728,-4.0631,-4.0631,-4.0631,-4.0631,-4.2088,-4.2877,-4.2877,-4.4386,-4.514,-4.514,-4.5247,-4.5247,-4.5247,-4.5371,-4.5423,-4.5423,-4.5423,-4.5423,-4.5423,-4.5423,-4.5423,-4.5423,-4.5423,-4.5423,-4.5423,-4.5423,-4.5423,-4.5423,-4.5423,-4.5423,-4.5423,-4.5423,-4.5423,-4.5423,-4.5423,-4.5423,-4.5423,-4.5423,-4.5423,-4.5423,-4.5476,-4.5476,-4.5528,-4.5632,-4.5667,-4.5684,-4.577,-4.5821,-4.5854,-4.5854,-4.5905,-4.5955,-4.5955,-4.5955,-4.5955,-4.5955,-4.5649,-4.5389,-4.53,-4.53,-4.53,-4.53,-4.53,-4.5247,-4.5247,-4.5177,-4.514,-4.5086,-4.5032,-4.4978,-4.4886,-4.4886,-4.4831,-4.472,-4.4682,-4.4682,-4.4682,-4.4626,-4.4587,-4.4587,-4.4587,-4.4587,-3.8436,-3.9784,-4.1565,-4.3222,-4.3058,-4.2873,-4.4481,-4.4086,-4.3345,-4.3291,-4.1777,-4.0444,0.0,0.0,-3.8828,-3.9357,-3.9844,-4.0579,-4.1772,-4.1613,-4.1594,-4.2056,-4.1805,-4.1498,-4.1255,-4.1169,-4.1047,-4.0935,-4.0888,-4.0888,-4.0888,-4.0888,-4.0888,-4.0888,-4.2386,-4.318,-4.3214,-4.4665,-4.5423,-4.5423,-4.5423,-4.5423,-4.5423,-4.5423,-4.5423,-4.5423,-4.5423,-4.5423,-4.5423,-4.5423,-4.5423,-4.5423,-4.5423,-4.5423,-4.5423,-4.5423,-4.5423,-4.5423,-4.5423,-4.5423,-4.5423,-4.5423,-4.5423,-4.5423,-4.5423,-4.5423,-4.5423,-4.5423,-4.5423,-4.5423,-4.5581,-4.5632,-4.5615,-4.577,-4.5838,-4.5821,-4.5821,-4.5955,-4.6038,-4.6038,-4.6137,-4.6235,-4.6235,-4.6235,-4.6235,-4.6235,-4.6235,-4.6137,-4.5871,-4.5821,-4.5821,-4.5821,-4.5821,-4.577,-4.5632,-4.5477,-4.5389,-4.523,-4.514,-4.5032,-4.5032,-4.5032,-4.5032,-4.4978,-4.4886,-4.4831,-4.4831,-4.4682,-4.4626,-4.4626,-4.457,-4.4587,-3.9167,-4.0694,-4.2182,-4.2626,-4.3046,-4.3481,-4.3915,-4.2777,-4.1641,-4.1613,-4.017,-3.8806,-3.858,-3.8221,-3.8137,-3.8671,-3.9137,-3.9896,-4.1082,-4.1379,-4.1654,-4.2056,0.0,-4.1498,-4.1255,-4.1169,-4.1047,0.0,-4.0888,-4.0888,-4.0888,-4.0888,-4.0888,-4.0888,-4.1785,-4.2578,-4.3214,-4.4665,-4.5423,-4.5423,-4.5423,-4.5423,-4.5423,-4.5423,-4.5423,-4.5423,-4.5423,-4.5423,-4.5423,-4.5423,-4.5423,-4.5423,-4.5423,-4.5423,-4.5423,-4.5423,-4.5423,-4.5423,-4.5423,-4.5423,-4.5423,-4.5423,-4.5423,-4.5423,-4.5423,-4.5423,-4.5423,-4.5528,-4.5581,-4.5581,-4.5718,-4.5718,-4.577,-4.5922,-4.6023,-4.6154,-4.6253,-4.635,-4.6447,-4.6447,-4.6542,-4.6637,-4.6637,-4.6731,-4.6795,-4.6795,-4.6795,-4.6637,-4.6154,-4.6105,-4.6105,-4.6105,-4.6105,-4.6038,-4.5887,-4.5887,-4.5786,-4.5667,-4.5615,-4.5511,-4.5283,-4.5283,-4.5177,-4.4978,-4.4995,-4.4923,-4.4923,-4.4831,-4.4737,-4.4737,-4.4626,-4.4587,-3.9507,-4.0694,-4.1886,-4.2295,-4.2477,-4.2556,-4.2568,-4.1484,-4.0246,-3.9454,-3.8149,-3.7082,-3.6897,-3.6711,-3.6898,-3.7818,-3.8426,-3.9314,-4.0827,-4.1085,-4.1355,0.0,-4.1952,0.0,-4.1255,-4.1198,-4.1076,-4.0935,-4.0888,-4.0888,-4.0888,-4.0888,-4.0888,-4.0888,-4.1595,-4.2526,-4.3647,-4.482,-4.5423,-4.5423,-4.5423,-4.5423,-4.5423,-4.5423,-4.5423,-4.5423,-4.5423,-4.5423,-4.5423,-4.5423,-4.5423,-4.5423,-4.5423,-4.5423,-4.5423,-4.5423,-4.5423,-4.5423,-4.5423,-4.5423,-4.5423,-4.5423,-4.5423,-4.5423,-4.5476,-4.5476,-4.5528,-4.5667,-4.5667,-4.5718,-4.5871,-4.5871,-4.5922,-4.6105,-4.6253,-4.6332,-4.6525,-4.6684,-4.6778,-4.6898,-4.6962,-4.7007,-4.7007,-4.7098,-4.7143,-4.7143,-4.7143,-4.7007,-4.6695,-4.6619,-4.6542,-4.6495,-4.6477,-4.6381,-4.6284,-4.6186,-4.6137,-4.6055,-4.5955,-4.5803,-4.5684,-4.5598,-4.5494,-4.5353,-4.5247,-4.5194,-4.5194,-4.4978,-4.4886,-4.4886,-4.4831,-4.4793,-3.9723,-4.0373,-4.1201,-4.2017,-4.1582,-4.0936,-4.0934,-4.0076,-3.8853,-3.7261,-3.6098,-3.5321,-3.5179,-3.5105,-3.5463,-3.6765,0.0,-3.8678,-4.0517,-4.0693,-4.098,-4.2029,-4.2044,-4.1797,-4.1255,-4.1209,-4.1117,-4.0935,-4.0888,-4.0888,-4.0888,-4.0888,-4.0888,-4.0888,-4.1595,-4.2681,-4.4113,-4.4889,-4.532,-4.5423,-4.5423,-4.5423,-4.5423,-4.5423,-4.5423,-4.5423,-4.5423,-4.5423,-4.5423,-4.5423,-4.5423,-4.5423,-4.5423,-4.5423,-4.5423,-4.5423,-4.5423,-4.5423,-4.5423,-4.5423,-4.5423,-4.5423,-4.5423,-4.5476,-4.5581,-4.5632,-4.5667,-4.577,-4.5821,-4.5871,-4.6023,-4.6073,-4.6122,-4.6398,-4.6429,-4.6542,-4.6795,-4.6934,-4.7116,-4.7276,-4.7363,-4.7363,-4.7345,-4.7389,-4.7389,-4.7389,-4.7389,-4.7389,-4.7389,-4.7187,-4.698,-4.6888,-4.6888,-4.6842,-4.6684,-4.659,-4.6495,-4.6447,-4.6235,-4.6087,-4.6038,-4.5955,-4.5871,-4.5871,-4.5598,-4.5477,-4.5477,-4.523,-4.5086,-4.5032,-4.5032,-4.5032,-4.045,-4.0836,-4.1058,-4.1267,-4.0707,-4.0086,-4.0039,-3.8288,0.0,-3.6187,-3.4782,-3.3594,-3.3465,-3.3865,-3.4461,-3.5192,-3.634,-3.7597,-3.9021,-4.0014,-4.0782,-4.126,-4.1706,-4.1797,-4.1255,-4.1209,-4.1117,-4.0935,-4.0888,-4.0888,-4.0888,-4.0888,-4.0888,-4.0888,-4.1595,-4.244,-4.3404,-4.4096,-4.4803,-4.5423,-4.5423,-4.5423,-4.5423,-4.5423,-4.5423,-4.5423,-4.5423,0.0,-4.5423,-4.5423,-4.5423,-4.5423,-4.5423,-4.5423,-4.5423,-4.5423,-4.5423,-4.5423,-4.5528,-4.5581,-4.5581,-4.5581,-4.5581,-4.5581,-4.5718,-4.5787,-4.577,-4.5922,-4.6073,-4.6137,-4.6301,-4.6398,-4.6495,-4.6542,-4.6731,-4.6888,-4.6952,-4.7098,-4.7276,-4.7468,-4.7554,-4.7639,-4.771,-4.7811,-4.787,-4.787,-4.787,-4.787,-4.787,-4.7518,-4.7232,-4.7232,-4.7214,-4.7187,-4.7088,-4.7088,-4.6998,-4.6731,-4.6684,-4.6542,-4.6332,-4.6284,-4.6235,-4.6137,-4.5988,-4.5887,-4.5887,-4.5632,-4.5441,-4.5336,-4.5247,-4.5086,-4.0654,-4.096,-4.0953,-4.0535,-4.0164,-3.9543,-3.8144,0.0,0.0,-3.4169,-3.3154,-3.248,-3.2345,-3.2539,-3.3184,-3.4717,-3.5725,-3.692,-3.8559,-3.9497,-4.0275,-4.1028,-4.1245,-4.1339,-4.122,-4.1209,-4.1117,-4.0935,-4.0888,-4.0888,-4.0888,-4.0888,-4.0888,-4.0888,-4.1595,-4.2164,-4.2543,-4.3699,-4.4458,-4.4837,-4.5234,-4.5423,-4.5423,-4.5423,-4.5423,-4.5423,-4.5423,-4.5423,-4.5423,-4.5423,-4.5423,-4.5423,-4.5423,-4.5423,-4.5528,-4.5528,-4.5581,-4.5632,-4.5667,-4.5718,-4.5736,-4.5787,-4.577,-4.5718,-4.5871,-4.5972,-4.6055,-4.6154,-4.6301,-4.6429,-4.659,-4.6637,-4.6731,-4.6888,-4.707,-4.7294,-4.7356,-4.7486,-4.7639,-4.7747,-4.7806,-4.7888,-4.7893,-4.7951,-4.7992,-4.7992,-4.7992,-4.7992,-4.7992,-4.7811,-4.7621,-4.7511,-4.7468,-4.7363,-4.7249,-4.7249,-4.7205,-4.7053,-4.7025,-4.6934,-4.6842,-4.6731,-4.6637,-4.6525,-4.6381,-4.6284,-4.6186,-4.5938,-4.5786,-4.5684,-4.5546,-4.5459,-4.0193,-4.0448,-4.0374,-3.9697,-3.9429,-3.8769,-3.6503,-3.5678,0.0,-3.2238,-3.1513,-3.131,-3.1176,-3.1188,-3.1928,0.0,-3.5049,-3.616,-3.8024,-3.8802,-3.955,-4.0492,-4.0694,-4.0845,-4.0958,-4.1122,-4.1117,-4.0935,-4.0888,-4.0888,-4.0888,-4.0888,-4.0888,-4.0888,-4.144,-4.1819,-4.1992,-4.3182,-4.3958,-4.4285,-4.4889,-4.5268,-4.5423,-4.5423,-4.5423,-4.5423,-4.5423,-4.5423,-4.5423,-4.5423,-4.5423,-4.5423,-4.5423,-4.5528,-4.5615,-4.5632,-4.5718,-4.5821,-4.5821,-4.5871,-4.5922,-4.6073,-4.6023,-4.5922,-4.6073,-4.6204,-4.6332,-4.6447,-4.659,-4.6749,-4.6842,-4.6888,-4.6962,-4.7223,-4.7443,-4.7597,-4.7741,-4.7842,-4.7966,-4.801,-4.8032,-4.805,-4.8072,-4.8072,-4.8072,-4.8072,-4.8072,-4.8072,-4.8072,-4.8032,-4.797,-4.7824,-4.7681,-4.7578,-4.7432,-4.7432,-4.7432,-4.7407,-4.7356,-4.7267,-4.7223,-4.7116,-4.7025,-4.6916,-4.6778,-4.6684,-4.6542,-4.6284,-4.6137,-4.6087,-4.5955,-4.5922,-3.8676,-3.8725,-3.8722,-3.8638,-3.8073,-3.7266,-3.6246,0.0,-3.3103,-3.1207,-3.0134,-2.95,-2.937,-2.9889,0.0,0.0,0.0,-3.5062,-3.6353,-3.7557,-3.8468,-3.8881,-4.002,-4.0651,-4.0217,-4.0826,-4.1117,-4.0935,-4.0888,-4.0888,-4.0888,-4.0888,-4.0888,-4.0888,-4.0957,-4.1302,-4.1974,-4.213,-4.2888,-4.4285,-4.4354,-4.4751,-4.5423,-4.5423,-4.5423,-4.5423,-4.5423,-4.5423,0.0,-4.5423,-4.5423,-4.5423,-4.5528,-4.5581,-4.5615,-4.5736,-4.577,-4.5838,-4.5922,-4.6055,-4.6186,-4.6332,-4.6284,-4.6186,-4.6332,-4.6447,-4.659,-4.6749,-4.6842,-4.698,-4.7133,-4.7205,-4.732,-4.7572,-4.7675,-4.7741,-4.7929,-4.7992,-4.805,-4.8148,-4.8187,-4.8226,-4.8267,-4.8267,-4.8267,-4.8267,-4.8267,-4.8267,-4.8267,-4.8208,-4.8187,-4.8148,-4.805,-4.7951,-4.7951,-4.7951,-4.7888,-4.7657,-4.7675,-4.7554,-4.732,-4.7276,-4.7276,-4.7258,-4.716,-4.7088,-4.6934,-4.6795,-4.659,-4.6381,-4.635,-4.6186,-3.8201,-3.8497,-3.8389,-3.7904,-3.7144,-3.6151,-3.4758,0.0,-3.1421,-3.0121,-2.9109,-2.8579,-2.8964,-2.9212,-2.984,0.0,0.0,0.0,-3.4768,-3.6352,-3.76,-3.7952,-3.8812,-3.9535,-4.0026,-4.0391,-4.0665,-4.0884,-4.0888,-4.0888,-4.0888,-4.0888,-4.0888,-4.0888,-4.0888,-4.1026,-4.1319,-4.1767,-4.2302,-4.2906,-4.3837,-4.444,-4.4751,-4.5216,-4.5423,-4.5423,-4.5423,-4.5423,0.0,-4.5423,-4.5476,-4.5528,-4.5581,-4.5718,-4.5871,-4.6005,-4.6105,-4.6204,-4.6301,-4.6398,-4.6477,-4.659,-4.6637,-4.6684,-4.6637,-4.6731,-4.6888,-4.698,-4.7178,-4.7338,-4.7443,-4.7597,-4.7747,-4.7847,-4.7888,-4.7929,-4.8108,-4.813,-4.813,-4.8247,-4.8247,-4.8286,-4.8306,-4.8306,-4.8306,-4.8306,-4.8306,-4.8306,-4.8306,-4.8286,-4.8247,-4.8247,-4.8111,-4.7992,-4.7992,-4.7992,-4.7951,-4.7888,-4.7888,-4.7829,-4.7747,-4.7681,-4.7615,-4.7554,-4.7443,-4.7294,-4.7187,-4.7025,-4.6888,-4.6749,-4.659,-4.6477,-3.6976,-3.7187,-3.6916,-3.6615,-3.5878,-3.4847,0.0,0.0,-3.0354,-2.9171,-2.8171,-2.7729,-2.8459,-2.8488,-2.8954,0.0,0.0,-3.298,-3.3705,-3.5417,-3.6721,-3.7113,-3.7887,-3.876,-3.9643,-4.0092,-4.0487,-4.0884,-4.0888,-4.0888,-4.0888,-4.0888,-4.0888,-4.0888,-4.0888,-4.0888,-4.0888,-4.1405,-4.1767,-4.1992,-4.3078,-4.3716,-4.3958,-4.4509,-4.4768,-4.4768,-4.4992,-4.5096,0.0,-4.5372,-4.5528,-4.5667,-4.5718,-4.5871,-4.6073,-4.6204,-4.6381,-4.6542,-4.6637,-4.6684,-4.6795,-4.6916,-4.7025,-4.716,-4.7098,-4.7098,-4.7178,-4.7312,-4.7468,-4.7681,-4.7765,-4.7888,-4.7992,-4.805,-4.805,-4.809,-4.8208,-4.8226,-4.8247,-4.8267,-4.8306,-4.8306,-4.8306,-4.8306,-4.8306,-4.8306,-4.8306,-4.8306,-4.8306,-4.8306,-4.8306,-4.8306,-4.819,-4.8072,-4.8072,-4.8072,-4.8072,-4.805,-4.805,-4.8032,-4.7992,-4.7925,-4.7861,-4.7759,-4.7615,-4.7511,-4.7363,-4.7205,-4.7133,-4.7043,-4.6888,-4.6731,-3.4508,-3.4101,-3.3651,-3.451,-3.4078,-3.3181,0.0,0.0,-3.0185,-2.8377,-2.7276,-2.682,-2.7491,-2.7509,-2.8161,-3.0432,-3.1269,0.0,-3.3424,-3.4764,-3.5795,-3.6275,-3.7547,-3.8531,-3.886,-4.0112,-4.0871,-4.0888,-4.0888,-4.0888,-4.0888,-4.0888,-4.0888,-4.0888,-4.0888,-4.0888,-4.0888,-4.0888,-4.1267,-4.1992,-4.2009,-4.2423,-4.3232,-4.3249,-4.3249,-4.3283,-4.3958,-4.4388,0.0,-4.5303,-4.5684,-4.5821,-4.5922,-4.6055,-4.6235,-4.6332,-4.659,-4.6795,-4.6795,-4.698,-4.7178,-4.7276,-4.7407,-4.7536,-4.771,-4.7645,-4.7511,-4.7657,-4.7847,-4.7992,-4.7992,-4.7992,-4.8032,-4.8148,-4.8187,-4.8226,-4.8267,-4.8306,-4.8306,-4.8306,-4.8306,-4.8306,-4.8306,-4.8306,-4.8306,-4.8306,-4.8306,-4.8306,-4.8306,-4.8306,-4.8306,-4.8306,-4.8306,-4.8306,-4.8306,-4.8306,-4.8286,-4.8187,-4.8187,-4.8148,-4.7992,-4.7925,-4.7902,-4.7902,-4.7759,-4.7615,-4.7511,-4.7511,-4.7381,-4.7196,-4.7196,-4.7043,-3.3571,-3.3605,-3.3461,-3.37,-3.3101,-3.2207,-3.1254,0.0,-2.8451,-2.7229,-2.62,-2.5888,-2.7163,-2.728,-2.7751,-2.9488,-3.0742,0.0,0.0,-3.3533,-3.4888,-3.5403,-3.696,-3.8196,-3.8764,-3.9582,-4.0302,-4.0836,-4.0888,-4.0888,-4.0888,-4.0888,-4.0888,-4.0888,-4.0888,-4.0888,-4.0888,-4.0888,-4.0991,-4.1233,-4.175,-4.2112,-4.2388,-4.2973,-4.3214,-4.3232,-4.3506,-4.3642,-4.3709,-4.4051,-4.4237,-4.4401,-4.4498,-4.4975,-4.564,-4.5904,-4.6379,-4.698,-4.7205,-4.7338,-4.7425,-4.7603,-4.7669,-4.7728,-4.7893,-4.7811,-4.7728,-4.7988,-4.8108,-4.813,-4.819,-4.819,-4.8229,-4.8247,-4.8286,-4.8267,-4.8306,-4.8306,-4.8306,-4.8306,-4.8306,-4.8306,-4.8306,-4.8306,-4.8306,-4.8306,-4.8306,-4.8306,-4.8306,-4.8306,-4.8306,-4.8306,-4.8306,-4.8306,-4.8306,-4.8306,-4.8267,-4.8286,-4.8286,-4.8229,-4.819,-4.805,-4.797,-4.797,-4.7783,-4.7657,-4.7615,-4.7554,-4.7425,-4.7294,-4.7223,-4.7133,0.0,-3.2374,-3.243,-3.2675,-3.1833,0.0,0.0,0.0,0.0,0.0,0.0,-2.5399,-2.6911,-2.7079,-2.7456,-2.8907,-3.0386,-3.1269,-3.0957,-3.2811,-3.4505,-3.5279,-3.6741,-3.8026,-3.872,-3.9375,-4.0026,-4.0819,-4.0888,-4.0888,-4.0888,-4.0888,-4.0888,-4.0888,-4.0888,-4.0888,-4.0888,-4.0888,-4.0888,-4.0888,-4.1354,-4.1561,-4.1578,-4.2144,-4.2417,-4.2434,-4.2791,-4.301,0.0,-4.3498,-4.3715,-4.3857,-4.4014,-4.4498,-4.506,-4.5356,-4.6032,-4.6845,-4.7102,-4.7428,-4.7806,-4.7933,-4.8035,-4.8114,-4.821,-4.8093,-4.7992,-4.8169,-4.8265,-4.8247,-4.8267,-4.8306,-4.8306,-4.8306,-4.8306,-4.8306,-4.8306,-4.8306,-4.8306,-4.8306,-4.8306,-4.8306,-4.8306,-4.8306,-4.8306,-4.8306,-4.8306,-4.8306,-4.8306,-4.8306,-4.8306,-4.8306,-4.8306,-4.8306,-4.8306,-4.8306,-4.8306,-4.8306,-4.8306,-4.8306,-4.8306,-4.8111,-4.7992,-4.7992,-4.7806,-4.7717,-4.7717,-4.7572,-4.7468,-4.7363,-4.7294,-4.7267,0.0,0.0,0.0,0.0,0.0,0.0,0.0,0.0,0.0,0.0,0.0,0.0,-2.6691,-2.6915,-2.729,-2.8631,-3.0108,-3.0975,-3.0646,-3.2634,-3.4516,-3.5636,-3.6806,-3.7871,-3.8676,-3.9278,-3.9974,-4.0819,-4.0888,-4.0888,-4.0888,-4.0888,-4.0888,-4.0888,-4.0888,-4.0888,-4.0888,-4.0888,-4.0888,-4.0888,-4.0888,-4.0871,-4.0935,-4.1047,-4.1093,-4.1128,-4.1963,-4.2399,-4.2608,-4.3419,-4.3827,-4.3994,-4.4183,-4.4395,-4.4578,-4.4791,-4.5503,-4.6472,-4.6612,-4.7281,-4.8153,-4.8288,-4.8458,-4.8587,-4.8587,-4.8438,-4.8226,-4.8324,-4.8306,-4.8306,-4.8306,-4.8306,-4.8306,-4.8306,-4.8306,-4.8306,-4.8306,-4.8306,-4.8306,-4.8306,-4.8306,-4.8306,-4.8306,-4.8306,-4.8306,-4.8306,-4.8306,-4.8306,-4.8306,-4.8306,-4.8306,-4.8306,-4.8306,-4.8306,-4.8306,-4.8306,-4.8306,-4.8306,-4.8306,-4.8306,-4.8306,-4.8111,-4.7992,-4.7992,-4.7806,-4.7717,-4.7717,-4.7554,-4.7511,-4.7511,-4.7363,-4.7302,0.0,0.0,0.0,0.0,-2.9317,-2.8785,0.0,0.0,0.0,0.0,0.0,0.0,0.0,-2.7031,-2.7684,-2.8474,-2.9809,-3.0686,-3.0396,-3.2701,-3.4629,-3.5272,-3.6191,-3.7197,-3.8394,-3.8705,-3.9422,-4.0784,-4.0888,-4.0888,-4.0888,-4.0888,-4.0888,-4.0888,-4.0888,-4.0888,-4.0888,-4.0888,-4.0888,-4.0888,-4.0888,-4.0935,-4.1047,-4.1111,-4.1123,-4.1198,-4.1618,-4.1796,-4.1858,-4.2291,-4.2493,-4.2569,-4.2757,-4.3281,-4.4025,-4.4209,-4.4932,-4.5909,-4.6704,-4.7186,-4.7555,-4.8274,-4.855,-4.8587,-4.8587,-4.8569,-4.8495,-4.8438,-4.8457,-4.8419,-4.8324,-4.8306,-4.8306,-4.8306,-4.8306,-4.8306,-4.8306,-4.8306,-4.8306,-4.8306,-4.8306,-4.8306,-4.8306,-4.8306,-4.8306,-4.8306,-4.8306,-4.8306,-4.8306,-4.8306,-4.8306,-4.8306,-4.8306,-4.8306,-4.8306,-4.8306,-4.8306,-4.8306,-4.8306,-4.8306,-4.8306,-4.8111,-4.7992,-4.7992,-4.7806,-4.7717,-4.7717,-4.7657,-4.7657,-4.7657,-4.7511,-4.745,0.0,-2.7362,-2.8849,-2.8793,-2.8707,-2.8483,-2.7937,0.0,0.0,0.0,0.0,0.0,0.0,-2.7091,-2.7605,-2.8595,-2.9679,-3.0672,-3.1442,-3.3082,-3.4454,-3.5046,-3.5786,-3.6681,-3.7717,-3.8236,-3.9032,-4.022,-4.0681,-4.0888,-4.0888,-4.0888,-4.0888,-4.0888,-4.0888,-4.0888,-4.0888,-4.0888,-4.0888,-4.0888,-4.0935,-4.1047,-4.1093,-4.1186,-4.129,-4.1408,-4.1604,-4.1736,-4.1866,-4.2055,-4.2205,-4.2351,-4.2512,-4.2958,-4.3511,-4.3742,-4.44,-4.5278,-4.5901,-4.6671,-4.7479,-4.8011,-4.8453,-4.875,-4.875,-4.875,-4.8714,-4.8587,-4.8532,-4.8457,-4.8401,-4.8363,-4.8306,-4.8306,-4.8306,-4.8306,-4.8306,-4.8306,-4.8306,-4.8306,-4.8306,-4.8306,-4.8306,-4.8306,-4.8306,-4.8306,-4.8306,-4.8306,-4.8306,-4.8306,-4.8306,-4.8306,-4.8306,-4.8306,-4.8306,-4.8306,-4.8306,-4.8306,-4.8306,-4.8306,-4.8306,-4.8111,-4.7951,-4.7847,-4.7741,-4.7717,-4.7717,-4.7717,-4.7717,-4.7717,-4.7615,-4.7615,-2.5301,-2.6819,-2.8244,-2.8382,-2.8313,-2.8204,-2.8108,0.0,0.0,0.0,0.0,0.0,0.0,-2.7174,0.0,-2.88,-2.9583,-3.0784,-3.2786,-3.351,-3.4144,-3.4976,-3.56,-3.6239,-3.7007,-3.7815,-3.8706,-3.9542,-4.041,-4.0888,-4.0888,-4.0888,-4.0888,-4.0888,-4.0888,-4.0935,-4.0935,-4.0935,-4.0935,-4.0935,-4.1047,-4.1093,-4.114,-4.1335,-4.1515,-4.1648,-4.1823,0.0,-4.2145,-4.2328,-4.249,-4.2688,-4.2862,-4.3031,-4.3196,-4.3428,-4.3954,-4.4614,-4.4934,-4.6086,-4.7432,-4.7482,-4.8054,-4.8723,-4.8723,-4.8797,-4.8855,-4.8695,-4.8587,-4.855,-4.8513,-4.8419,-4.8324,-4.8306,-4.8306,-4.8306,-4.8306,-4.8306,-4.8306,-4.8306,-4.8306,-4.8306,-4.8306,-4.8306,-4.8306,-4.8306,-4.8306,-4.8306,-4.8306,-4.8306,-4.8306,-4.8306,-4.8306,-4.8306,-4.8306,-4.8306,-4.8306,-4.8306,-4.8306,-4.8267,-4.8267,-4.8072,-4.7888,-4.7699,-4.7717,-4.7717,-4.7717,-4.7717,-4.7717,-4.7717,-4.7717,-4.7717,-2.4844,-2.5717,-2.6743,-2.7738,-2.7885,-2.7761,-2.7651,-2.6872,0.0,0.0,0.0,0.0,0.0,-2.7672,-2.8518,-2.856,-2.9524,-3.0991,-3.311,-3.343,-3.3956,-3.5178,-3.5537,-3.5972,-3.6751,-3.7619,-3.8555,-3.9542,-4.0315,-4.0793,-4.0871,-4.0888,-4.0888,-4.0888,-4.0888,-4.0935,-4.1047,-4.0935,-4.0935,-4.1047,-4.1093,-4.1186,-4.1335,-4.1515,-4.1648,-4.178,0.0,-4.2246,-4.2287,-4.2588,-4.2765,-4.2844,-4.3087,-4.3268,-4.3463,-4.3529,-4.3756,-4.4128,-4.4981,-4.5867,-4.668,-4.668,-4.7237,-4.7887,-4.7887,-4.837,-4.8909,-4.8855,-4.8804,-4.8715,-4.8532,-4.8457,-4.8457,-4.8324,-4.8306,-4.8306,-4.8306,-4.8306,-4.8306,-4.8306,-4.8306,-4.8306,-4.8306,-4.8306,-4.8306,-4.8306,-4.8306,-4.8306,-4.8306,-4.8306,-4.8306,-4.8306,-4.8306,-4.8306,-4.8306,-4.8306,-4.8306,-4.8306,-4.8306,-4.8229,-4.8072,-4.7947,-4.7842,-4.7699,-4.7717,-4.7717,-4.7717,-4.7717,-4.7717,-4.7717,-4.7717,-4.7717,-2.4932,-2.544,-2.6009,-2.7394,-2.7879,-2.7972,-2.7759,-2.7334,0.0,0.0,0.0,0.0,0.0,0.0,-2.8509,-2.907,-3.0205,-3.1513,-3.2856,-3.3399,-3.3979,-3.4985,-3.5165,-3.5408,-3.5853,-3.6747,-3.7509,-3.8052,-3.9333,-4.0126,-4.0173,-4.0647,-4.0888,-4.0888,-4.0888,-4.0982,-4.1093,-4.1047,-4.1076,-4.1152,-4.1215,-4.1353,-4.1515,-4.1648,-4.1823,-4.2079,0.0,-4.2432,-4.2631,-4.2786,-4.3013,-4.3232,-4.3339,-4.3497,-4.3686,-4.3734,-4.3846,-4.4016,-4.4469,-4.5138,-4.5844,-4.5844,-4.6401,-4.7051,-4.7051,-4.7608,-4.8259,-4.8259,-4.8505,-4.8751,-4.8587,-4.8532,-4.8457,-4.8306,-4.8306,-4.8306,-4.8306,-4.8306,-4.8306,-4.8306,-4.8306,-4.8306,-4.8306,-4.8306,-4.8306,-4.8306,-4.8306,-4.8306,-4.8306,-4.8306,-4.8306,-4.8306,-4.8306,-4.8306,-4.8306,-4.8306,-4.8267,-4.821,-4.8247,-4.8148,-4.7947,-4.7902,-4.7819,-4.7699,-4.7717,-4.7717,-4.7717,-4.7717,-4.7717,-4.7717,-4.7717,-4.7717,-2.4927,-2.5237,-2.5518,-2.7018,0.0,-2.8053,-2.8012,-2.7947,0.0,0.0,0.0,0.0,0.0,-2.8284,-2.8585,-2.9842,-3.0883,-3.1841,-3.2661,-3.3258,-3.39,-3.4609,-3.4739,-3.4787,-3.4947,-3.5897,-3.6522,-3.6726,-3.8257,-3.9243,-3.9318,-4.0151,-4.0612,-4.0612,-4.0832,-4.0982,-4.1123,-4.1123,-4.1215,-4.1255,-4.1363,-4.1515,-4.1648,-4.1823,-4.2079,-4.2287,-4.2409,-4.2631,-4.292,-4.2995,-4.3214,-4.3532,-4.3566,-4.3701,-4.3851,-4.3897,-4.3961,-4.4005,-4.4005,-4.4432,-4.4989,-4.4989,-4.5547,-4.6215,-4.6215,-4.6773,-4.7423,-4.7423,-4.7834,-4.8305,-4.8586,-4.8587,-4.8476,-4.8363,-4.8306,-4.8306,-4.8306,-4.8306,-4.8306,-4.8306,-4.8306,-4.8306,-4.8306,-4.8306,-4.8306,-4.8306,-4.8306,-4.8306,-4.8306,-4.8306,-4.8306,-4.8306,-4.8306,-4.8306,-4.8306,-4.8306,-4.8229,-4.8075,-4.8111,-4.8087,-4.792,-4.7861,-4.7801,-4.7717,-4.7717,-4.7717,-4.7717,-4.7717,-4.7717,-4.7717,-4.7717,-4.7717,-2.4379,-2.4761,-2.506,-2.6418,-2.7051,0.0,-2.814,-2.8232,0.0,-2.8657,0.0,0.0,0.0,-2.8771,-2.9527,-3.0877,-3.1083,-3.1486,-3.2789,-3.3032,-3.334,-3.407,-3.425,-3.4399,-3.4546,-3.5431,-3.6219,-3.6569,-3.7499,-3.8176,-3.8465,-3.925,-3.9726,-3.9784,-4.0602,-4.1123,-4.1209,-4.1318,-4.138,-4.138,-4.1515,-4.1648,-4.178,-4.2121,-4.2287,-4.2328,-4.2691,-4.2882,-4.292,-4.3304,-4.3479,-4.3513,-4.3767,-4.3929,-4.3974,-4.4005,-4.4005,-4.4005,-4.4005,-4.4042,-4.4098,-4.4098,-4.4674,-4.5379,-4.5379,-4.5955,-4.6587,-4.6587,-4.6624,-4.6981,-4.8433,-4.8697,-4.8569,-4.8494,-4.8401,-4.8306,-4.8306,-4.8306,-4.8306,-4.8306,-4.8306,-4.8306,-4.8306,-4.8306,-4.8306,-4.8306,-4.8306,-4.8306,-4.8306,-4.8306,-4.8306,-4.8306,-4.8306,-4.8306,-4.8306,-4.8306,-4.8229,-4.8032,-4.7992,-4.797,-4.7902,-4.7759,-4.7717,-4.7717,-4.7717,-4.7717,-4.7717,-4.7717,-4.7717,-4.7717,-4.7717,-4.7717,-2.3947,-2.424,-2.4495,-2.5912,-2.6612,0.0,0.0,-2.7967,-2.8223,-2.8339,-2.8252,0.0,0.0,-2.9447,-3.0291,-3.0797,-3.1483,-3.216,-3.2707,-3.3157,-3.3542,-3.3815,-3.3899,-3.4,-3.425,-3.4743,-3.5248,-3.5646,-3.6616,-3.7318,-3.7575,-3.8368,-3.8917,-3.9116,-3.9922,-4.0457,-4.062,-4.1226,-4.1604,-4.1719,-4.1762,-4.1892,-4.2121,-4.2287,-4.2472,-4.267,-4.2806,-4.3032,-4.3304,-4.3444,-4.36,-4.3767,-4.3929,-4.3974,-4.4005,-4.4005,-4.4005,-4.4005,-4.4005,-4.4005,-4.4005,-4.4005,-4.4228,-4.4488,-4.4488,-4.5082,-4.5751,-4.5751,-4.6104,-4.6721,-4.7784,-4.7938,-4.7941,-4.8384,-4.8401,-4.8306,-4.8306,-4.8306,-4.8306,-4.8306,-4.8306,-4.8306,-4.8306,-4.8306,-4.8306,-4.8306,-4.8306,-4.8306,-4.8306,-4.8306,-4.8306,-4.8306,-4.8306,-4.8306,-4.8306,-4.8306,-4.8229,-4.7992,-4.7992,-4.7929,-4.7759,-4.7717,-4.7717,-4.7717,-4.7717,-4.7717,-4.7717,-4.7717,-4.7717,-4.7717,-4.7717,-4.7717,-2.3473,-2.3786,-2.4045,0.0,0.0,0.0,-2.7512,-2.7977,-2.8428,-2.8788,-2.8854,-2.8989,-2.9367,0.0,-3.0831,-3.1055,-3.1801,-3.2415,-3.2637,-3.3149,-3.345,-3.3503,-3.3555,-3.371,-3.3949,-3.425,-3.4594,-3.4994,-3.5853,-3.6463,-3.6761,-3.7552,-3.8126,-3.8425,-3.9215,-3.9747,-3.9983,-4.0893,-4.1453,-4.1647,-4.2003,-4.2251,-4.2409,-4.2512,-4.2709,-4.2956,-4.3013,-4.3232,-4.3479,-4.3566,-4.3734,-4.3929,-4.3974,-4.4005,-4.4005,-4.4005,-4.4005,-4.4005,-4.4005,-4.4005,-4.4005,-4.4005,-4.4005,-4.4005,-4.4005,-4.4413,-4.4878,-4.4878,-4.5287,-4.5867,-4.6635,-4.7087,-4.7499,-4.8016,-4.8217,-4.8306,-4.8306,-4.8306,-4.8306,-4.8306,-4.8306,-4.8306,-4.8306,-4.8306,-4.8306,-4.8306,-4.8306,-4.8306,-4.8306,-4.8306,-4.8306,-4.8306,-4.8306,-4.8306,-4.8306,-4.8267,-4.819,-4.7992,-4.797,-4.7907,-4.7717,-4.7717,-4.7717,-4.7717,-4.7717,-4.7717,-4.7717,-4.7717,-4.7717,-4.7717,-4.7717,-4.7717,-2.3025,-2.3414,-2.3877,0.0,0.0,0.0,-2.7873,-2.8343,-2.8994,-3.0254,-3.0831,-3.1094,-3.1094,-3.1042,0.0,-3.1898,-3.1888,-3.207,-3.2803,-3.2897,-3.2951,-3.3096,-3.3203,-3.3398,-3.3642,-3.405,-3.4448,-3.4851,-3.5152,-3.5503,-3.5975,-3.6693,-3.7237,-3.7594,-3.8503,-3.9093,-3.9305,-4.027,-4.089,-4.1092,-4.216,-4.2634,-4.2609,-4.2824,-4.2994,-4.3104,-4.3323,-4.3446,-4.3532,-4.3719,-4.3883,-4.4005,-4.4005,-4.4005,-4.4005,-4.4005,-4.4005,-4.4005,-4.4005,-4.4005,-4.4005,-4.4005,-4.4005,-4.4005,-4.4005,-4.4005,-4.4005,-4.4005,-4.4005,-4.4159,-4.4911,-4.6218,-4.7368,-4.7316,-4.7812,-4.8306,-4.8306,-4.8306,-4.8306,-4.8306,-4.8306,-4.8306,-4.8306,-4.8306,-4.8306,-4.8306,-4.8306,-4.8306,-4.8306,-4.8306,-4.8306,-4.8306,-4.8306,-4.8306,-4.8306,-4.8265,-4.813,-4.7992,-4.7925,-4.7861,-4.7717,-4.7717,-4.7717,-4.7717,-4.7717,-4.7717,-4.7717,-4.7717,-4.7717,-4.7717,-4.7717,-4.7717,-2.2844,-2.3708,0.0,-2.5652,0.0,0.0,0.0,-2.8889,0.0,0.0,-3.0468,-3.0556,-3.0556,-3.0938,-3.1409,-3.1647,-3.2051,-3.2509,-3.2866,-3.2897,-3.2951,-3.3096,-3.3165,-3.3309,-3.3642,-3.4,-3.4349,-3.4851,-3.5152,-3.5503,-3.5975,-3.6302,-3.6638,-3.695,-3.7871,-3.8438,-3.8579,-3.9642,-4.0271,-4.0446,-4.0943,-4.1722,-4.2824,-4.3013,-4.3178,-4.3323,-4.3428,-4.3584,-4.3719,-4.3865,-4.3974,-4.4005,-4.4005,-4.4005,-4.4005,-4.4005,-4.4005,-4.4005,-4.4005,-4.4005,-4.4005,-4.4005,-4.4005,-4.4005,-4.4005,-4.4005,-4.4005,-4.3961,-4.3929,-4.3952,-4.4011,-4.4791,-4.586,-4.7039,-4.739,-4.7627,-4.8196,-4.8306,-4.8306,-4.8306,-4.8306,-4.8306,-4.8306,-4.8306,-4.8306,-4.8306,-4.8306,-4.8306,-4.8306,-4.8306,-4.8306,-4.8306,-4.8306,-4.8306,-4.8306,-4.8265,-4.813,-4.7992,-4.7925,-4.7861,-4.7717,-4.7717,-4.7717,-4.7717,-4.7717,-4.7717,-4.7717,-4.7717,-4.7717,-4.7717,-4.7717,-4.7717,-2.2639,-2.3723,0.0,-2.5757,-2.6915,-2.8073,-2.9053,0.0,0.0,0.0,-3.0716,-3.0968,-3.0845,-3.1265,-3.1665,-3.1774,-3.2136,-3.2453,-3.2594,-3.2664,-3.2773,-3.3005,-3.3005,-3.3203,-3.3658,-3.3949,-3.43,-3.4851,-3.5182,-3.5532,-3.5975,-3.6148,-3.6377,-3.6702,-3.7323,-3.7734,-3.7948,-3.902,-3.9621,-3.986,-4.0436,-4.1249,-4.2195,-4.2647,-4.31,-4.3481,-4.36,-4.3734,-4.3851,-4.3961,-4.4005,-4.4005,-4.4005,-4.4005,-4.4005,-4.4005,-4.4005,-4.4005,-4.4005,-4.4005,-4.4005,-4.3974,-4.3942,-4.3961,-4.3929,-4.3929,-4.3897,-4.3883,-4.3851,-4.3818,-4.3667,-4.3984,-4.4722,-4.636,-4.693,-4.7333,-4.8141,-4.8306,-4.8306,-4.8306,-4.8306,-4.8306,-4.8306,-4.8306,-4.8306,-4.8306,-4.8306,-4.8306,-4.8306,-4.8306,-4.8306,-4.8306,-4.8306,-4.8306,-4.8306,-4.8208,-4.809,-4.7992,-4.7866,-4.7759,-4.7699,-4.7717,-4.7717,-4.7717,-4.7717,-4.7717,-4.7717,-4.7717,-4.7717,-4.7717,-4.7717,-4.7717,-2.2415,-2.3639,0.0,-2.601,-2.7348,0.0,-3.0173,-3.089,-3.1101,-3.0794,0.0,-3.1868,-3.1682,-3.1811,-3.194,-3.1996,-3.2094,-3.2191,-3.2191,-3.2358,-3.2523,-3.2843,-3.2897,-3.315,-3.3658,-3.3949,-3.4349,-3.4899,-3.5211,-3.556,-3.5975,-3.6216,-3.6444,-3.6742,-3.6908,-3.7164,-3.7411,-3.8402,-3.9013,-3.924,-4.0343,-4.0928,-4.102,-4.186,-4.2684,-4.3539,-4.3721,-4.3841,-4.3897,-4.3974,-4.4005,-4.4005,-4.4005,-4.4005,-4.4005,-4.4005,-4.4005,-4.4005,-4.4005,-4.4005,-4.3974,-4.3929,-4.3915,-4.3883,-4.3837,-4.3804,-4.3804,-4.3804,-4.3771,-4.3753,-4.3615,-4.3582,-4.3968,-4.546,-4.6416,-4.7223,-4.8031,-4.8251,-4.8306,-4.8306,-4.8306,-4.8306,-4.8306,-4.8306,-4.8306,-4.8306,-4.8306,-4.8306,-4.8306,-4.8306,-4.8306,-4.8306,-4.8306,-4.8306,-4.8306,-4.8111,-4.7992,-4.7992,-4.7824,-4.7717,-4.7717,-4.7717,-4.7717,-4.7717,-4.7717,-4.7717,-4.7717,-4.7717,-4.7717,-4.7717,-4.7717,-4.7717,0.0,-2.4138,0.0,0.0,-2.7841,-2.9614,-3.0216,-3.0827,-3.12,-3.1041,-3.1145,-3.1307,-3.1394,-3.1394,-3.1524,-3.1784,-3.194,-3.2094,-3.2191,-3.2413,-3.2648,-3.2843,-3.3112,-3.3398,-3.3813,-3.4101,-3.4497,-3.4994,-3.5258,-3.5605,-3.6122,-3.6335,-3.6609,-3.6908,-3.7164,-3.7411,-3.7631,-3.8077,-3.8422,-3.867,-3.9048,-3.9595,-4.0327,-4.1156,-4.2018,-4.2889,-4.2939,-4.3354,-4.3974,-4.4005,-4.4005,-4.4005,-4.4005,-4.4005,-4.4005,-4.4005,-4.4005,-4.4005,-4.4005,-4.3992,-4.3929,-4.3897,-4.3851,-4.3837,-4.3804,-4.3804,-4.3771,-4.3667,-4.3634,-4.3615,-4.3548,-4.3513,-4.3771,-4.4727,-4.5571,-4.6379,-4.7186,-4.7865,-4.8306,-4.8306,-4.8306,-4.8306,-4.8306,-4.8306,-4.8306,-4.8306,-4.8306,-4.8306,-4.8306,-4.8306,-4.8306,-4.8306,-4.8306,-4.8286,-4.8226,-4.809,-4.797,-4.7925,-4.7801,-4.7717,-4.7717,-4.7717,-4.7717,-4.7717,-4.7717,-4.7717,-4.7717,-4.7717,-4.7717,-4.7717,-4.7717,-4.7717,0.0,0.0,0.0,-2.7643,0.0,-2.9888,-3.0622,-3.104,-3.1234,-3.1132,-3.1132,-3.119,-3.119,-3.1292,-3.1467,-3.1727,-3.1883,-3.2053,-3.2191,-3.2413,-3.2648,-3.2897,-3.315,-3.345,-3.3848,-3.4201,-3.4594,-3.5152,-3.5441,-3.5783,-3.6233,-3.6485,-3.6731,-3.6987,-3.7317,-3.7577,-3.7792,-3.807,-3.8336,-3.8609,-3.8732,-3.9102,-3.9674,-4.0836,-4.1681,-4.2198,-4.2588,-4.2996,-4.3404,-4.3794,-4.3942,-4.3942,-4.3942,-4.3974,-4.4005,-4.4005,-4.4005,-4.4005,-4.4005,-4.3961,-4.3897,-4.3851,-4.3786,-4.3719,-4.3686,-4.3652,-4.3634,-4.3548,-4.3548,-4.3548,-4.3532,-4.3497,-4.3608,-4.403,-4.5039,-4.6122,-4.6948,-4.7737,-4.8306,-4.8306,-4.8306,-4.8306,-4.8306,-4.8306,-4.8306,-4.8306,-4.8306,-4.8306,-4.8306,-4.8306,-4.8306,-4.8306,-4.8286,-4.8265,-4.8187,-4.8028,-4.7925,-4.7902,-4.7759,-4.7717,-4.7717,-4.7717,-4.7717,-4.7717,-4.7717,-4.7717,-4.7717,-4.7717,-4.7717,-4.7717,-4.7717,-4.7717,0.0,0.0,-2.6748,-2.9199,-2.9702,0.0,-3.1053,-3.1278,-3.1292,-3.1132,-3.1176,-3.1234,-3.1132,-3.1351,-3.1597,-3.1784,-3.194,-3.2094,-3.2191,-3.2484,-3.2703,-3.2951,-3.3203,-3.3555,-3.3949,-3.4349,-3.4804,-3.5291,-3.5594,-3.5949,-3.6318,-3.665,-3.6891,-3.7048,-3.7429,-3.7739,-3.7969,-3.8241,-3.8501,-3.8738,-3.8881,-3.9007,-3.9157,-4.0492,-4.1197,-4.1423,-4.2073,-4.2402,-4.2545,-4.3328,-4.3661,-4.368,-4.3828,-4.3929,-4.3974,-4.3974,-4.4005,-4.4005,-4.3974,-4.3961,-4.3883,-4.3786,-4.3667,-4.3582,-4.3532,-4.3497,-4.3497,-4.3497,-4.3497,-4.3497,-4.3497,-4.3497,-4.3497,-4.3497,-4.4617,-4.592,-4.6728,-4.7535,-4.8141,-4.8269,-4.8306,-4.8306,-4.8306,-4.8306,-4.8306,-4.8306,-4.8306,-4.8306,-4.8306,-4.8306,-4.8306,-4.8306,-4.8247,-4.8187,-4.8148,-4.8006,-4.7902,-4.7861,-4.7759,-4.7717,-4.7717,-4.7717,-4.7717,-4.7717,-4.7717,-4.7717,-4.7717,-4.7717,-4.7717,-4.7717,-4.7717,-4.7717,0.0,0.0,-2.6622,0.0,-2.9702,-2.9924,0.0,0.0,-3.1278,-3.1292,-3.119,-3.1132,-3.1234,-3.1394,-3.1567,-3.1784,-3.1996,-3.2247,-3.2342,-3.2648,-3.2951,-3.3203,-3.3607,-3.3949,-3.4201,-3.4594,-3.4977,-3.5333,-3.5622,-3.5993,-3.6461,-3.669,-3.697,-3.7354,-3.7667,-3.7969,-3.8241,-3.8501,-3.8719,-3.8881,-3.9007,-3.9073,-3.9101,-3.9324,-3.9844,-4.055,-4.0537,-4.097,-4.173,-4.2482,-4.2765,-4.2839,-4.356,-4.3851,-4.3897,-4.3897,-4.3961,-4.4005,-4.3929,-4.3883,-4.3786,-4.3667,-4.36,-4.3513,-4.3479,-4.3497,-4.3497,-4.3497,-4.3497,-4.3497,-4.3497,-4.3497,-4.3497,-4.3497,-4.4195,-4.5094,-4.5883,-4.6691,-4.748,-4.8159,-4.8306,-4.8306,-4.8306,-4.8306,-4.8306,-4.8306,-4.8306,-4.8306,-4.8306,-4.8306,-4.8306,-4.8306,-4.8247,-4.8148,-4.805,-4.7966,-4.7861,-4.7717,-4.7717,-4.7717,-4.7717,-4.7717,-4.7717,-4.7717,-4.7717,-4.7717,-4.7717,-4.7717,-4.7717,-4.7717,-4.7717,-4.7717,-2.2931,-2.4686,-2.6518,0.0,-2.9305,-3.0036,-3.093,-3.1426,-3.1697,-3.1697,-3.1655,-3.1597,-3.1509,-3.1682,-3.1853,-3.1981,-3.2191,-3.2342,-3.2523,-3.2827,-3.3096,-3.3309,-3.3658,-3.405,-3.4399,-3.4804,-3.5165,-3.5577,-3.5861,-3.6208,-3.6602,-3.6851,-3.7108,-3.7392,-3.7757,-3.807,-3.8336,-3.8596,-3.878,-3.8968,-3.9045,-3.9101,-3.9101,-3.9045,-3.9268,-3.9657,-4.0026,-4.0374,-4.0708,-4.1488,-4.182,-4.1894,-4.2705,-4.3102,-4.3222,-4.3684,-4.3851,-4.3883,-4.3851,-4.3786,-4.3667,-4.3615,-4.3548,-4.3497,-4.3497,-4.3497,-4.3497,-4.3497,-4.3497,-4.3497,-4.3497,-4.3497,-4.3497,-4.3497,-4.3754,-4.436,-4.5626,-4.6544,-4.7352,-4.8141,-4.8306,-4.8306,-4.8306,-4.8306,-4.8306,-4.8306,-4.8306,-4.8306,-4.8306,-4.8306,-4.8286,-4.8247,-4.8169,-4.805,-4.7947,-4.7842,-4.7759,-4.7699,-4.7717,-4.7717,-4.7717,-4.7717,-4.7717,-4.7717,-4.7717,-4.7717,-4.7717,-4.7717,-4.7717,-4.7717,-4.7717,-4.7717,0.0,0.0,-2.6061,-2.7628,-2.8763,-2.9765,0.0,-3.1389,-3.1784,-3.2007,-3.2038,-3.2038,-3.1894,-3.1966,-3.2094,-3.2247,-3.2342,-3.2523,-3.2703,-3.2989,-3.3203,-3.345,-3.3797,-3.4151,-3.4546,-3.493,-3.5367,-3.5773,-3.6079,-3.6377,-3.6702,-3.697,-3.7223,-3.7449,-3.7845,-3.8153,-3.8415,-3.867,-3.8851,-3.9036,-3.9073,-3.9101,-3.9073,-3.9007,-3.8979,-3.8987,-3.9579,-3.9767,-3.9768,-4.0528,-4.0877,-4.0951,-4.176,-4.2267,-4.2608,-4.3217,-4.3586,-4.3804,-4.3753,-4.3667,-4.3582,-4.3582,-4.3548,-4.3497,-4.3497,-4.3497,-4.3497,-4.3497,-4.3497,-4.3497,-4.3497,-4.3497,-4.3497,-4.3497,-4.3497,-4.3938,-4.5553,-4.6691,-4.759,-4.8196,-4.8306,-4.8306,-4.8306,-4.8306,-4.8306,-4.8306,-4.8306,-4.8306,-4.8306,-4.8306,-4.8267,-4.8226,-4.809,-4.797,-4.7925,-4.7801,-4.7717,-4.7717,-4.7717,-4.7717,-4.7717,-4.7717,-4.7717,-4.7717,-4.7717,-4.7717,-4.7717,-4.7717,-4.7717,-4.7717,-4.7717,-4.7717,-2.2978,-2.3774,0.0,-2.7514,-2.8149,-2.8627,-3.0555,-3.1025,-3.1277,-3.2013,-3.2191,-3.2247,-3.2342,-3.2287,-3.2247,-3.2342,-3.2523,-3.2703,-3.3043,-3.3203,-3.345,-3.3797,-3.4101,-3.4448,-3.4851,-3.5211,-3.5487,-3.5773,-3.6105,-3.6402,-3.6702,-3.697,-3.7261,-3.7577,-3.7915,-3.8234,-3.8491,-3.8833,-3.9007,-3.9101,-3.9101,-3.9073,-3.9026,-3.9007,-3.8921,-3.8822,-3.8859,-3.8877,-3.8921,-3.9638,-3.9955,-4.0047,-4.0855,-4.1691,-4.24,-4.2456,-4.3037,-4.3771,-4.3667,-4.3615,-4.3582,-4.3532,-4.3479,-4.3497,-4.3497,-4.3497,-4.3497,-4.3497,-4.3497,-4.3497,-4.3497,-4.3497,-4.3497,-4.3497,-4.3497,-4.3938,-4.5553,-4.7131,-4.8251,-4.8306,-4.8306,-4.8306,-4.8306,-4.8306,-4.8306,-4.8306,-4.8306,-4.8306,-4.8306,-4.8306,-4.8306,-4.8306,-4.8111,-4.7992,-4.7992,-4.7806,-4.7717,-4.7717,-4.7717,-4.7717,-4.7717,-4.7717,-4.7717,-4.7717,-4.7717,-4.7717,-4.7717,-4.7717,-4.7717,-4.7717,-4.7717,-4.7717,-2.2064,0.0,0.0,-2.5468,-2.6993,-2.8449,-2.9169,-3.0689,-3.1967,-3.2269,-3.2345,-3.2342,-3.2398,-3.2413,-3.2468,-3.2523,-3.2757,-3.2989,-3.3203,-3.3346,-3.3607,-3.4,-3.425,-3.4594,-3.4994,-3.535,-3.5605,-3.5854,-3.6147,-3.6433,-3.6702,-3.6921,-3.7157,-3.7397,-3.7771,-3.8245,-3.8829,-3.8939,-3.9036,-3.9101,-3.9064,-3.9007,-3.8997,-3.887,-3.878,-3.8719,-3.859,-3.859,-3.864,-3.8902,-3.8999,-3.9008,-3.9932,-4.0459,-4.0804,-4.1364,-4.2114,-4.2846,-4.2794,-4.3091,-4.3513,-4.3532,-4.3497,-4.3497,-4.3497,-4.3497,-4.3497,-4.3497,-4.3497,-4.3497,-4.3497,-4.3497,-4.3497,-4.3497,-4.3883,-4.458,-4.5663,-4.6764,-4.77,-4.8214,-4.8306,-4.8306,-4.8306,-4.8306,-4.8306,-4.8306,-4.8306,-4.8306,-4.8306,-4.8306,-4.8267,-4.8247,-4.8169,-4.809,-4.7992,-4.7907,-4.7819,-4.7819,-4.7759,-4.7717,-4.7717,-4.7717,-4.7717,-4.7717,-4.7717,-4.7717,-4.7717,-4.7717,-4.7717,-4.7717,-4.7717,-4.7717,-2.1142,-2.2362,0.0,0.0,-2.565,-2.7287,-2.8163,-2.9794,-3.129,-3.222,-3.2408,-3.2384,-3.2407,-3.2547,-3.2617,-3.2703,-3.2935,-3.315,-3.3346,-3.3503,-3.3797,-3.4201,-3.4448,-3.4771,-3.5178,-3.5436,-3.5688,-3.5933,-3.6163,-3.6405,-3.6702,-3.6886,-3.7124,-3.7488,-3.7873,-3.8328,-3.8877,-3.8976,-3.9016,-3.9054,-3.8997,-3.8921,-3.8881,-3.875,-3.8645,-3.8564,-3.8419,-3.8382,-3.8478,-3.8478,-3.8446,-3.8469,-3.9086,-3.952,-3.9812,-4.0408,-4.1156,-4.1922,-4.2213,-4.2653,-4.313,-4.3406,-4.3497,-4.3497,-4.3497,-4.3497,-4.3497,-4.3497,-4.3497,-4.3497,-4.3497,-4.3497,-4.3497,-4.3497,-4.3901,-4.4525,-4.5314,-4.6342,-4.7352,-4.8141,-4.8306,-4.8306,-4.8306,-4.8306,-4.8306,-4.8306,-4.8306,-4.8306,-4.8306,-4.8306,-4.8267,-4.8265,-4.8226,-4.8148,-4.809,-4.7988,-4.7925,-4.7925,-4.7866,-4.7824,-4.7824,-4.7824,-4.7783,-4.7759,-4.7759,-4.7759,-4.7717,-4.7717,-4.7717,-4.7717,-4.7717,-4.7717,0.0,0.0,0.0,-2.3948,-2.4277,-2.5013,-2.7655,-2.835,-2.9123,-3.1731,-3.2329,-3.2384,-3.2408,-3.2579,-3.2749,-3.2881,-3.3043,-3.3203,-3.345,-3.3745,-3.405,-3.4448,-3.4739,-3.5038,-3.5352,-3.5531,-3.5708,-3.5968,-3.6195,-3.6394,-3.6684,-3.6904,-3.7288,-3.7859,-3.8216,-3.8496,-3.8707,-3.8877,-3.8984,-3.9003,-3.8929,-3.884,-3.8707,-3.8676,-3.8533,-3.8307,-3.8274,-3.8322,-3.8382,-3.8382,-3.8382,-3.8382,-3.8382,-3.8875,-3.9568,-3.9721,-4.0266,-4.1104,-4.1922,-4.2268,-4.2433,-4.3204,-4.3461,-4.3497,-4.3497,-4.3497,-4.3497,-4.3497,-4.3497,-4.3497,-4.3497,-4.3497,-4.3497,-4.3497,-4.3497,-4.3718,-4.4544,-4.5957,-4.7315,-4.8122,-4.8288,-4.8306,-4.8306,-4.8306,-4.8306,-4.8306,-4.8306,-4.8306,-4.8306,-4.8306,-4.8306,-4.8306,-4.8247,-4.8226,-4.8226,-4.809,-4.8032,-4.8032,-4.7992,-4.7992,-4.7992,-4.7992,-4.797,-4.7902,-4.7902,-4.7861,-4.7699,-4.7699,-4.7717,-4.7717,-4.7717,-4.7717,-2.0282,0.0,0.0,0.0,0.0,0.0,-2.5255,-2.6964,-2.8596,-2.9357,-3.1072,-3.2405,-3.239,-3.2825,-3.3166,-3.3212,-3.3287,-3.345,-3.3607,-3.3848,-3.4201,-3.4594,-3.4899,-3.5131,-3.5397,-3.5637,-3.5778,0.0,-3.6077,-3.6457,-3.6899,-3.7232,-3.7503,-3.7703,-3.8052,-3.8394,-3.8697,-3.8755,-3.883,-3.8946,-3.8903,-3.8774,-3.8569,-3.8336,-3.8171,-3.8003,-3.7898,-3.7863,-3.7863,-3.8018,-3.807,-3.8054,-3.8086,-3.828,-3.8546,-3.8667,-3.9327,-4.0174,-4.0408,-4.1284,-4.2341,-4.2561,-4.302,-4.3497,-4.3497,-4.3497,-4.3497,-4.3497,-4.3497,-4.3497,-4.3497,-4.3497,-4.3497,-4.3497,-4.3497,-4.3718,-4.4544,-4.5516,-4.6471,-4.7297,-4.7921,-4.8306,-4.8306,-4.8363,-4.8457,-4.8457,-4.8513,-4.8514,-4.8514,-4.8514,-4.8514,-4.8514,-4.8495,-4.8495,-4.8495,-4.8401,-4.8381,-4.8381,-4.8286,-4.8208,-4.8148,-4.813,-4.8108,-4.797,-4.797,-4.797,-4.7929,-4.7783,-4.7717,-4.7717,-4.7717,-4.7717,-2.0284,-2.0294,-2.0688,-2.224,0.0,0.0,-2.4304,-2.5557,-2.701,-2.8148,-2.963,-3.0779,-3.0978,-3.131,-3.1699,-3.218,-3.257,-3.3038,-3.3767,-3.4101,-3.4399,-3.4804,-3.5085,-3.5295,-3.5464,-3.5667,-3.5822,-3.5891,-3.6128,-3.6516,-3.6968,-3.721,-3.7445,-3.7596,-3.7827,-3.8124,-3.847,-3.8482,-3.8528,-3.8611,-3.867,-3.8591,-3.8474,-3.8231,-3.797,-3.7775,-3.7631,-3.754,-3.7484,-3.7649,-3.7721,-3.7775,-3.7863,-3.7915,-3.7984,-3.8138,-3.858,-3.9152,-3.9648,-4.0665,-4.1831,-4.2194,-4.2837,-4.3497,-4.3497,-4.3497,-4.3497,-4.3497,-4.3497,-4.3497,-4.3497,-4.3497,-4.3497,-4.3497,-4.3497,-4.3626,-4.4103,-4.4837,-4.5755,-4.6893,-4.7812,-4.8363,-4.8363,-4.8476,-4.855,-4.855,-4.8569,-4.8587,-4.8587,-4.8587,-4.8587,-4.8587,-4.8587,-4.8623,-4.8678,-4.8642,-4.8642,-4.8679,-4.855,-4.8476,-4.8457,-4.8401,-4.8324,-4.8208,-4.8208,-4.819,-4.8111,-4.7929,-4.7824,-4.7824,-4.7824,-4.7824,-2.04,-2.036,-2.0318,-2.0394,-2.2194,0.0,-2.4246,-2.4304,-2.4982,-2.744,-2.7965,-2.8213,-2.879,-2.8912,-2.9345,-3.0479,-3.1246,-3.2208,-3.368,-3.4186,-3.4576,-3.4925,-3.5215,-3.548,-3.5633,-3.5617,-3.5779,-3.6284,-3.6298,-3.6504,-3.6913,-3.697,-3.7164,-3.754,-3.7559,-3.7757,-3.8111,-3.8108,-3.814,-3.814,-3.8249,-3.8307,-3.8276,-3.8061,-3.7846,-3.7552,-3.7408,-3.7297,-3.7238,-3.7238,-3.7372,-3.7577,-3.7631,-3.7667,-3.7703,-3.7966,-3.8068,-3.8244,-3.9258,-4.0141,-4.0979,-4.1886,-4.2708,-4.3369,-4.3461,-4.3497,-4.3497,-4.3497,-4.3497,-4.3497,-4.3497,-4.3497,-4.3497,-4.3497,-4.3497,-4.3497,-4.3497,-4.4121,-4.5168,-4.6691,-4.772,-4.8402,-4.8476,-4.8587,-4.8623,-4.8623,-4.8623,-4.8678,-4.8678,-4.866,-4.866,-4.866,-4.866,-4.8714,-4.8822,-4.8857,-4.8892,-4.8943,-4.8892,-4.8822,-4.8822,-4.8714,-4.8605,-4.855,-4.855,-4.8457,-4.8344,-4.8151,-4.8032,-4.8032,-4.8032,-4.7988,-2.0996,-2.0671,0.0,0.0,-2.1486,0.0,-2.3935,-2.4318,-2.4453,-2.4967,-2.5408,-2.6031,-2.7254,-2.7887,-2.8556,-2.9651,-3.0551,-3.1399,-3.2287,-3.3268,-3.4005,-3.4205,-3.4897,-3.5548,-3.5864,-3.5745,-3.5779,-3.6284,-3.6298,-3.6312,-3.6441,-3.6781,-3.7031,-3.7114,-3.7427,-3.7628,-3.7737,-3.7703,-3.7739,-3.7739,-3.7757,-3.7757,-3.7736,-3.7394,-3.7279,-3.7355,-3.7167,-3.7013,-3.6876,-3.6841,-3.7044,-3.7372,-3.7372,-3.7484,-3.7613,-3.7685,-3.788,-3.8119,-3.8368,-3.9049,-4.002,-4.0943,-4.18,-4.2585,-4.3296,-4.3497,-4.3497,-4.3497,-4.3497,-4.3497,-4.3497,-4.3497,-4.3497,-4.3497,-4.3497,-4.3497,-4.3497,-4.4121,-4.5038,-4.6102,-4.6966,-4.7758,-4.8458,-4.8697,-4.8751,-4.8751,-4.8892,-4.9015,-4.9015,-4.9064,-4.9079,-4.9079,-4.9079,-4.9079,-4.9131,-4.9113,-4.9131,-4.9146,-4.9113,-4.9079,-4.8959,-4.8959,-4.889,-4.8839,-4.8787,-4.8679,-4.855,-4.8344,-4.8229,-4.8229,-4.8169,-4.8148,-2.1303,0.0,0.0,-2.0691,0.0,0.0,0.0,-2.2809,-2.3492,-2.4166,-2.456,-2.5176,-2.6368,-2.7005,-2.7597,-2.8426,-2.9027,-2.9599,-3.007,-3.1984,-3.3439,-3.3661,-3.4788,-3.5608,-3.5985,-3.5983,-3.6059,-3.6284,-3.6308,-3.6281,-3.6277,-3.676,-3.6974,-3.7013,-3.72,-3.7276,-3.7281,-3.7303,-3.7303,-3.7301,-3.7301,-3.7297,-3.7284,-3.7066,-3.6952,-3.6811,-3.6696,-3.669,-3.6737,-3.6684,-3.6771,-3.697,-3.7105,-3.722,-3.7317,-3.7466,-3.7631,-3.788,-3.8018,-3.8697,-3.9595,-4.013,-4.1147,-4.2276,-4.2713,-4.3151,-4.3497,-4.3497,-4.3497,-4.3497,-4.3497,-4.3497,-4.3497,-4.3497,-4.3497,-4.3497,-4.3497,-4.3809,-4.4377,-4.5328,-4.6173,-4.7166,-4.8475,-4.8822,-4.8946,-4.8946,-4.9049,-4.915,-4.915,-4.9164,-4.9197,-4.9197,-4.9197,-4.9211,-4.9244,-4.9244,-4.9295,-4.9345,-4.9295,-4.9211,-4.916,-4.9127,-4.9061,-4.9046,-4.903,-4.8978,-4.889,-4.8785,-4.8642,-4.8439,-4.842,-4.8363,0.0,0.0,0.0,0.0,0.0,-2.1132,0.0,0.0,0.0,-2.3538,-2.3946,-2.4387,-2.5284,-2.5707,-2.6195,-2.7017,-2.7356,-2.7732,-2.8268,-3.0534,-3.2328,-3.2874,-3.4316,-3.5428,-3.5883,-3.6139,-3.6318,-3.6291,-3.6284,-3.6308,-3.6305,-3.6665,-3.6882,-3.6856,-3.6948,-3.7009,-3.7002,-3.7002,-3.6999,-3.7013,-3.6904,-3.6878,-3.6858,-3.6876,-3.6673,-3.6284,-3.6301,-3.6405,-3.6602,-3.655,-3.6533,-3.6591,-3.6851,-3.6948,-3.697,-3.7241,-3.7429,-3.7577,-3.781,-3.8435,-3.9135,-3.9467,-4.075,-4.2239,-4.2386,-4.2915,-4.3497,-4.3497,-4.3497,-4.3497,-4.3497,-4.3497,-4.3497,-4.3497,-4.3497,-4.3497,-4.3497,-4.3497,-4.3771,-4.4739,-4.56,-4.6666,-4.8305,-4.8834,-4.9068,-4.9101,-4.915,-4.9211,-4.9211,-4.923,-4.9262,-4.9262,-4.9262,-4.9295,-4.934,-4.934,-4.939,-4.949,-4.9409,-4.934,-4.934,-4.9295,-4.9262,-4.9211,-4.9211,-4.9211,-4.9197,-4.9197,-4.9027,-4.8695,-4.8695,-4.8642,0.0,0.0,0.0,0.0,-2.0778,0.0,0.0,0.0,-2.0795,-2.1736,0.0,-2.2459,-2.2989,0.0,0.0,-2.5556,-2.6036,-2.6739,-2.8251,-2.8925,-2.977,-3.1134,-3.2832,-3.4363,-3.5515,-3.6064,-3.6307,-3.6284,-3.6298,-3.6308,-3.6305,-3.634,-3.6405,-3.6383,-3.6777,-3.6975,-3.6998,-3.6998,-3.6998,-3.7015,-3.6563,-3.6365,-3.64,-3.6388,-3.6364,-3.6288,-3.6274,-3.6326,-3.6343,-3.6343,-3.6343,-3.6343,-3.6643,-3.6766,-3.6829,-3.697,-3.7182,-3.7372,-3.7577,-3.7739,-3.8079,-3.9099,-4.0666,-4.2349,-4.3028,-4.3355,-4.3497,-4.3497,-4.3497,-4.3497,-4.3497,-4.3497,-4.3497,-4.3497,-4.3497,-4.3497,-4.3497,-4.3497,-4.3771,-4.4739,-4.5549,-4.6448,-4.7529,-4.841,-4.8962,-4.9068,-4.915,-4.9211,-4.9276,-4.9409,-4.9459,-4.9459,-4.9459,-4.9459,-4.9459,-4.9459,-4.949,-4.9509,-4.9509,-4.9459,-4.9459,-4.9459,-4.9409,-4.9308,-4.9308,-4.9276,-4.9197,-4.9197,-4.9197,-4.9113,-4.9027,-4.8925,0.0,0.0,0.0,0.0,0.0,0.0,-2.0264,0.0,-2.0441,0.0,0.0,0.0,0.0,0.0,0.0,0.0,-2.4603,-2.5008,-2.5897,-2.6872,-2.8226,-3.0122,-3.16,-3.27,-3.3325,-3.3567,-3.4393,-3.6145,-3.6277,-3.6305,-3.6291,-3.6291,-3.6298,-3.6295,-3.6474,-3.6585,-3.6574,-3.6574,-3.6591,-3.6602,-3.6405,-3.6312,-3.6281,-3.6316,-3.6308,-3.6318,-3.631,-3.6319,-3.6311,-3.6311,-3.6311,-3.6311,-3.6362,-3.6478,-3.6626,-3.6766,-3.6948,-3.7126,-3.7279,-3.7466,-3.7918,-3.9499,-4.0633,-4.1608,-4.2957,-4.3411,-4.3446,-4.3497,-4.3463,-4.3446,-4.3446,-4.3393,-4.3322,-4.3322,-4.3322,-4.3322,-4.3322,-4.3322,-4.3467,-4.394,-4.4707,-4.5587,-4.6557,-4.7935,-4.8962,-4.9068,-4.9197,-4.9276,-4.9308,-4.9409,-4.9509,-4.9509,-4.9509,-4.9509,-4.9509,-4.9509,-4.9509,-4.9509,-4.9509,-4.9509,-4.9509,-4.9509,-4.9459,-4.9409,-4.9409,-4.9409,-4.9377,-4.9377,-4.9377,-4.9377,-4.9197,-4.9079,-2.3608,0.0,0.0,0.0,0.0,0.0,0.0,0.0,0.0,0.0,-2.1372,0.0,0.0,0.0,0.0,0.0,0.0,-2.3735,-2.4128,-2.5345,-2.6911,-2.8783,-2.9815,-3.0749,-3.1699,-3.1819,-3.2706,-3.4898,-3.5833,-3.6318,-3.6316,-3.6308,-3.6308,-3.6298,-3.6298,-3.6305,-3.6295,-3.6277,-3.6288,-3.6291,-3.6291,-3.6284,-3.6285,-3.6285,-3.6319,-3.6285,-3.6182,-3.6096,-3.6104,-3.6104,-3.6104,-3.6104,-3.6019,-3.6131,-3.6377,-3.6544,-3.6667,-3.6851,-3.6992,-3.7299,-3.7917,-3.9788,-4.051,-4.0978,-4.2776,-4.3323,-4.334,-4.3393,-4.3393,-4.334,-4.334,-4.3251,-4.3214,-4.3214,-4.3214,-4.3214,-4.3214,-4.3214,-4.3251,-4.334,-4.4034,-4.4912,-4.5882,-4.7404,-4.8614,-4.8978,-4.9131,-4.9244,-4.9289,-4.939,-4.9459,-4.9509,-4.9509,-4.9509,-4.9509,-4.9509,-4.9509,-4.9509,-4.9509,-4.9509,-4.9509,-4.9509,-4.9509,-4.9509,-4.9509,-4.9509,-4.9509,-4.9509,-4.9509,-4.9509,-4.9345,-4.9249,0.0,0.0,0.0,-2.3516,0.0,0.0,0.0,0.0,-2.1305,0.0,0.0,0.0,0.0,0.0,0.0,0.0,0.0,0.0,0.0,-2.4814,-2.5632,-2.6673,-2.7199,-2.8577,-3.1512,-3.1821,-3.1846,-3.1935,-3.4656,-3.6307,-3.6307,-3.6298,-3.6301,-3.6301,-3.6301,-3.6301,-3.6284,-3.6284,-3.6293,-3.6294,-3.6294,-3.6285,-3.6285,-3.6285,-3.6285,-3.6268,-3.5839,-3.5642,-3.5598,-3.5598,-3.5598,-3.5598,-3.5598,-3.5761,-3.6062,-3.6216,-3.6301,-3.6385,-3.6851,-3.7279,-3.7881,-3.9584,-4.0292,-4.0817,-4.2559,-4.316,-4.3214,-4.3214,-4.3214,-4.3214,-4.3214,-4.3196,-4.3214,-4.3214,-4.3214,-4.3214,-4.3214,-4.3214,-4.3214,-4.3214,-4.3853,-4.4692,-4.5644,-4.6709,-4.7772,-4.8744,-4.8909,-4.9012,-4.9276,-4.9289,-4.9358,-4.9509,-4.9509,-4.9509,-4.9509,-4.9509,-4.9509,-4.9509,-4.9509,-4.9509,-4.9509,-4.9509,-4.9509,-4.9509,-4.9509,-4.9509,-4.9509,-4.9509,-4.9509,-4.9509,-4.949,-4.9409,0.0,0.0,-2.3611,-2.36,0.0,0.0,0.0,0.0,0.0,0.0,0.0,0.0,0.0,0.0,0.0,0.0,0.0,0.0,0.0,-2.3046,-2.414,-2.6415,-2.6808,-2.7403,-2.8681,-3.0626,-3.1785,-3.1809,-3.2762,-3.4163,-3.6162,-3.6298,-3.6301,-3.6301,-3.6301,-3.6276,-3.6302,-3.6302,-3.6294,-3.6294,-3.5968,-3.5822,-3.5856,-3.5856,-3.5847,-3.5827,-3.5664,-3.5603,-3.561,-3.561,-3.561,-3.561,-3.561,-3.5644,-3.5756,-3.5968,-3.6156,-3.6385,-3.6851,-3.7182,-3.7696,-3.947,-4.0199,-4.0745,-4.2467,-4.3049,-4.316,-4.3178,-4.3178,-4.3123,-4.3123,-4.3068,-4.3013,-4.3013,-4.3013,-4.3013,-4.3013,-4.3013,-4.3013,-4.3123,-4.3341,-4.3979,-4.5422,-4.5974,-4.6764,-4.8384,-4.8768,-4.8925,-4.9027,-4.9193,-4.9308,-4.9358,-4.9459,-4.9509,-4.9509,-4.9509,-4.9509,-4.9509,-4.9509,-4.9509,-4.9509,-4.9509,-4.9509,-4.9509,-4.9509,-4.9509,-4.9509,-4.9509,-4.9509,-4.9509,-4.9509,-4.944,-2.761,-2.6318,0.0,-2.5014,-2.4657,0.0,-2.4079,0.0,-2.2747,0.0,0.0,0.0,0.0,0.0,0.0,0.0,0.0,0.0,0.0,-2.2207,-2.3009,-2.4901,-2.6061,-2.6808,-2.7063,-2.8868,-3.0484,-3.1711,-3.179,-3.3117,-3.6116,-3.6312,-3.6274,-3.6301,-3.6293,-3.6285,-3.6294,-3.6105,-3.6062,-3.6034,-3.5752,-3.5623,-3.5596,-3.5596,-3.5603,-3.5582,-3.5582,-3.5616,-3.5622,-3.5622,-3.5622,-3.5622,-3.5622,-3.5622,-3.5605,-3.5732,-3.5994,-3.6343,-3.6713,-3.7027,-3.7562,-3.9373,-4.0141,-4.069,-4.2354,-4.2956,-4.3049,-4.3087,-4.3068,-4.3049,-4.3049,-4.2938,-4.2882,-4.2882,-4.2882,-4.2882,-4.2882,-4.2882,-4.2938,-4.2994,-4.3049,-4.3449,-4.4833,-4.5344,-4.6207,-4.8124,-4.8587,-4.875,-4.8874,-4.9061,-4.9225,-4.9289,-4.9409,-4.9509,-4.9509,-4.9509,-4.9509,-4.9509,-4.9509,-4.9509,-4.9509,-4.9509,-4.9509,-4.9509,-4.9509,-4.9509,-4.9509,-4.9509,-4.9509,-4.9509,-4.9459,-4.939]}]]